[[{"header":{"parameterUnit":"m.s-1","parameterCategory":1,"la1":30.6,"la2":28.766,"lo1":-90.7593,"lo2":-88.6598,"dy":0.0162,"dx":0.0183,"nx":116,"ny":114,"refTime":"2024-03-07T06:00:00:Z","depth":0,"parameterNumber":2,"parameterNumberName":"U-component_of_WINDS"},"data":[0.0,0.0,0.0,0.0,0.0,0.0,0.0,0.0,0.0,0.0,0.0,0.0,0.0,0.0,0.0,0.0,0.0,0.0,0.0,0.0,0.0,0.0,0.0,0.0,0.0,0.0,0.0,0.0,0.0,0.0,0.0,0.0,0.0,0.0,0.0,0.0,0.0,0.0,0.0,0.0,0.0,0.0,0.0,0.0,0.0,0.0,0.0,0.0,0.0,0.0,0.0,0.0,0.0,0.0,0.0,0.0,0.0,0.0,0.0,0.0,0.0,0.0,0.0,0.0,0.0,0.0,0.0,0.0,0.0,0.0,0.0,0.0,0.0,0.0,0.0,0.0,0.0,0.0,0.0,0.0,0.0,0.0,0.0,0.0,0.0,0.0,0.0,0.0,0.0,0.0,0.0,0.0,0.0,0.0,0.0,0.0,0.0,0.0,0.0,0.0,0.0,0.0,0.0,0.0,0.0,0.0,0.0,0.0,0.0,0.0,0.0,0.0,0.0,0.0,0.0,0.0,0.0,0.0,0.0,0.0,0.0,0.0,0.0,0.0,0.0,0.0,0.0,0.0,0.0,0.0,0.0,0.0,0.0,0.0,0.0,0.0,0.0,0.0,0.0,0.0,0.0,0.0,0.0,0.0,0.0,0.0,0.0,0.0,0.0,0.0,0.0,0.0,0.0,0.0,0.0,0.0,0.0,0.0,0.0,0.0,0.0,0.0,0.0,0.0,0.0,0.0,0.0,0.0,0.0,0.0,0.0,0.0,0.0,0.0,0.0,0.0,0.0,0.0,0.0,0.0,0.0,0.0,0.0,0.0,0.0,0.0,0.0,0.0,0.0,0.0,0.0,0.0,0.0,0.0,0.0,0.0,0.0,0.0,0.0,0.0,0.0,0.0,0.0,0.0,0.0,0.0,0.0,0.0,0.0,0.0,0.0,0.0,0.0,0.0,0.0,0.0,0.0,0.0,0.0,0.0,0.0,0.0,0.0,0.0,0.0,0.0,0.0,0.0,0.0,0.0,0.0,0.0,0.0,0.0,0.0,0.0,0.0,0.0,0.0,0.0,0.0,0.0,0.0,0.0,0.0,0.0,0.0,0.0,0.0,0.0,0.0,0.0,0.0,0.0,0.0,0.0,0.0,0.0,0.0,0.0,0.0,0.0,0.0,0.0,0.0,0.0,0.0,0.0,0.0,0.0,0.0,0.0,0.0,0.0,0.0,0.0,0.0,0.0,0.0,0.0,0.0,0.0,0.0,0.0,0.0,0.0,0.0,0.0,0.0,0.0,0.0,0.0,0.0,0.0,0.0,0.0,0.0,0.0,0.0,0.0,0.0,0.0,0.0,0.0,0.0,0.0,0.0,0.0,0.0,0.0,0.0,0.0,0.0,0.0,0.0,0.0,0.0,0.0,0.0,0.0,0.0,0.0,0.0,0.0,0.0,0.0,0.0,0.0,0.0,0.0,0.0,0.0,0.0,0.0,0.0,0.0,0.0,0.0,0.0,0.0,0.0,0.0,0.0,0.0,0.0,0.0,0.0,0.0,0.0,0.0,0.0,0.0,0.0,0.0,0.0,0.0,0.0,0.0,0.0,0.0,0.0,0.0,0.0,0.0,0.0,0.0,0.0,0.0,0.0,0.0,0.0,0.0,0.0,0.0,0.0,0.0,0.0,0.0,0.0,0.0,0.0,0.0,0.0,0.0,0.0,0.0,0.0,0.0,0.0,0.0,0.0,0.0,0.0,0.0,0.0,0.0,0.0,0.0,0.0,0.0,0.0,0.0,0.0,0.0,0.0,0.0,0.0,0.0,0.0,0.0,0.0,0.0,0.0,0.0,0.0,0.0,0.0,0.0,0.0,0.0,0.0,0.0,0.0,0.0,0.0,0.0,0.0,0.0,0.0,0.0,0.0,0.0,0.0,0.0,0.0,0.0,0.0,0.0,0.0,0.0,0.0,0.0,0.0,0.0,0.0,0.0,0.0,0.0,0.0,0.0,0.0,0.0,0.0,0.0,0.0,0.0,0.0,0.0,0.0,0.0,0.0,0.0,0.0,0.0,0.0,0.0,0.0,0.0,0.0,0.0,0.0,0.0,0.0,0.0,0.0,0.0,0.0,0.0,0.0,0.0,0.0,0.0,0.0,0.0,0.0,0.0,0.0,0.0,0.0,0.0,0.0,0.0,0.0,0.0,0.0,0.0,0.0,0.0,0.0,0.0,0.0,0.0,0.0,0.0,0.0,0.0,0.0,0.0,0.0,0.0,0.0,0.0,0.0,0.0,0.0,0.0,0.0,0.0,0.0,0.0,0.0,0.0,0.0,0.0,0.0,0.0,0.0,0.0,0.0,0.0,0.0,0.0,0.0,0.0,0.0,0.0,0.0,0.0,0.0,0.0,0.0,0.0,0.0,0.0,0.0,0.0,0.0,0.0,0.0,0.0,0.0,0.0,0.0,0.0,0.0,0.0,0.0,0.0,0.0,0.0,0.0,0.0,0.0,0.0,0.0,0.0,0.0,0.0,0.0,0.0,0.0,0.0,0.0,0.0,0.0,0.0,0.0,0.0,0.0,0.0,0.0,0.0,0.0,0.0,0.0,0.0,0.0,0.0,0.0,0.0,0.0,0.0,0.0,0.0,0.0,0.0,0.0,0.0,0.0,0.0,0.0,0.0,0.0,0.0,0.0,0.0,0.0,0.0,0.0,0.0,0.0,0.0,0.0,0.0,0.0,0.0,0.0,0.0,0.0,0.0,0.0,0.0,0.0,0.0,0.0,0.0,0.0,0.0,0.0,0.0,0.0,0.0,0.0,0.0,0.0,0.0,0.0,0.0,0.0,0.0,0.0,0.0,0.0,0.0,0.0,0.0,0.0,0.0,0.0,0.0,0.0,0.0,0.0,0.0,0.0,0.0,0.0,0.0,0.0,0.0,0.0,0.0,0.0,0.0,0.0,0.0,0.0,0.0,0.0,0.0,0.0,0.0,0.0,0.0,0.0,0.0,0.0,0.0,0.0,0.0,0.0,0.0,0.0,0.0,0.0,0.0,0.0,0.0,0.0,0.0,0.0,0.0,0.0,0.0,0.0,0.0,0.0,0.0,0.0,0.0,0.0,0.0,0.0,0.0,0.0,0.0,0.0,0.0,0.0,0.0,0.0,0.0,0.0,0.0,0.0,0.0,0.0,0.0,0.0,0.0,0.0,0.0,0.0,0.0,0.0,0.0,0.0,0.0,0.0,0.0,0.0,0.0,0.0,0.0,0.0,0.0,0.0,0.0,0.0,0.0,0.0,0.0,0.0,0.0,0.0,0.0,0.0,0.0,0.0,0.0,0.0,0.0,0.0,0.0,0.0,0.0,0.0,0.0,0.0,0.0,0.0,0.0,0.0,0.0,0.0,0.0,0.0,0.0,0.0,0.0,0.0,0.0,0.0,0.0,0.0,0.0,0.0,0.0,0.0,0.0,0.0,0.0,0.0,0.0,0.0,0.0,0.0,0.0,0.0,0.0,0.0,0.0,0.0,0.0,0.0,0.0,0.0,0.0,0.0,0.0,0.0,0.0,0.0,0.0,0.0,0.0,0.0,0.0,0.0,0.0,0.0,0.0,0.0,0.0,0.0,0.0,0.0,0.0,0.0,0.0,0.0,0.0,0.0,0.0,0.0,0.0,0.0,0.0,0.0,0.0,0.0,0.0,0.0,0.0,0.0,0.0,0.0,0.0,0.0,0.0,0.0,0.0,0.0,0.0,0.0,0.0,0.0,0.0,0.0,0.0,0.0,0.0,0.0,0.0,0.0,0.0,0.0,0.0,0.0,0.0,0.0,0.0,0.0,0.0,0.0,0.0,0.0,0.0,0.0,0.0,0.0,0.0,0.0,0.0,0.0,0.0,0.0,0.0,0.0,0.0,0.0,0.0,0.0,0.0,0.0,0.0,0.0,0.0,0.0,0.0,0.0,0.0,0.0,0.0,0.0,0.0,0.0,0.0,0.0,0.0,0.0,0.0,0.0,0.0,0.0,0.0,0.0,0.0,0.0,0.0,0.0,0.0,0.0,0.0,0.0,0.0,0.0,0.0,0.0,0.0,0.0,0.0,0.0,0.0,0.0,0.0,0.0,0.0,0.0,0.0,0.0,0.0,0.0,0.0,0.0,0.0,0.0,0.0,0.0,0.0,0.0,0.0,0.0,0.0,0.0,0.0,0.0,0.0,0.0,0.0,0.0,0.0,0.0,0.0,0.0,0.0,0.0,0.0,0.0,0.0,0.0,0.0,0.0,0.0,0.0,0.0,0.0,0.0,0.0,0.0,0.0,0.0,0.0,0.0,0.0,0.0,0.0,0.0,0.0,0.0,0.0,0.0,0.0,0.0,0.0,0.0,0.0,0.0,0.0,0.0,0.0,0.0,0.0,0.0,0.0,0.0,0.0,0.0,0.0,0.0,0.0,0.0,0.0,0.0,0.0,0.0,0.0,0.0,0.0,0.0,0.0,0.0,0.0,0.0,0.0,0.0,0.0,0.0,0.0,0.0,0.0,0.0,0.0,0.0,0.0,0.0,0.0,0.0,0.0,0.0,0.0,0.0,0.0,0.0,0.0,0.0,0.0,0.0,0.0,0.0,0.0,0.0,0.0,0.0,0.0,0.0,0.0,0.0,0.0,0.0,0.0,0.0,0.0,0.0,0.0,0.0,0.0,0.0,0.0,0.0,0.0,0.0,0.0,0.0,0.0,0.0,0.0,0.0,0.0,0.0,0.0,0.0,0.0,0.0,0.0,0.0,0.0,0.0,0.0,0.0,0.0,0.0,0.0,0.0,0.0,0.0,0.0,0.0,0.0,0.0,0.0,0.0,0.0,0.0,0.0,0.0,0.0,0.0,0.0,0.0,0.0,0.0,0.0,0.0,0.0,0.0,0.0,0.0,0.0,0.0,0.0,0.0,0.0,0.0,0.0,0.0,0.0,0.0,0.0,0.0,0.0,0.0,0.0,0.0,0.0,0.0,0.0,0.0,0.0,0.0,0.0,0.0,0.0,0.0,0.0,0.0,0.0,0.0,0.0,0.0,0.0,0.0,0.0,0.0,0.0,0.0,0.0,0.0,0.0,0.0,0.0,0.0,0.0,0.0,0.0,0.0,0.0,0.0,0.0,0.0,0.0,0.0,0.0,0.0,0.0,0.0,0.0,0.0,0.0,0.0,0.0,0.0,0.0,0.0,0.0,0.0,0.0,0.0,0.0,0.0,0.0,0.0,0.0,0.0,0.0,0.0,0.0,0.0,0.0,0.0,0.0,0.0,0.0,0.0,0.0,0.0,0.0,0.0,0.0,0.0,0.0,0.0,0.0,0.0,0.0,0.0,0.0,0.0,0.0,0.0,0.0,0.0,0.0,0.0,0.0,0.0,0.0,0.0,0.0,0.0,0.0,0.0,0.0,0.0,0.0,0.0,0.0,0.0,0.0,0.0,0.0,0.0,0.0,0.0,0.0,0.0,0.0,0.0,0.0,0.0,0.0,0.0,0.0,0.0,0.0,0.0,0.0,0.0,0.0,0.0,0.0,0.0,0.0,0.0,0.0,0.0,0.0,0.0,0.0,0.0,0.0,0.0,0.0,0.0,0.0,0.0,0.0,0.0,0.0,0.0,0.0,0.0,0.0,0.0,0.0,0.0,0.0,0.0,0.0,0.0,0.0,0.0,0.0,0.0,0.0,0.0,0.0,0.0,0.0,0.0,0.0,0.0,0.0,0.0,0.0,0.0,0.0,0.0,0.0,0.0,0.0,0.0,0.0,0.0,0.0,0.0,0.0,0.0,0.0,0.0,0.0,0.0,0.0,0.0,0.0,0.0,0.0,0.0,0.0,0.0,0.0,0.0,0.0,0.0,0.0,0.0,0.0,0.0,0.0,0.0,0.0,0.0,0.0,0.0,0.0,0.0,0.0,0.0,0.0,0.0,0.0,0.0,0.0,0.0,0.0,0.0,0.0,0.0,0.0,0.0,0.0,0.0,0.0,0.0,0.0,0.0,0.0,0.0,0.0,0.0,0.0,0.0,0.0,0.0,0.0,0.0,0.0,0.0,0.0,0.0,0.0,0.0,0.0,0.0,0.0,0.0,0.0,0.0,0.0,0.0,1.7949,0.0,0.0,0.0,0.0,0.0,0.0,0.0,0.0,0.0,0.0,0.0,0.0,0.0,0.0,0.0,0.0,0.0,0.0,0.0,0.0,0.0,0.0,0.0,0.0,0.0,0.0,0.0,-1.365,-1.3234,-1.347,-1.2859,-1.2473,-1.2473,-1.2746,-1.2792,-1.2484,-1.2737,-1.2586,-1.1995,-1.2035,-1.1826,-1.1395,-1.0793,0.0,0.0,0.0,0.0,0.0,0.0,0.0,0.0,0.0,0.0,0.0,0.0,0.0,0.0,0.0,0.0,0.0,0.0,0.0,0.0,0.0,0.0,0.0,0.0,0.0,0.0,0.0,0.0,0.0,0.0,0.0,0.0,0.0,0.0,0.0,0.0,0.0,0.0,0.0,0.0,0.0,0.0,0.0,0.0,0.0,0.0,0.0,0.0,0.0,0.0,0.0,0.0,0.0,0.0,0.0,0.0,0.0,0.0,0.0,0.0,0.0,0.0,0.0,0.0,0.0,0.0,0.0,0.0,0.0,0.0,0.0,0.0,0.0,1.8707,0.0,0.0,0.0,0.0,0.0,0.0,0.0,0.0,0.0,0.0,0.0,0.0,0.0,0.0,0.0,0.0,0.0,0.0,0.0,0.0,0.0,0.0,0.0,-1.5225,-1.5104,-1.4752,-1.4342,-1.417,-1.4265,-1.3859,-1.3638,-1.3775,-1.4152,-1.4333,-1.4248,-1.4225,-1.3877,-1.3187,-1.2776,-1.2213,-1.1497,0.0,0.0,0.0,0.0,0.0,0.0,0.0,0.0,0.0,0.0,0.0,0.0,0.0,0.0,0.0,0.0,0.0,0.0,0.0,0.0,0.0,0.0,0.0,0.0,0.0,0.0,0.0,0.0,0.0,0.0,0.0,0.0,0.0,0.0,0.0,0.0,0.0,0.0,0.0,0.0,0.0,0.0,0.0,0.0,0.0,0.0,0.0,0.0,0.0,0.0,0.0,0.0,0.0,0.0,0.0,0.0,0.0,0.0,0.0,0.0,0.0,0.0,0.0,0.0,0.0,0.0,0.0,1.9458,1.979,1.9809,1.9786,1.9774,1.9762,1.9695,1.9695,1.9774,1.9774,0.0,0.0,0.0,0.0,0.0,0.0,0.0,0.0,0.0,0.0,0.0,0.0,0.0,0.0,0.0,0.0,0.0,0.0,0.0,0.0,0.0,-1.5712,-1.5697,-1.5639,-1.5195,-1.5179,-1.5784,-1.5421,-1.5442,-1.6034,-1.5716,-1.528,-1.479,-1.4744,-1.417,-1.3114,-1.2913,-1.2782,-1.2686,-1.2852,-1.2812,-1.2609,-1.2561,0.0,0.0,0.0,0.0,0.0,0.0,0.0,0.0,0.0,0.0,0.0,0.0,0.0,0.0,0.0,0.0,0.0,0.0,0.0,0.0,0.0,0.0,0.0,0.0,0.0,0.0,0.0,0.0,0.0,0.0,0.0,0.0,0.0,0.0,0.0,0.0,0.0,0.0,0.0,0.0,0.0,0.0,0.0,1.5518,1.5902,0.0,0.0,0.0,0.0,0.0,0.0,0.0,0.0,0.0,0.0,0.0,0.0,0.0,1.9109,1.9292,1.9399,1.9513,1.9639,1.9752,1.979,1.9809,1.9682,1.9623,1.9609,1.9259,0.0,1.9623,1.9623,0.0,0.0,0.0,0.0,0.0,0.0,0.0,0.0,0.0,0.0,0.0,0.0,0.0,0.0,0.0,0.0,0.0,0.0,0.0,0.0,0.0,-1.5898,-1.5799,-1.5799,-1.5359,-1.5363,-1.6059,-1.5731,-1.5811,-1.6459,-1.6555,-1.6362,-1.5815,-1.5724,-1.5144,-1.4013,-1.359,-1.342,-1.342,-1.3065,-1.2881,-1.2881,-1.2881,-1.2353,-1.1358,-1.1536,0.0,0.0,0.0,0.0,0.0,0.0,0.0,0.0,0.0,0.0,0.0,0.0,0.0,0.0,0.0,0.0,0.0,0.0,0.0,0.0,0.0,0.0,0.0,0.0,0.0,0.0,0.0,0.0,0.0,0.0,0.0,0.0,0.0,0.0,0.0,0.0,0.0,0.0,0.0,1.4568,1.5426,1.5721,1.594,1.617,0.0,0.0,0.0,0.0,0.0,0.0,0.0,0.0,0.0,1.8374,1.8715,1.8947,1.9048,1.9448,1.97,1.9764,2.015,2.0368,2.0351,2.03,2.0264,2.0264,2.0094,2.0095,2.021,1.9376,1.8998,1.8895,0.0,0.0,0.0,0.0,1.8945,1.9024,0.0,0.0,0.0,0.0,0.0,0.0,0.0,0.0,0.0,0.0,0.0,0.0,-1.6301,-1.6011,-1.5858,-1.6009,-1.5698,-1.5881,-1.6713,-1.6479,-1.6616,-1.7277,-1.7565,-1.7505,-1.7122,-1.6638,-1.5976,-1.5119,-1.4515,-1.4296,-1.4473,-1.4011,-1.3787,-1.3777,-1.358,-1.2948,-1.208,-1.208,-1.1774,0.0,0.0,0.0,0.0,0.0,0.0,0.0,0.0,0.0,0.0,0.0,0.0,0.0,0.0,0.0,0.0,0.0,0.0,0.0,0.0,0.0,0.0,0.0,0.0,0.0,0.0,0.0,0.0,0.0,0.0,0.0,0.0,0.0,0.0,0.0,0.0,0.0,0.0,1.5007,1.5725,1.5863,1.6315,1.6703,0.0,0.0,0.0,0.0,0.0,0.0,1.8187,1.8583,1.8827,1.8886,1.9063,1.9169,1.9169,1.9714,1.9976,1.9976,2.0541,2.0784,2.0802,2.0679,2.0701,2.0784,2.0483,2.0437,2.0463,1.9336,1.8886,1.8868,1.8656,1.8585,1.8585,1.8585,1.8717,1.8875,0.0,0.0,0.0,0.0,0.0,0.0,0.0,0.0,0.0,0.0,0.0,-1.6301,-1.6301,-1.6011,-1.6024,-1.6607,-1.6636,-1.7173,-1.8489,-1.8529,-1.8827,-1.9519,-1.9059,-1.8797,-1.876,-1.7233,-1.6379,-1.6325,-1.5726,-1.5699,-1.6282,-1.6221,-1.6221,-1.6171,-1.5429,-1.4246,-1.2822,-1.2822,-1.2832,-1.2715,0.0,0.0,0.0,0.0,0.0,0.0,0.0,0.0,0.0,0.0,0.0,0.0,0.0,0.0,0.0,0.0,0.0,0.0,0.0,0.0,0.0,0.0,0.0,0.0,0.0,0.0,0.0,0.0,0.0,0.0,0.0,0.0,0.0,0.0,0.0,0.0,0.0,0.0,0.0,1.7205,1.7505,0.0,0.0,0.0,0.0,1.7811,1.7811,1.7927,1.8187,1.8884,1.9373,1.9644,2.0329,2.07,2.07,2.0714,2.0731,2.0731,2.0766,2.0784,2.0784,2.0397,2.0437,2.0741,1.9672,1.9429,1.9833,1.9691,1.9644,1.9573,1.8868,1.8585,1.8585,1.8585,1.877,1.8984,0.0,0.0,0.0,0.0,0.0,0.0,0.0,0.0,-1.7618,-1.7618,-1.7224,-1.6935,-1.6935,-1.6432,-1.6384,-1.7028,-1.6849,-1.7279,-1.8612,-1.8702,-1.9001,-1.966,-1.953,-1.9089,-1.8331,-1.7816,-1.7375,-1.6979,-1.6751,-1.6748,-1.6985,-1.66,-1.64,-1.64,-1.6087,-1.5686,-1.507,-1.3841,-1.3125,-1.2881,-1.2608,-1.2501,0.0,0.0,0.0,0.0,0.0,0.0,0.0,0.0,0.0,0.0,0.0,0.0,0.0,0.0,0.0,0.0,0.0,0.0,0.0,0.0,0.0,0.0,0.0,0.0,0.0,0.0,0.0,0.0,0.0,0.0,0.0,0.0,0.0,0.0,0.0,0.0,0.0,1.6215,1.657,0.0,1.7142,1.6952,1.7094,1.7743,1.7801,1.8023,1.8569,1.8831,1.9026,1.9114,1.9389,1.9522,1.9522,1.9986,2.0235,2.0251,2.0699,2.0915,2.0915,2.0788,2.0772,2.0915,2.0494,2.042,2.0521,2.0014,1.9545,1.9124,1.9102,1.9116,1.914,1.9412,1.955,1.9663,0.0,0.0,0.0,0.0,0.0,0.0,0.0,0.0,-1.7905,-1.7811,-1.7579,-1.7399,-1.732,-1.7033,-1.7058,-1.7542,-1.7593,-1.8027,-1.8957,-1.9031,-1.9331,-2.0004,-2.0243,-1.9948,-1.9,-1.9052,-1.8838,-1.8213,-1.8213,-1.8166,-1.8104,-1.7704,-1.7553,-1.7564,-1.7299,-1.6951,-1.6525,-1.4966,-1.3993,-1.3469,-1.3185,-1.3008,-1.2842,0.0,0.0,0.0,0.0,0.0,0.0,0.0,0.0,0.0,0.0,0.0,0.0,0.0,0.0,0.0,0.0,0.0,0.0,0.0,0.0,0.0,0.0,0.0,0.0,0.0,0.0,0.0,0.0,0.0,0.0,0.0,0.0,0.0,0.0,0.0,1.5403,1.5403,1.5945,1.6409,1.6632,1.6624,1.6874,1.7554,1.7615,1.7772,1.8237,1.8501,1.861,1.861,1.8874,1.9076,1.9262,1.976,2.0102,2.0317,2.1023,2.1227,2.1039,2.1089,2.1089,2.1039,2.0722,2.0564,2.0493,2.0008,1.9439,1.8856,1.91,1.9179,1.9251,1.9658,1.984,1.9976,0.0,0.0,0.0,0.0,0.0,0.0,0.0,-1.8057,-1.8121,-1.7856,-1.7766,-1.762,-1.7327,-1.7669,-1.8,-1.8207,-1.8967,-1.9516,-1.9767,-1.9777,-2.0055,-2.0707,-2.138,-2.1469,-2.0934,-2.0907,-2.0639,-2.0059,-2.0059,-1.9963,-1.985,-1.985,-1.9798,-1.9747,-1.9032,-1.8125,-1.7044,-1.6278,-1.5489,-1.4602,-1.3821,-1.3271,-1.29,0.0,0.0,0.0,0.0,0.0,0.0,0.0,0.0,0.0,0.0,0.0,0.0,0.0,0.0,0.0,0.0,0.0,0.0,0.0,0.0,0.0,0.0,0.0,0.0,0.0,0.0,0.0,0.0,0.0,0.0,0.0,0.0,0.0,1.3576,1.446,1.4927,1.4927,1.5768,1.635,1.6365,1.6816,1.7166,1.7181,1.7195,1.721,1.7254,1.7914,1.8322,1.8352,1.9031,1.967,2.0182,2.0182,2.0469,2.1093,2.1659,2.162,2.1093,2.1247,2.1232,2.1013,2.0189,1.974,1.9598,1.9669,1.9419,1.8933,1.8873,1.8858,1.8887,1.93,1.9611,1.9926,0.0,0.0,0.0,0.0,0.0,0.0,0.0,-1.831,-1.8391,-1.8142,-1.8065,-1.7958,-1.7687,-1.8029,-1.848,-1.9014,-1.9535,-2.0305,-2.1379,-2.1424,-2.1581,-2.1932,-2.1776,-2.1628,-2.1499,-2.1459,-2.1389,-2.1226,-2.1226,-2.1,-2.056,-2.056,-2.0258,-1.9798,-1.9579,-1.9337,-1.8983,-1.8225,-1.7326,-1.6221,-1.459,-1.3711,-1.334,0.0,0.0,0.0,0.0,0.0,0.0,0.0,0.0,0.0,0.0,0.0,0.0,0.0,0.0,0.0,0.0,0.0,0.0,0.0,0.0,0.0,0.0,0.0,0.0,0.0,0.0,0.0,0.0,0.0,0.0,0.0,1.1309,1.209,1.2341,1.3057,1.354,1.354,1.4341,1.5039,1.551,1.5645,1.6136,1.7046,1.7124,1.7502,1.8397,1.8632,1.8941,1.9362,1.9586,1.9754,1.9922,1.9922,2.0006,2.0146,2.0302,2.0302,2.0146,2.0203,2.0203,2.0146,1.9885,1.9803,1.9752,1.9766,1.9683,1.9558,1.9818,1.9888,1.9953,2.0384,2.06,2.0705,0.0,0.0,0.0,0.0,0.0,0.0,0.0,-1.8489,-1.8508,-1.8229,-1.8187,-1.81,-1.7833,-1.8574,-1.9157,-1.9367,-2.0469,-2.1406,-2.2067,-2.242,-2.2619,0.0,0.0,-2.2513,-2.2513,-2.2523,-2.2363,-2.21,-2.21,-2.1819,-2.1161,-2.0944,-2.0597,-2.0194,-1.9952,-1.9631,-1.9319,-1.8874,-1.7951,-1.6711,-1.5584,-1.4566,-1.375,-1.3574,-1.335,-1.3016,-1.2135,-1.1814,-1.1665,-1.0568,0.0,0.0,0.0,0.0,0.0,0.0,0.0,0.0,0.0,0.0,0.0,0.0,0.0,0.0,0.0,0.0,0.0,0.0,0.0,0.0,0.0,0.0,0.0,0.0,1.045,1.0993,1.0833,1.2074,1.3014,1.3014,1.3691,1.428,1.4602,1.5004,1.5561,1.6275,1.6527,1.693,1.7662,1.77,1.7852,1.8194,1.8206,1.8308,1.8548,1.8548,1.8818,1.9361,1.9598,1.9753,1.9826,2.0107,2.0074,1.9779,1.9779,1.9647,1.9483,1.9712,1.9656,0.0,0.0,0.0,0.0,0.0,2.1447,2.1836,0.0,0.0,0.0,0.0,0.0,0.0,0.0,-1.8659,-1.8547,-1.827,-1.8208,-1.81,-1.7833,-1.9106,-1.9857,-1.9497,-2.149,-2.2685,-2.2407,-2.3059,0.0,-2.2896,-2.3353,-2.3595,-2.3595,-2.3595,-2.3334,-2.2785,-2.2785,-2.2438,-2.1805,-2.1259,-2.0944,-2.0746,-2.0207,-1.9527,-1.8821,-1.8821,-1.795,-1.6652,-1.6708,-1.5749,-1.4107,-1.374,-1.3545,-1.3336,-1.2327,-1.1864,-1.1715,-1.1116,0.0,0.0,0.0,0.0,0.0,0.0,0.0,0.0,0.0,0.0,0.0,0.0,0.0,0.0,0.0,0.0,0.0,0.0,0.0,0.0,0.0,0.0,0.0,0.0,0.9147,0.931,0.9528,1.1455,1.2808,1.2796,1.3303,1.3717,1.3906,1.4675,1.5202,1.5359,1.5759,1.6036,1.6092,0.0,0.0,0.0,0.0,1.6432,1.6877,1.6877,1.7463,1.8608,1.9206,1.9478,1.9579,2.0181,2.0131,1.9527,1.9527,1.928,1.8896,1.9464,1.9443,1.9127,1.9601,1.9825,1.9943,2.0886,2.1857,2.276,0.0,0.0,0.0,0.0,0.0,0.0,0.0,-1.8931,-1.8843,-1.8547,-1.833,-1.81,-1.7833,-1.9106,-1.9976,-1.9883,-2.1961,-2.3543,-2.4244,-2.4092,-2.3982,-2.4066,-2.3776,-2.3595,-2.3595,-2.3595,-2.3551,-2.3421,-2.3421,-2.3098,-2.2498,-2.2374,-2.1799,-2.0795,-2.0646,-2.0245,-1.9579,-1.9579,-1.8715,-1.7413,-1.8058,-1.6841,-1.4609,-1.418,-1.3799,-1.3447,-1.287,-1.2295,-1.1765,-1.1665,-1.0813,-0.9755,-0.9578,0.0,0.0,0.0,0.0,0.0,0.0,0.0,0.0,0.0,0.0,0.0,0.0,0.0,0.0,0.0,0.0,0.0,0.0,0.0,0.0,0.8429,0.9334,1.0009,1.0082,1.0963,1.1616,1.1556,1.1684,1.2462,1.4129,1.4175,1.4584,1.5769,1.5958,1.6192,1.6632,1.6655,1.6833,1.7288,1.7288,1.7343,1.7433,1.7433,1.7587,1.7786,0.0,0.0,1.8015,1.8167,1.8167,1.8015,1.8015,1.7958,1.7921,1.8613,1.9189,1.9648,1.9745,1.9825,1.9825,2.0016,2.0542,2.116,0.0,0.0,0.0,0.0,0.0,0.0,0.0,-1.8697,-1.8547,-1.841,-1.8166,-1.7949,-1.7811,-1.9106,-2.0002,-2.0002,-2.209,-2.3875,-2.4948,-2.4462,-2.4083,-2.4002,-2.3752,-2.3595,-2.3595,-2.3595,-2.3595,-2.3595,-2.3595,-2.3465,-2.3143,-2.283,-2.2161,-2.1245,-2.093,-2.0459,-1.9798,-1.9798,-1.915,-1.8167,-1.8167,-1.7367,-1.6129,-1.5301,-1.449,-1.3769,-1.335,-1.284,-1.2295,-1.1913,-1.1116,-1.0269,-0.9917,-0.8718,-0.7458,0.0,0.0,0.0,0.0,0.0,0.0,0.0,0.0,0.0,0.0,0.0,0.0,0.0,0.0,0.5653,0.6223,0.0,0.7198,0.7734,0.8019,0.829,0.8528,0.887,0.9646,1.1057,1.1406,1.1893,1.2945,1.3095,1.3386,1.4157,1.4405,1.4617,1.4877,1.4896,1.5221,1.5861,1.5918,1.6099,1.6518,1.6518,1.6687,1.7034,1.7034,1.7246,1.7578,1.7578,1.7578,1.7578,1.7578,1.7578,1.7633,1.8015,1.8394,1.872,1.9133,1.9708,2.0301,2.0301,2.069,2.1203,0.0,0.0,0.0,0.0,0.0,0.0,0.0,-1.8371,-1.8187,-1.8187,-1.7971,-1.7811,-1.7811,-1.8988,-1.9951,-2.0407,-2.204,-2.3602,0.0,-2.4222,-2.3709,-2.3608,-2.3595,-2.3595,-2.3595,-2.3595,-2.3595,-2.3595,-2.3595,-2.3595,-2.3595,-2.2965,-2.2406,-2.1852,-2.1126,-2.0497,-2.0003,-1.985,-1.9371,-1.8661,-1.8232,-1.7841,-1.7467,-1.6494,-1.5339,-1.4222,-1.3704,-1.3242,-1.2774,-1.203,-1.1466,-1.0864,-1.0218,-0.9059,-0.7955,-0.7898,-0.7024,0.0,0.0,0.0,0.0,0.0,0.0,0.0,0.0,0.0,0.1751,0.3427,0.4371,0.5096,0.5604,0.5826,0.6156,0.7007,0.666,0.6455,0.6857,0.7009,0.788,1.0284,1.0744,1.1016,1.13,1.1752,1.2091,1.2268,1.2723,1.3009,1.3009,1.3009,1.3312,1.3974,1.3974,1.4273,1.4932,1.4932,1.5216,1.5833,1.5833,1.611,1.6701,1.6701,1.6768,1.6946,1.7124,1.7246,1.7413,1.7413,1.7468,1.7688,1.8221,1.9282,2.0383,2.0547,2.1015,2.152,0.0,0.0,0.0,0.0,0.0,0.0,0.0,0.0,-1.8187,-1.8187,-1.7971,-1.7811,-1.7811,-1.8538,-1.9841,-2.1887,-2.1895,0.0,-2.4127,-2.3136,-2.2839,-2.3593,-2.3595,-2.3595,-2.3595,-2.3595,-2.3595,-2.3595,-2.3595,-2.3595,-2.3595,-2.2965,-2.2649,-2.2558,-2.1321,-2.0746,-2.066,-2.0055,-1.9371,-1.8768,-1.9307,-1.8768,-1.7522,-1.7042,-1.6123,-1.4925,-1.3899,-1.3242,-1.2774,-1.203,-1.1765,-1.1566,-1.0914,-1.0187,-0.9497,-0.9261,0.0,-0.7244,-0.7014,-0.5909,-0.4359,-0.2382,-0.1828,-0.1202,0.0,0.0,0.3039,0.4237,0.5146,0.5688,0.578,0.6007,0.6226,0.645,0.6704,0.6862,0.7052,0.731,0.7552,0.791,0.7931,0.8476,0.9887,1.0424,1.0988,1.1699,1.2517,1.3009,1.3009,1.3009,1.307,1.313,1.313,1.3191,1.3252,1.3252,1.3304,1.3364,1.3364,1.3416,1.3528,1.3528,1.3888,1.461,1.5332,1.6036,1.6595,1.6595,1.7034,1.7633,1.7677,1.8221,1.9032,1.9683,2.0346,2.0894,0.0,0.0,0.0,0.0,0.0,0.0,0.0,0.0,0.0,-1.7971,-1.7861,-1.7811,-1.7811,-1.8843,-2.0297,-2.2158,-2.1869,0.0,-2.3439,-2.2754,-2.2531,-2.3053,-2.34,-2.3595,-2.3595,-2.3595,-2.3595,-2.3595,-2.3595,-2.3595,-2.3595,-2.3334,-2.2815,-2.21,-2.1582,-2.0917,-2.0207,-1.9901,-1.9631,-1.9307,-1.9202,-1.9044,-1.872,-1.6977,-1.6186,-1.5705,-1.4104,-1.3242,0.0,0.0,-1.2129,-1.1765,-1.1458,-1.0661,-0.9784,-0.9657,-0.8882,0.0,-0.6726,-0.576,0.0,0.0,-0.3063,-0.2533,-0.0381,0.0337,0.1022,0.2631,0.3318,0.3712,0.4161,0.4397,0.4718,0.0,0.5543,0.5701,0.592,0.6025,0.6172,0.6282,0.6294,0.6921,0.8606,0.8902,0.9157,0.9521,0.9914,1.0305,1.0829,1.0829,1.1267,1.2266,1.2328,1.2512,1.3009,1.3009,1.3009,1.3009,1.3009,1.3009,1.3009,1.3009,1.3425,1.4273,1.505,1.5584,1.5864,1.5864,1.6026,1.6358,1.681,1.7146,1.7578,1.8715,1.9619,2.0194,0.0,0.0,0.0,0.0,0.0,0.0,0.0,0.0,0.0,0.0,-1.7811,-1.7811,-1.7811,-1.892,-2.0221,-2.1539,0.0,0.0,0.0,-2.2393,-2.2306,-2.2694,-2.3266,-2.3595,-2.3595,-2.3595,-2.3595,-2.3595,-2.3595,-2.3595,-2.3595,-2.3216,-2.2696,-2.1946,-2.1424,-2.0756,-2.0055,-1.9901,-1.9798,-1.9734,-1.9056,-1.8995,-1.9076,-1.6673,-1.5818,-1.5692,-1.4063,-1.3242,0.0,0.0,-1.2393,-1.208,-1.1864,-1.1116,-1.0364,-1.0364,-0.9598,-0.841,-0.6574,0.0,0.0,-0.4026,-0.377,-0.3362,-0.1752,-0.126,-0.066,0.0967,0.1521,0.1987,0.273,0.2923,0.3251,0.3998,0.4296,0.453,0.4769,0.5,0.5237,0.5415,0.5428,0.5885,0.7186,0.7507,0.7632,0.7632,0.7897,0.8291,0.8877,0.8941,0.9506,1.069,1.101,1.1392,1.195,1.2205,1.2336,1.2336,1.2336,1.2336,1.2336,1.2581,1.3,1.3597,1.4392,1.4746,1.4746,1.4991,1.505,1.5167,1.5921,1.6312,1.6652,1.7688,1.8555,1.9202,0.0,0.0,0.0,0.0,0.0,0.0,0.0,0.0,0.0,0.0,0.0,0.0,0.0,-1.8488,-1.9249,0.0,0.0,0.0,0.0,-2.1826,-2.2019,-2.2694,-2.3266,-2.3595,-2.3595,-2.3595,-2.3595,-2.3595,-2.3595,-2.3595,-2.3551,-2.2363,-2.21,-2.2603,-2.072,-2.0207,-2.0759,-2.0105,-1.9798,-1.9761,-1.9208,-1.8621,-1.7972,-1.6196,-1.518,-1.4531,-1.3801,0.0,0.0,0.0,-1.2295,-1.2725,-1.203,-1.1765,0.0,-1.1765,-1.0805,0.0,0.0,0.0,-0.5831,-0.3692,-0.3116,-0.2966,-0.2315,-0.1596,-0.0894,-0.0105,0.065,0.133,0.2114,0.2232,0.2305,0.2504,0.3263,0.3875,0.3992,0.4815,0.5422,0.5428,0.5428,0.5428,0.0,0.6268,0.6719,0.6719,0.7502,0.8027,0.8027,0.8027,0.8091,0.8086,0.8941,0.9396,0.9396,1.0238,1.0688,1.0688,1.0688,1.0688,1.0681,1.1469,1.1834,1.1896,1.2696,1.307,1.313,1.3906,1.4273,1.4332,1.5108,1.5864,1.6492,1.6539,1.7034,1.7797,0.0,0.0,0.0,0.0,0.0,0.0,0.0,0.0,0.0,0.0,0.0,0.0,0.0,0.0,0.0,0.0,0.0,0.0,0.0,-2.087,-2.1141,-2.1365,-2.2413,-2.2981,-2.2981,-2.3385,-2.3595,-2.3595,-2.3201,-2.3009,-2.2965,-2.2086,-2.1629,-2.1417,-2.0746,-2.0346,-2.0105,-1.9901,-1.9597,-1.9221,-1.862,-1.8065,-1.7359,-1.5586,-1.4795,-1.4468,0.0,0.0,0.0,-1.2608,-1.2715,-1.2881,-1.2618,-1.2187,-1.1616,-1.0712,-1.0167,-0.9422,0.0,0.0,-0.6241,-0.4998,-0.4357,-0.3827,-0.3128,-0.2769,-0.2351,-0.1587,-0.127,-0.1064,-0.0917,0.0,0.0773,0.0814,0.2038,0.3178,0.3934,0.4284,0.4486,0.4486,0.4486,0.0,0.0,0.0,0.0,0.5815,0.6079,0.6531,0.7111,0.7111,0.7372,0.7962,0.8285,0.842,0.842,0.9332,0.9722,0.9722,1.0301,1.0624,1.0624,1.1406,1.1834,1.1826,1.2634,1.3009,1.3009,1.3304,1.3726,1.4213,1.451,1.5099,1.5748,1.5748,1.5921,1.6301,0.0,0.0,0.0,0.0,0.0,0.0,0.0,0.0,0.0,0.0,0.0,0.0,0.0,0.0,0.0,0.0,0.0,0.0,0.0,0.0,-2.0348,-2.0348,-2.162,-2.2428,-2.2667,-2.3071,-2.337,-2.3595,-2.3009,-2.2694,-2.2694,-2.1771,-2.1161,-2.0795,-2.0351,-1.9925,-1.951,-1.9309,-1.9045,-1.8657,-1.8093,-1.7351,-1.6499,-1.5167,-1.4365,0.0,0.0,0.0,0.0,-1.2881,-1.2881,-1.2881,-1.2881,-1.2559,-1.1931,-1.0568,-1.0167,-0.9799,-0.8137,-0.7343,-0.6799,-0.6091,-0.5382,-0.4728,-0.4281,-0.395,-0.3511,-0.2788,-0.2839,-0.2856,-0.2466,-0.1756,-0.1202,-0.0939,0.0257,0.1505,0.2465,0.2871,0.3139,0.3478,0.3547,0.3345,0.0,0.0,0.0,0.4888,0.4891,0.5282,0.6203,0.6268,0.6465,0.7051,0.7377,0.7502,0.7502,0.842,0.8812,0.8812,0.939,0.9843,1.0168,1.0654,1.1094,1.1406,1.1903,1.2151,1.2151,1.2451,1.3061,1.3786,1.4094,1.4688,1.541,1.541,1.5508,1.5792,0.0,0.0,0.0,0.0,0.0,0.0,0.0,0.0,0.0,0.0,0.0,0.0,0.0,0.0,0.0,0.0,0.0,0.0,0.0,0.0,0.0,-1.963,-2.0887,-2.1904,-2.2562,-2.2607,-2.2921,-2.3505,-2.2877,-2.2593,-2.2548,-2.1274,-2.0716,-2.0641,-1.9494,-1.8933,-1.8908,-1.843,-1.8179,-1.8069,-1.7543,-1.6524,-1.5314,-1.4797,0.0,0.0,0.0,0.0,0.0,0.0,0.0,0.0,0.0,-1.2822,-1.252,-1.1174,-1.0771,-1.0305,-0.8296,-0.7723,-0.7509,-0.6804,-0.6091,-0.5542,-0.5542,-0.5058,-0.4401,-0.3732,-0.4051,-0.41,0.0,0.0,-0.336,-0.2707,-0.1867,-0.0999,-0.0133,0.0733,0.16,0.0,0.0,0.0,0.0,0.0,0.0,0.3823,0.0,0.435,0.5292,0.5369,0.5372,0.5439,0.6226,0.6683,0.6683,0.7536,0.7992,0.7997,0.7997,0.8457,0.9245,0.9309,0.9759,1.0538,1.0601,1.0665,1.0728,1.1457,1.2259,1.3066,1.3907,1.4693,1.542,1.542,1.5742,1.6156,0.0,0.0,0.0,0.0,0.0,0.0,0.0,0.0,0.0,0.0,0.0,0.0,0.0,0.0,0.0,0.0,0.0,0.0,0.0,0.0,0.0,0.0,0.0,0.0,0.0,0.0,0.0,0.0,0.0,-2.1212,-2.1169,-1.9994,-1.9469,-1.9422,-1.8694,-1.8405,-1.8405,-1.8267,-1.7694,-1.6809,0.0,-1.5082,-1.364,0.0,0.0,0.0,0.0,0.0,0.0,0.0,0.0,0.0,0.0,-1.1733,-1.1174,-1.032,-1.0064,-0.9814,-0.8791,-0.8103,-0.767,-0.745,-0.6853,-0.6312,-0.6312,-0.6204,-0.5987,-0.5819,-0.5923,-0.5964,0.0,0.0,0.0,-0.4284,-0.261,0.0,-0.0134,0.0735,0.0,0.1608,0.0,0.1408,0.074,0.0672,0.0,0.0,0.2641,0.3413,0.4284,0.4439,0.4837,0.5532,0.5839,0.6032,0.6032,0.6867,0.7628,0.8309,0.8309,0.8378,0.8658,0.9411,0.9894,1.0097,1.086,1.1209,1.1202,1.1397,1.199,1.2856,1.3745,1.4635,1.5403,1.6129,1.6465,1.6543,0.0,0.0,0.0,0.0,0.0,0.0,0.0,0.0,0.0,0.0,0.0,0.0,0.0,0.0,0.0,0.0,0.0,0.0,0.0,0.0,0.0,0.0,0.0,0.0,0.0,0.0,0.0,0.0,0.0,0.0,0.0,-1.9025,-1.8647,-1.8634,-1.808,-1.784,-1.7802,-1.7119,0.0,0.0,0.0,0.0,0.0,0.0,0.0,0.0,0.0,0.0,0.0,0.0,0.0,-1.1366,-1.1366,-1.1116,-1.0669,-1.0012,0.0,-0.9666,-0.8956,-0.848,-0.8156,-0.8156,-0.7616,-0.7074,-0.7074,-0.6858,-0.6588,-0.6588,-0.6858,0.0,0.0,0.0,0.0,0.0,0.0,0.0,-0.1336,-0.0401,0.0268,0.0,0.0739,0.0,0.0067,0.0,0.0207,0.0,0.1584,0.2467,0.3399,0.3944,0.4474,0.4974,0.5545,0.58,0.58,0.6297,0.6793,0.7283,0.7283,0.7703,0.8478,0.9039,0.9811,1.0579,0.0,1.1423,1.1423,1.1423,1.1901,1.2781,1.3302,1.3958,1.4737,1.5274,1.5845,1.6327,0.0,0.0,0.0,0.0,0.0,0.0,0.0,0.0,0.0,0.0,0.0,0.0,0.0,0.0,0.0,0.0,0.0,0.0,0.0,0.0,0.0,0.0,0.0,0.0,0.0,0.0,0.0,0.0,0.0,0.0,0.0,0.0,0.0,0.0,0.0,0.0,0.0,0.0,0.0,0.0,0.0,0.0,0.0,0.0,0.0,0.0,0.0,0.0,0.0,0.0,-1.0344,-1.0669,-1.0669,-1.0618,-1.0415,-0.9814,-0.9666,-0.9562,-0.8956,-0.8804,-0.8804,-0.8804,-0.8321,-0.783,-0.783,-0.7348,-0.6912,-0.6912,0.0,-0.7616,-0.6858,-0.6924,-0.679,-0.5984,0.0,-0.3531,-0.2609,-0.1742,-0.0873,-0.0067,0.0,0.0,0.0,0.0,0.0,0.0,0.0706,0.1566,0.2465,0.3495,0.4167,0.4473,0.5352,0.5864,0.5864,0.5864,0.5864,0.5864,0.5864,0.6789,0.8502,0.8644,0.9634,1.1329,1.1467,1.1543,1.1543,1.1543,1.1957,1.2643,1.2779,1.324,1.3897,1.403,1.4891,1.5977,0.0,0.0,0.0,0.0,0.0,0.0,0.0,0.0,0.0,0.0,-1.6448,-1.6686,0.0,0.0,0.0,0.0,0.0,0.0,0.0,0.0,0.0,0.0,0.0,0.0,0.0,0.0,0.0,0.0,0.0,0.0,0.0,0.0,0.0,0.0,0.0,0.0,0.0,0.0,0.0,0.0,0.0,0.0,0.0,0.0,0.0,0.0,0.0,0.0,0.0,0.0,-0.924,-0.9961,-0.9961,-0.9614,-0.9113,-0.9008,-0.8956,-0.8962,-0.8857,-0.8804,-0.8804,-0.8804,-0.8699,-0.8593,-0.8593,-0.8533,0.0,0.0,0.0,-0.8374,-0.767,-0.7184,0.0,-0.516,0.0,0.0,0.0,0.0,-0.0202,0.0,0.0,0.0,0.0,0.0,0.0,0.0,0.0,0.0593,0.1528,0.2668,0.4084,0.587,0.6103,0.6183,0.6183,0.6183,0.6183,0.6183,0.6183,0.6783,0.7983,0.8811,0.9845,1.0948,1.1773,0.0,1.2151,1.2151,1.2224,1.2435,1.3222,1.3573,1.3859,1.4692,1.5635,1.6459,0.0,0.0,0.0,0.0,0.0,0.0,0.0,-1.3818,-1.4054,-1.5005,-1.5389,-1.5607,-1.5681,-1.5492,-1.5285,0.0,0.0,0.0,0.0,0.0,0.0,0.0,0.0,0.0,0.0,0.0,0.0,0.0,0.0,0.0,0.0,0.0,0.0,0.0,0.0,0.0,0.0,0.0,0.0,0.0,0.0,0.0,0.0,0.0,0.0,0.0,0.0,0.0,0.0,0.0,-0.8278,-0.8856,-0.9018,-0.893,-0.8804,-0.8804,-0.8804,-0.8804,-0.8804,-0.8804,-0.8804,-0.8804,-0.8804,-0.8804,-0.8804,0.0,0.0,0.0,0.0,-0.848,-0.7343,0.0,0.0,0.0,0.0,0.0,0.0,0.0,0.0,0.0,0.0,0.0,0.0,0.0,0.0,0.0,0.0,0.0153,0.0606,0.2215,0.3861,0.5392,0.6022,0.6338,0.6338,0.6338,0.6338,0.6338,0.6338,0.6795,0.7859,0.8841,0.982,1.0864,1.1848,1.2305,1.2305,1.2305,1.2305,1.2372,1.2806,1.2952,1.3018,1.352,1.4585,1.586,0.0,0.0,0.0,0.0,0.0,0.0,0.0,-1.2871,-1.3134,-1.4335,-1.4406,-1.4501,-1.4814,-1.4627,-1.4501,0.0,0.0,0.0,0.0,0.0,0.0,0.0,0.0,0.0,0.0,0.0,0.0,0.0,0.0,0.0,0.0,0.0,0.0,0.0,0.0,0.0,0.0,0.0,0.0,0.0,0.0,0.0,0.0,0.0,0.0,0.0,0.0,0.0,0.0,0.0,-0.7575,-0.7869,-0.811,-0.8424,-0.8711,-0.8711,-0.8758,-0.8804,-0.8804,-0.8804,-0.8752,-0.8586,-0.8586,-0.854,-0.8374,-0.8321,0.0,0.0,-0.7937,-0.7937,-0.6583,0.0,0.0,0.0,0.0,0.0,0.0,0.0,0.0,0.0,0.0,0.0,0.0,0.0,0.0,0.0,0.0,0.0079,0.0314,0.2111,0.3593,0.4686,0.5709,0.6338,0.6338,0.6338,0.6338,0.6338,0.6338,0.6795,0.7859,0.8618,0.9518,1.0565,1.1545,1.1996,1.1996,1.2224,1.2305,1.2305,1.2305,1.2305,1.2311,1.2371,1.3623,1.5358,0.0,0.0,0.0,0.0,0.0,0.0,0.0,-1.2733,-1.3134,-1.4335,-1.4181,-1.3967,-1.4032,-1.431,-1.4501,0.0,0.0,0.0,0.0,0.0,0.0,0.0,0.0,0.0,0.0,0.0,0.0,0.0,0.0,0.0,0.0,0.0,0.0,0.0,0.0,0.0,0.0,0.0,0.0,0.0,0.0,0.0,0.0,0.0,0.0,0.0,0.0,0.0,0.0,0.0,0.0,-0.756,-0.7587,-0.7997,-0.8417,-0.8417,0.0,0.0,-0.8804,-0.8804,-0.8646,-0.7996,-0.7777,-0.7616,-0.6966,0.0,0.0,-0.6696,-0.675,-0.6583,-0.576,-0.5609,0.0,0.0,0.0,0.0,0.0,0.0,0.0,0.0,0.0,0.0,0.0,0.0,0.0,0.0,0.0,0.0392,0.1411,0.2501,0.3593,0.4686,0.5709,0.6338,0.6338,0.6338,0.6338,0.6338,0.6338,0.6795,0.7783,0.7936,0.8461,0.9523,1.049,1.0932,0.0,1.1922,1.2305,1.2305,1.2305,1.2305,1.2338,1.2605,1.4029,1.5765,0.0,0.0,0.0,0.0,0.0,0.0,-1.2126,-1.2126,-1.2351,-1.32,-1.3148,-1.2941,-1.2684,-1.2777,-1.2973,-1.3272,0.0,0.0,0.0,0.0,0.0,0.0,0.0,0.0,0.0,0.0,0.0,0.0,0.0,0.0,0.0,0.0,0.0,0.0,0.0,0.0,0.0,0.0,0.0,0.0,0.0,0.0,0.0,0.0,0.0,0.0,0.0,0.0,0.0,0.0,0.0,0.0,-0.6724,-0.676,0.0,0.0,-0.7628,-0.745,-0.745,-0.745,-0.7396,-0.7128,-0.702,-0.6966,-0.6642,0.0,0.0,-0.6036,-0.6312,-0.6258,-0.5113,-0.5218,-0.5183,0.0,0.0,0.0,0.0,0.0,0.0,0.0,0.0,0.0,0.0,0.0,0.0,0.0,0.0,0.0157,0.0628,0.2189,0.3279,0.3748,0.5395,0.6338,0.6338,0.6338,0.6338,0.6338,0.6338,0.649,0.6949,0.7553,0.8008,0.8461,1.0115,1.0877,0.0,1.2181,1.2679,1.2846,1.2846,1.2846,1.2859,1.2979,1.43,1.603,0.0,0.0,0.0,0.0,0.0,-1.0535,-1.1513,-1.1417,-1.1479,-1.2189,-1.2282,-1.2174,-1.1847,-1.1664,-1.1689,-1.2018,-1.192,0.0,0.0,0.0,0.0,0.0,0.0,0.0,0.0,0.0,0.0,0.0,0.0,0.0,0.0,0.0,0.0,0.0,0.0,0.0,0.0,0.0,0.0,0.0,0.0,0.0,0.0,0.0,0.0,0.0,0.0,0.0,0.0,0.0,0.0,0.0,0.0,0.0,0.0,0.0,-0.6732,-0.6556,-0.6568,-0.6588,-0.6534,-0.6312,-0.6258,-0.6204,0.0,0.0,-0.5823,-0.5328,-0.5601,-0.5664,-0.468,-0.4893,-0.5058,0.0,0.0,-0.387,0.0,0.0,0.0,0.0,0.0,0.0,0.0,0.0,0.0,0.0,0.0,0.0,0.0,0.1955,0.3124,0.3124,0.5157,0.6338,0.6338,0.6338,0.6338,0.6338,0.6338,0.6359,0.64,0.7095,0.743,0.7556,0.9632,1.0655,0.0,1.2331,1.3013,1.3213,1.3213,1.3213,1.322,1.3307,1.4638,1.6401,0.0,0.0,0.0,0.0,0.0,0.0,-1.0706,-1.0539,-1.0687,-1.1687,-1.1811,-1.1811,-1.1811,-1.1319,-1.1008,-1.1019,-1.1505,0.0,0.0,0.0,0.0,0.0,0.0,0.0,0.0,0.0,0.0,-1.0322,-0.9804,0.0,0.0,0.0,0.0,0.0,0.0,0.0,0.0,0.0,0.0,0.0,0.0,0.0,0.0,0.0,0.0,0.0,0.0,0.0,0.0,0.0,0.0,0.0,0.0,0.0,0.0,0.0,-0.6187,-0.6406,-0.6582,-0.6588,-0.6421,-0.5706,-0.5487,-0.5324,0.0,0.0,-0.4519,-0.4519,-0.4519,-0.4519,-0.4519,-0.4519,-0.4519,-0.4519,0.0,0.0,0.0,0.0,0.0,0.0,0.0,0.0,0.0,0.0,0.0,0.0,0.0,0.0,0.0,0.1955,0.3124,0.3124,0.5157,0.6338,0.6338,0.6338,0.6338,0.6338,0.6338,0.6335,0.6471,0.6548,0.6552,0.6861,0.8964,0.9933,0.0,1.2301,1.3206,1.3213,1.3213,1.3213,1.3247,1.3534,1.4969,1.6893,0.0,0.0,0.0,0.0,0.0,0.0,0.0,-1.0359,-1.0521,-1.1153,-1.1244,-1.1132,-1.0802,-1.0621,-1.0505,-1.0505,-1.0687,0.0,0.0,0.0,0.0,0.0,0.0,0.0,0.0,0.0,-0.9199,-0.9199,-0.9039,-0.8958,-0.8958,-0.8797,0.0,0.0,0.0,0.0,0.0,0.0,0.0,0.0,0.0,0.0,0.0,0.0,0.0,0.0,0.0,0.0,0.0,0.0,0.0,0.0,0.0,0.0,0.0,-0.4476,-0.4782,0.0,-0.5128,-0.5171,-0.5117,-0.4897,-0.4842,-0.4787,-0.4574,0.0,-0.4519,-0.4519,-0.4519,-0.4519,-0.4519,-0.4519,-0.4553,-0.4602,-0.4789,0.0,0.0,0.0,0.0,0.0,0.0,0.0,0.0,0.0,0.0,0.0,0.0,0.0,0.0,0.1955,0.3124,0.3124,0.5157,0.6308,0.6403,0.6407,0.6458,0.6563,0.6563,0.6583,0.6627,0.6627,0.6654,0.6781,0.8968,1.0024,1.0414,1.2582,1.3627,1.3808,1.3808,1.3808,1.3821,1.3915,1.4828,1.6118,0.0,0.0,0.0,0.0,0.0,0.0,0.0,-0.968,-0.9764,-1.0195,-1.0262,-1.0177,-1.0057,-0.9839,-0.9791,-0.9991,-0.9795,0.0,0.0,0.0,0.0,0.0,0.0,0.0,0.0,-0.8716,-0.8716,-0.8716,-0.848,-0.8398,-0.8398,-0.8185,-0.7972,-0.7765,0.0,0.0,0.0,0.0,0.0,0.0,0.0,0.0,-0.4908,0.0,0.0,0.0,0.0,0.0,0.0,0.0,0.0,0.0,0.0,0.0,0.0,0.0,-0.4036,-0.4153,0.0,-0.4519,-0.4519,-0.4519,-0.4519,0.0,0.0,0.0,-0.4519,-0.4519,-0.4519,-0.4519,-0.4519,-0.4294,-0.4228,-0.4606,-0.4276,0.0,0.0,0.0,0.0,0.0,0.0,0.0,0.0,0.0,0.0,0.0,0.0,0.0157,0.0549,0.2287,0.3405,0.3799,0.5463,0.641,0.6556,0.6559,0.6607,0.6702,0.6702,0.6729,0.6787,0.6787,0.7066,0.7624,0.9364,1.0523,0.0,1.3035,1.3921,1.4088,1.4088,1.4088,1.4088,1.4088,1.4817,1.5696,0.0,0.0,0.0,0.0,0.0,0.0,0.0,-0.8611,-0.8558,-0.8945,-0.897,-0.9116,-0.9469,-0.905,-0.8914,-0.9367,0.0,0.0,0.0,0.0,0.0,0.0,0.0,0.0,0.0,-0.8618,-0.8586,-0.8545,-0.804,-0.7812,-0.7728,-0.7172,-0.6649,-0.6165,-0.6165,0.0,0.0,0.0,0.0,0.0,-0.4517,-0.4299,0.0,0.0,0.0,0.0,0.0,0.0,0.0,0.0,0.0,0.0,0.0,0.0,0.0,0.0,0.0,0.0,0.0,-0.4519,-0.4519,-0.4519,-0.4519,-0.4519,0.0,0.0,0.0,0.0,-0.4405,-0.4349,-0.4463,-0.3855,-0.3621,-0.4507,-0.3442,0.0,0.0,0.0,0.0,0.0,0.0,0.0,0.0,0.0,0.0,0.0,0.0,0.0471,0.1571,0.2723,0.3891,0.4882,0.5935,0.6573,0.6715,0.6715,0.6722,0.6732,0.6732,0.6807,0.6946,0.6946,0.7617,0.0,1.0096,1.1209,0.0,1.3561,1.4088,1.4088,1.4088,1.4088,1.4088,1.4088,1.4734,1.5621,0.0,0.0,0.0,0.0,0.0,0.0,0.0,0.0,0.0,0.0,-0.8721,-0.8586,-0.8679,-0.8483,-0.8392,0.0,0.0,0.0,0.0,0.0,0.0,0.0,0.0,0.0,0.0,-0.763,-0.7524,-0.6931,-0.7015,-0.6789,-0.6274,-0.6133,-0.5955,-0.5656,-0.5656,0.0,0.0,0.0,0.0,0.0,-0.3337,-0.3114,0.0,0.0,0.0,0.0,-0.2053,-0.2097,0.0,0.0,0.0,0.0,0.0,0.0,0.0,0.0,-0.3332,-0.3492,-0.4303,0.0,-0.4519,-0.4519,-0.4519,-0.4519,0.0,0.0,0.0,0.0,0.0,-0.3121,-0.4294,-0.3414,-0.2809,-0.3688,-0.3117,0.0,0.0,0.0,0.0,0.0,0.0,0.0,0.0,0.0,0.0,0.0,0.0,0.0474,0.1687,0.2744,0.3948,0.5276,0.6307,0.6841,0.6875,0.6875,0.6929,0.7037,0.7037,0.7054,0.7092,0.7092,0.7716,0.8978,1.0096,1.1209,1.2413,1.3561,1.4088,1.4088,1.4088,1.4088,1.4088,1.4088,1.425,1.4489,0.0,0.0,0.0,0.0,0.0,0.0,0.0,0.0,0.0,0.0,0.0,-0.765,-0.7983,-0.7759,0.0,0.0,0.0,0.0,0.0,0.0,0.0,0.0,0.0,0.0,-0.6737,-0.688,-0.6699,-0.6112,-0.6283,-0.6154,-0.5819,-0.5819,-0.5615,-0.5225,-0.4849,-0.4294,0.0,0.0,0.0,0.0,-0.2408,0.0,0.0,0.0,0.0,0.0,-0.1474,-0.1563,0.0,-0.1786,-0.1786,-0.1786,0.0,0.0,0.0,0.0,-0.2581,-0.2781,-0.3704,-0.3959,-0.407,-0.4405,-0.4236,-0.407,-0.4405,0.0,0.0,0.0,0.0,0.0,-0.3298,0.0,0.0,-0.2927,-0.21,0.0,0.0,0.0,0.0,0.0,0.0,0.0,0.0,0.0,0.0,0.0,0.0471,0.1267,0.2507,0.3513,0.4758,0.6049,0.6641,0.7024,0.7024,0.7024,0.7065,0.7139,0.7139,0.7139,0.7139,0.7139,0.7753,0.8978,0.9579,1.0438,1.1643,1.2772,1.3288,1.3294,1.3906,1.4088,1.4088,1.4088,1.4088,1.4088,0.0,0.0,0.0,0.0,0.0,0.0,0.0,0.0,0.0,0.0,0.0,0.0,0.0,0.0,0.0,0.0,0.0,0.0,0.0,0.0,0.0,0.0,0.0,-0.6762,-0.6401,-0.639,-0.6155,-0.5672,-0.575,-0.572,-0.562,-0.562,-0.5295,-0.4751,-0.3999,-0.3287,0.0,0.0,0.0,0.0,-0.1697,0.0,0.0,0.0,0.0,0.0,0.0,0.0,0.0,-0.1518,-0.1518,-0.152,-0.153,0.0,0.0,0.0,0.0,0.0,-0.2877,-0.3065,-0.3234,-0.4125,-0.3735,-0.3287,-0.4012,0.0,0.0,0.0,0.0,0.0,0.0,0.0,0.0,0.0,0.0,0.0,0.0,0.0,0.0,0.0,0.0,0.0,0.0,0.0,0.0,0.0,0.102,0.214,0.3332,0.447,0.5672,0.6867,0.7078,0.7139,0.7139,0.7139,0.7139,0.7139,0.7139,0.7139,0.7139,0.7139,0.7753,0.889,0.0,0.0,1.0697,1.1809,1.2328,1.2413,1.3646,1.4088,1.4088,1.4088,1.4088,1.4088,0.0,0.0,0.0,0.0,0.0,0.0,0.0,0.0,0.0,0.0,0.0,0.0,0.0,0.0,0.0,0.0,0.0,0.0,0.0,0.0,0.0,0.0,-0.6152,-0.6457,-0.6407,-0.6288,-0.5904,-0.5225,-0.543,-0.5242,-0.4714,-0.4714,-0.4519,-0.4111,-0.3375,-0.292,-0.2672,0.0,0.0,-0.1739,-0.1251,0.0,0.0,0.0,0.0,0.0,0.0,0.0,0.0,-0.0269,-0.0269,-0.0271,-0.0281,0.0,0.0,0.0,0.0,0.0,-0.2173,-0.1898,-0.1786,-0.3234,-0.2954,-0.2397,0.0,0.0,0.0,0.0,0.0,0.0,0.0,0.0,0.0,0.0,0.0,0.0,0.0,0.0,0.0,0.0,0.0,0.0,0.0,0.0,0.0,0.0,0.102,0.2155,0.3494,0.4511,0.5709,0.7011,0.7129,0.7139,0.7139,0.7139,0.7139,0.7139,0.7139,0.7139,0.7139,0.7139,0.7753,0.889,0.0,0.9579,1.0697,1.1809,1.2328,1.2413,1.3646,1.4088,1.4088,1.4088,1.4088,1.425,0.0,0.0,0.0,0.0,0.0,0.0,0.0,0.0,0.0,0.0,0.0,0.0,0.0,0.0,0.0,0.0,0.0,0.0,0.0,0.0,0.0,-0.5308,-0.5499,-0.5581,-0.5581,-0.5581,-0.5314,-0.4785,-0.491,-0.4787,-0.4519,-0.407,-0.3746,-0.3462,-0.274,-0.2156,-0.1706,-0.1443,-0.1118,-0.0806,0.0,0.0,0.0,0.0,0.0,0.0,0.0,0.0,0.0,0.0,0.0,0.0,0.0,0.0,0.0,0.0,0.0,0.0,-0.1396,-0.1062,-0.0783,-0.1898,-0.1898,-0.1682,0.0,0.0,0.0,0.0,0.0,0.0,0.0,0.0,0.0,0.0,0.0,0.0,0.0,0.0,0.0,0.0,0.0,0.0,0.0,0.0,0.0235,0.0784,0.1801,0.3033,0.4342,0.5438,0.632,0.7041,0.7139,0.7139,0.7139,0.7139,0.7139,0.7139,0.7139,0.7139,0.7139,0.7139,0.7401,0.7929,0.0,0.8623,0.9749,1.0869,1.1724,1.2413,1.3646,1.4088,1.4088,1.4088,1.4088,1.4166,0.0,0.0,0.0,0.0,0.0,0.0,0.0,0.0,0.0,0.0,0.0,0.0,0.0,0.0,0.0,0.0,0.0,0.0,0.0,0.0,-0.5043,-0.4918,-0.4755,-0.4759,-0.4907,-0.4912,-0.4824,-0.4519,-0.4519,-0.4405,-0.4181,-0.34,-0.2957,-0.281,-0.2097,-0.1479,-0.0902,-0.0729,-0.0403,0.0,0.0,0.0,0.0,0.0,0.0,0.0,0.0,0.0,0.0,0.0,0.0,0.0,0.0,0.0,0.0,0.0,0.0,-0.0112,-0.0671,-0.0448,-0.0112,-0.0678,0.0,0.0,-0.1575,0.0,0.0,0.0,0.0,0.0,0.0,0.0,0.0,0.0,0.0,0.0,0.0,0.0,0.0,0.0,0.0,0.0,0.0,0.0236,0.0706,0.1568,0.2735,0.3985,0.5004,0.6111,0.6837,0.7132,0.7139,0.7139,0.7139,0.7139,0.7139,0.7139,0.7139,0.7139,0.7139,0.7139,0.7139,0.7139,0.7139,0.7753,0.8978,1.0096,1.1295,1.2413,1.3646,1.4088,1.4088,1.4088,1.4128,1.4188,0.0,0.0,0.0,0.0,0.0,0.0,0.0,0.0,0.0,0.0,0.0,0.0,0.0,0.0,0.0,0.0,0.0,0.0,0.0,0.0,-0.422,-0.3755,-0.3955,-0.4317,-0.4907,-0.4669,-0.4505,-0.4519,-0.4519,-0.4125,-0.3342,-0.2619,-0.2193,-0.207,-0.1434,-0.1086,-0.0854,-0.032,-0.0045,0.0,0.0,0.0,0.0,0.0,0.0,0.0,0.0,0.0,0.0,0.0,0.0,0.0,0.0,0.0,0.0,0.0,0.0,0.0,-0.0056,-0.0056,0.0,-0.0058,0.0,0.0,-0.0118,0.0,0.0,0.0,0.0,0.0,0.0,0.0,0.0,0.0,0.0,0.0,0.0,0.0,0.0,0.0,0.0,0.0,0.0,0.0863,0.1489,0.1568,0.3439,0.4703,0.5087,0.6111,0.6837,0.7132,0.7139,0.7139,0.7139,0.7139,0.7139,0.7139,0.7139,0.7139,0.7139,0.7139,0.7139,0.7139,0.7139,0.7753,0.8978,1.0096,1.1295,1.2413,1.3646,1.4088,1.4088,1.4088,1.4255,1.4489,0.0,0.0,0.0,0.0,0.0,0.0,0.0,0.0,0.0,0.0,0.0,0.0,0.0,0.0,0.0,0.0,0.0,0.0,0.0,0.0,-0.3796,-0.3626,-0.3863,-0.3866,-0.3661,-0.4201,-0.4519,-0.4519,-0.4012,-0.3345,-0.2619,-0.1842,-0.1498,-0.1424,-0.0741,-0.0362,-0.0306,-0.0098,0.0,0.0,0.0,0.0,0.0,0.0,0.0,0.0,0.0,0.0,0.0,0.0,0.0,0.0,0.0,0.0,0.0,0.0,0.0,0.0,0.0,0.0,0.0,0.0,0.0,0.0,0.0,0.0,0.0,0.0,0.0,0.0,0.0,0.0,0.0,0.0,0.0,0.0,0.0,0.0,0.0,0.0,0.0,0.0,0.0,0.0941,0.188,0.2501,0.3906,0.5069,0.5888,0.6397,0.6797,0.7004,0.7095,0.7139,0.7139,0.7139,0.7139,0.7139,0.7139,0.7139,0.7139,0.7139,0.7139,0.7139,0.7139,0.8185,1.0009,1.0438,1.1735,1.347,1.3913,1.4088,1.4108,1.4289,1.4429,1.4543,0.0,0.0,0.0,0.0,0.0,0.0,0.0,0.0,0.0,0.0,0.0,0.0,0.0,0.0,0.0,0.0,0.0,0.0,0.0,-0.3792,-0.3581,-0.3581,-0.3621,-0.3415,-0.2913,-0.35,-0.379,-0.379,-0.301,-0.2343,-0.1842,-0.1118,-0.0727,-0.0726,-0.0216,0.0,0.0,0.0,0.0,0.0,0.0,0.0,0.0,0.0,0.0,0.0,0.0,0.0,0.0,0.0,0.0,0.0,0.0,0.0,0.0,0.0,0.0,0.0,0.0,0.0,0.0,0.0,0.0,0.0,0.0,0.0,0.0,0.0,0.0,0.0,0.0,0.0,0.0,0.0,0.0,0.0,0.0,0.0,0.0,0.0,0.0,0.0157,0.0471,0.1488,0.2503,0.3515,0.4608,0.5605,0.6464,0.6617,0.677,0.6922,0.7065,0.7139,0.7139,0.7139,0.7139,0.7139,0.7139,0.7139,0.7139,0.7139,0.7139,0.7139,0.7489,0.8794,1.0611,1.0956,1.2339,1.4088,1.4088,1.4142,1.4249,1.4449,1.4636,1.483,0.0,0.0,0.0,0.0,0.0,0.0,0.0,0.0,0.0,0.0,0.0,0.0,0.0,0.0,0.0,0.0,0.0,0.0,-0.3581,-0.3581,-0.3581,-0.3578,-0.3136,-0.2913,-0.2863,-0.2424,-0.2174,-0.2174,-0.1452,-0.1118,-0.1062,-0.0336,0.0,0.0,0.0,0.0,0.0,0.0,0.0,0.0,0.0,0.0,0.0,0.0,0.0,0.0,0.0,0.0,0.0,0.0,0.0,0.0,0.0,0.0,0.0,0.0,0.0,0.0,0.0,0.0,0.0,0.0,0.0,0.0,0.0,0.0,0.0,0.0,0.0,0.0,0.0,0.0,0.0,0.0,0.0,0.0,0.0,0.0,0.0,0.0,0.0,0.0471,0.1489,0.2501,0.3591,0.4608,0.5709,0.6322,0.6464,0.6614,0.677,0.6922,0.7065,0.7139,0.7139,0.7139,0.7139,0.7139,0.7139,0.7139,0.7139,0.7139,0.7139,0.7139,0.8364,0.9579,1.0697,1.1815,1.3027,1.4088,1.4088,1.4262,1.4522,1.4522,1.4897,1.5398,0.0,0.0,0.0,0.0,0.0,0.0,0.0,0.0,0.0,0.0,0.0,0.0,0.0,0.0,0.0,0.0,0.0,0.0,-0.299,-0.3353,-0.3217,-0.2366,-0.2702,-0.2461,-0.151,-0.0918,-0.0895,-0.1452,-0.1229,-0.0838,-0.0336,-0.0112,0.0,0.0,0.0,0.0,0.0,0.0,0.0,0.0,0.0,0.0,0.0,0.0,0.0,0.0,0.0,0.0,0.0,0.0,0.0,0.0,0.0,0.0,0.0,0.0,0.0,0.0,0.0,0.0,0.0,0.0,0.0,0.0,0.0,0.0,0.0,0.0,0.0,0.0,0.0,0.0,0.0,0.0,0.0,0.0,0.0,0.0,0.0314,0.102,0.1098,0.1567,0.2579,0.3593,0.4373,0.4686,0.5709,0.6278,0.6322,0.6461,0.661,0.6763,0.6912,0.7041,0.7139,0.7139,0.7139,0.7139,0.7139,0.7139,0.7139,0.7139,0.7139,0.7139,0.8364,0.9579,1.0783,1.2772,1.3822,1.4088,1.4088,1.4262,1.4543,1.4756,1.507,1.5424,0.0,0.0,0.0,0.0,0.0,0.0,0.0,0.0,0.0,0.0,-0.3792,-0.3581,0.0,0.0,0.0,-0.3262,-0.3262,0.0,-0.2364,-0.2677,-0.2546,-0.183,-0.1996,-0.1597,-0.0567,-0.0164,-0.0224,-0.0671,-0.0671,-0.0448,0.0,0.0,0.0,0.0,0.0,0.0,0.0,0.0,0.0,0.0,0.0,0.0,0.0,0.0,0.0,0.0,0.0,0.0,0.0,0.0,0.0,0.0,0.0,0.0,0.0,0.0,0.0,0.0,0.0,0.0,0.0,0.0,0.0,0.0,0.0,0.0,0.0,0.0,0.0,0.0,0.0,0.0,0.0,0.0,0.0,0.0,0.0,0.0392,0.0863,0.1489,0.1957,0.2581,0.3671,0.4295,0.4844,0.5315,0.5944,0.6338,0.6338,0.6393,0.6542,0.6695,0.6851,0.6997,0.7139,0.7139,0.7139,0.7139,0.7139,0.7139,0.7139,0.7139,0.7139,0.7228,0.8886,1.0529,1.2083,1.3561,1.4088,1.4088,1.4088,1.4335,1.4716,1.4897,1.5217,1.5591,0.0,0.0,-0.3445,-0.3445,0.0,0.0,0.0,0.0,0.0,-0.3445,-0.3445,-0.3445,0.0,0.0,0.0,-0.2674,-0.2627,-0.2361,-0.1739,-0.1784,-0.1741,-0.1652,-0.112,-0.0545,0.0,0.0,0.0,0.0,0.0,0.0,0.0,0.0,0.0,0.0,0.0,0.0,0.0,0.0,0.0,0.0,0.0,0.0,0.0,0.0,0.0,0.0,0.0,0.0,0.0,0.0,0.0,0.0,0.0,0.0,0.0,0.0,0.0,0.0,0.0,0.0,0.0,0.0,0.0,0.0,0.0,0.0,0.0,0.0,0.0,0.0,0.0,0.0,0.0,0.0,0.0,0.0,0.0157,0.102,0.1646,0.188,0.2659,0.3669,0.4766,0.4844,0.5237,0.6257,0.6338,0.6338,0.6338,0.6383,0.6529,0.6695,0.6834,0.6983,0.7139,0.7139,0.7139,0.7139,0.7139,0.7139,0.7139,0.7139,0.7139,0.7401,0.9483,1.1735,1.3913,1.3913,1.3997,1.4088,1.4088,1.4442,1.4963,1.4963,1.5331,1.5832,0.0,0.0,-0.2186,-0.2186,0.0,0.0,0.0,0.0,-0.2186,-0.2186,-0.2186,-0.2186,-0.2186,-0.2186,0.0,-0.2006,-0.2006,-0.1741,-0.1118,-0.1518,-0.1385,-0.0448,-0.024,-0.0153,0.0,0.0,0.0,0.0,0.0,0.0,0.0,0.0,0.0,0.0,0.0,0.0,0.0,0.0,0.0,0.0,0.0,0.0,0.0,0.0,0.0,0.0,0.0,0.0,0.0,0.0,0.0,0.0,0.0,0.0,0.0,0.0,0.0,0.0,0.0,0.0,0.0,0.0,0.0,0.0,0.0,0.0,0.0,0.0,0.0,0.0,0.0,0.0,0.0,0.0,0.0,0.0314,0.1176,0.1489,0.2192,0.3828,0.4219,0.4766,0.5867,0.5944,0.6025,0.6261,0.6338,0.6338,0.6338,0.6288,0.6427,0.6692,0.6732,0.6875,0.7139,0.7139,0.7139,0.7139,0.7139,0.7139,0.7139,0.7139,0.7577,0.854,0.9061,1.0611,1.2674,1.2674,1.3294,1.4088,1.4088,1.4442,1.4963,1.4963,1.5331,1.5832,0.0,0.0,0.0,0.0,0.0,0.0,0.0,0.0,-0.1786,-0.1786,-0.1786,-0.1786,-0.1786,-0.1786,0.0,0.0,-0.1385,-0.1118,-0.0493,-0.0761,-0.0678,-0.0046,0.0,0.0,0.0,0.0,0.0,0.0,0.0,0.0,0.0,0.0,0.0,0.0,0.0,0.0,0.0,0.0,0.0,0.0,0.0,0.0,0.0,0.0,0.0,0.0,0.0,0.0,0.0,0.0,0.0,0.0,0.0,0.0,0.0,0.0,0.0,0.0,0.0,0.0,0.0,0.0,0.0,0.0,0.0,0.0,0.0,0.0,0.0,0.0,0.0,0.0,0.0155,0.0704,0.0784,0.1097,0.219,0.2347,0.2737,0.3826,0.3904,0.4139,0.4688,0.5237,0.555,0.555,0.6022,0.6338,0.6338,0.6338,0.6363,0.6583,0.6661,0.681,0.7037,0.7105,0.7139,0.7139,0.7139,0.7139,0.7139,0.7139,0.7753,0.889,0.889,1.0183,1.2328,1.2328,1.3027,1.4088,1.4088,1.4442,1.4963,1.4963,1.5331,1.5832,0.0,0.0,0.0,0.0,0.0,0.0,0.0,0.0,0.0,-0.1474,-0.1474,-0.1474,-0.1474,-0.1474,-0.1297,0.0,0.0,0.0,-0.0045,0.0,0.0,0.0,0.0,0.0,0.0,0.0,0.0,0.0,0.0,0.0,0.0,0.0,0.0,0.0,0.0,0.0,0.0,0.0,0.0,0.0,0.0,0.0,0.0,0.0,0.0,0.0,0.0,0.0,0.0,0.0,0.0,0.0,0.0,0.0,0.0,0.0,0.0,0.0,0.0,0.0,0.0,0.0,0.0,0.0,0.0,0.0,0.0,0.0,0.0,0.0,0.0,0.0,0.0314,0.1176,0.1333,0.1645,0.2735,0.2812,0.289,0.3046,0.3279,0.3357,0.3357,0.4373,0.4999,0.4999,0.5786,0.6338,0.6338,0.6338,0.6325,0.6468,0.662,0.6773,0.6926,0.7068,0.7139,0.7139,0.7139,0.7139,0.7139,0.7139,0.7665,0.8627,0.8627,0.9923,1.1986,1.1986,1.2857,1.4088,1.4142,1.4489,1.497,1.5023,1.5378,1.5832,0.0,0.0,0.0,0.0,0.0,0.0,0.0,0.0,0.0,0.0,-0.0224,-0.0224,-0.0224,-0.0224,-0.0225,-0.0135,-0.0139,-0.0095,0.0,0.0,0.0,0.0,0.0,0.0,0.0,0.0,0.0,0.0,0.0,0.0,0.0,0.0,0.0,0.0,0.0,0.0,0.0,0.0,0.0,0.0,0.0,0.0,0.0,0.0,0.0,0.0,0.0,0.0,0.0,0.0,0.0,0.0,0.0,0.0,0.0,0.0,0.0,0.0,0.0,0.0,0.0,0.0,0.0,0.0,0.0,0.0,0.0,0.0,0.0,0.0,0.0,0.0,0.0079,0.0157,0.0236,0.0549,0.1645,0.1802,0.2113,0.2968,0.3904,0.4453,0.4453,0.547,0.6103,0.6103,0.6183,0.6338,0.6338,0.6338,0.6325,0.6468,0.662,0.6773,0.6926,0.7068,0.7139,0.7139,0.7139,0.7139,0.7139,0.7139,0.7228,0.7316,0.7316,0.8707,1.0869,1.0869,1.2083,1.4115,1.4362,1.4669,1.499,1.5244,1.5545,1.5832,0.0,0.0,0.0,0.0,0.0,0.0,0.0,0.0,0.0,0.0,0.0,0.0,0.0,0.0,0.0,0.0,0.0,0.0,0.0,0.0,0.0,0.0,0.0,0.0,0.0,0.0,0.0,0.0,0.0,0.0,0.0,0.0,0.0,0.0,0.0,0.0,0.0,0.0,0.0,0.0,0.0,0.0,0.0,0.0,0.0,0.0,0.0,0.0,0.0,0.0,0.0,0.0,0.0,0.0,0.0,0.0,0.0,0.0,0.0,0.0,0.0,0.0,0.0,0.0,0.0,0.0,0.0,0.0,0.0,0.0,0.0,0.0,0.0236,0.0784,0.0863,0.1254,0.2268,0.1957,0.1957,0.2968,0.3047,0.3205,0.3748,0.4766,0.5395,0.5395,0.5944,0.6338,0.6338,0.6338,0.6288,0.6352,0.658,0.6732,0.68,0.7027,0.7139,0.7139,0.7139,0.7139,0.7139,0.7139,0.7139,0.7139,0.7841,0.9056,1.0611,1.1295,1.2595,1.4115,1.4409,1.4703,1.4997,1.5291,1.5578,1.5832,0.0,0.0,0.0,0.0,0.0,0.0,0.0,0.0,0.0,0.0,0.0,0.0,0.0,0.0,0.0,0.0,0.0,0.0,0.0,0.0,0.0,0.0,0.0,0.0,0.0,0.0,0.0,0.0,0.0,0.0,0.0,0.0,0.0,0.0,0.0,0.0,0.0,0.0,0.0,0.0,0.0,0.0,0.0,0.0,0.0,0.0,0.0,0.0,0.0,0.0,0.0,0.0,0.0,0.0,0.0,0.0,0.0,0.0,0.0,0.0,0.0,0.0,0.0,0.0,0.0,0.0,0.0,0.0,0.0,0.0,0.0,0.0,0.0235,0.1097,0.1176,0.1567,0.2579,0.2035,0.1957,0.2968,0.2659,0.2659,0.3435,0.4453,0.5079,0.5079,0.5867,0.6338,0.6338,0.6338,0.6338,0.6338,0.6508,0.6661,0.6702,0.6993,0.7139,0.7139,0.7139,0.7139,0.7139,0.7404,0.7577,0.7577,0.854,0.9753,1.1123,1.198,1.3027,1.4122,1.4489,1.477,1.501,1.5371,1.5645,1.5832,0.0,0.0,0.0,0.0,0.0,0.0,0.0,0.0,0.0,0.0,0.0,0.0,0.0,0.0,0.0,0.0,0.0,0.0,0.0,0.0,0.0,0.0,0.0,0.0,0.0,0.0,0.0,0.0,0.0,0.0,0.0,0.0,0.0,0.0,0.0,0.0,0.0,0.0,0.0,0.0,0.0,0.0,0.0,0.0,0.0,0.0,0.0,0.0,0.0,0.0,0.0,0.0,0.0,0.0,0.0,0.0,0.0,0.0,0.0,0.0,0.0,0.0,0.0,0.0,0.0,0.0,0.0,0.0,0.0,0.0,0.0,0.0,0.0,0.0079,0.0079,0.0471,0.1489,0.1646,0.1957,0.2968,0.3982,0.453,0.4608,0.555,0.6183,0.6183,0.6261,0.6338,0.6338,0.6338,0.6338,0.6338,0.6407,0.6552,0.6698,0.6993,0.7139,0.7139,0.7139,0.7139,0.7139,0.8281,0.8803,0.8803,0.889,1.0183,1.2237,1.2242,1.3027,1.4148,1.4716,1.495,1.503,1.5598,1.5812,1.5832,0.0,0.0,0.0,0.0,0.0,0.0,0.0,0.0,0.0,0.0,0.0,0.0,0.0,0.0,0.0,0.0,0.0,0.0,0.0,0.0,0.0,0.0,0.0,0.0,0.0,0.0,0.0,0.0,0.0,0.0,0.0,0.0,0.0,0.0,0.0,0.0,0.0,0.0,0.0,0.0,0.0,0.0,0.0,0.0,0.0,0.0,0.0,0.0,0.0,0.0,0.0,0.0,0.0,0.0,0.0,0.0,0.0,0.0,0.0,0.0,0.0,0.0,0.0,0.0,0.0,0.0,0.0,0.0,0.0,0.0,0.0,0.0,0.0,0.0,0.0,0.0392,0.1411,0.1568,0.2192,0.3906,0.4453,0.4999,0.5631,0.6103,0.6338,0.6338,0.6338,0.6338,0.6338,0.6338,0.6338,0.6338,0.6396,0.6593,0.6844,0.7041,0.7139,0.7139,0.7139,0.7489,0.8277,0.8715,0.9666,1.1037,1.1037,1.1552,1.2328,1.3118,1.373,1.4148,1.4736,1.4963,1.503,1.5618,1.5832,1.5832,0.0,0.0,0.0,0.0,0.0,0.0,0.0,0.0,0.0,0.0,0.0,0.0,0.0,0.0,0.0,0.0,0.0,0.0,0.0,0.0,0.0,0.0,0.0,0.0,0.0,0.0,0.0,0.0,0.0,0.0,0.0,0.0,0.0,0.0,0.0,0.0,0.0,0.0,0.0,0.0,0.0,0.0,0.0,0.0,0.0,0.0,0.0,0.0,0.0,0.0,0.0,0.0,0.0,0.0,0.0,0.0,0.0,0.0,0.0,0.0,0.0,0.0,0.0,0.0,0.0,0.0,0.0,0.0,0.0205,0.0416,0.042,0.072,0.082,0.054,0.0775,0.1398,0.2501,0.266,0.3285,0.5002,0.5237,0.555,0.6257,0.6338,0.6338,0.6338,0.6338,0.0,0.6338,0.6338,0.6338,0.6338,0.6447,0.6647,0.6851,0.7044,0.7316,0.7665,0.7665,0.836,0.9492,0.9836,1.0869,1.2322,1.276,1.2942,1.2942,1.3737,1.4142,1.4282,1.4776,1.5023,1.517,1.5651,1.5832,1.5832,0.0,0.0,0.0,0.0,0.0,0.0,0.0,0.0,0.0,0.0,0.0,0.0,0.0,0.0,0.0,0.0,0.0,0.0,0.0,0.0,0.0,0.0,0.0,0.0,0.0,0.0,0.0,0.0,0.0,0.0,0.0,0.0,0.0,0.0,0.0,0.0,0.0,0.0,0.0,0.0,0.0,0.0,0.0,0.0,0.0,0.0,0.0,0.0,0.0,0.0,0.0,0.0,0.0,0.0,0.0,0.0,0.0,0.0,0.0,0.0,0.0,0.0,0.0,0.0,0.0,0.0,0.0,0.0,0.0739,0.1284,0.1319,0.2091,0.2482,0.1794,0.2336,0.3343,0.4511,0.4681,0.5076,0.618,0.6338,0.6338,0.6338,0.6338,0.6338,0.6338,0.6338,0.6338,0.6338,0.6338,0.6338,0.6338,0.6542,0.6695,0.6702,0.6987,0.7749,0.889,0.8978,0.9579,1.0697,1.1809,1.2328,1.2413,1.3555,1.4088,1.4088,1.4088,1.4255,1.4549,1.485,1.5137,1.5431,1.5718,1.5832,1.5832,0.0,0.0,0.0,0.0,0.0,0.0,0.0,0.0,0.0,0.0,0.0,0.0,0.0,0.0,0.0,0.0,0.0,0.0,0.0,0.0,0.0,0.0,0.0,0.0,0.0,0.0,0.0,0.0,0.0,0.0,0.0,0.0,0.0,0.0,0.0,0.0,0.0,0.0,0.0,0.0,0.0,0.0,0.0,0.0,0.0,0.0,0.0,0.0,0.0,0.0,0.0,0.0,0.0,0.0,0.0,0.0,0.0,0.0,0.0,0.0,0.0,0.0,0.0,0.0,0.0,0.0,0.0202,0.0806,0.114,0.1478,0.2165,0.3046,0.363,0.3476,0.3045,0.3182,0.4397,0.4563,0.498,0.6167,0.6338,0.6338,0.6338,0.6338,0.6338,0.0,0.6338,0.6338,0.6338,0.6338,0.6338,0.6338,0.6437,0.6586,0.6698,0.7727,0.8496,0.889,0.9749,1.0697,1.1815,1.2151,1.2766,1.3646,1.3997,1.4088,1.4088,1.4088,1.4255,1.4549,1.485,1.5137,1.5431,1.5718,1.5832,1.5832,0.0,0.0,0.0,0.0,0.0,0.0,0.0,0.0,0.0,0.0,0.0,0.0,0.0,0.0,0.0,0.0,0.0,0.0,0.0,0.0,0.0,0.0,0.0,0.0,0.0,0.0,0.0,0.0,0.0,0.0,0.0,0.0,0.0,0.0,0.0,0.0,0.0,0.0,0.0,0.0,0.0,0.0,0.0,0.0,0.0,0.0,0.0,0.0,0.0,0.0,0.0,0.0,0.0,0.0,0.0,0.0,0.0,0.0,0.0,0.0,0.0,0.0,0.0,0.0,0.0471,0.0538,0.0806,0.0,0.2143,0.2609,0.3145,0.3949,0.4576,0.4722,0.424,0.4126,0.4941,0.5041,0.5291,0.5982,0.6125,0.6166,0.6166,0.6224,0.6338,0.6338,0.6338,0.6338,0.6338,0.6338,0.6338,0.6338,0.6396,0.6785,0.7428,0.8262,0.9208,1.0351,1.095,1.1901,1.3027,1.3027,1.347,1.4088,1.4088,1.4088,1.4095,1.4215,1.4436,1.4736,1.503,1.5317,1.5598,1.5765,1.5832,1.5832,0.0,0.0,0.0,0.0,0.0,0.0,0.0,0.0,0.0,0.0,0.0,0.0,0.0,0.0,0.0,0.0,0.0,0.0,0.0,0.0,0.0,0.0,0.0,0.0,0.0,0.0,0.0,0.0,0.0,0.0,0.0,0.0,0.0,0.0,0.0,0.0,0.0,0.0,0.0,0.0,0.0,0.0,0.0,0.0,0.0,0.0,0.0,0.0,0.0,0.0,0.0135,0.0,0.0,0.0,0.0,0.0,0.0067,0.0,0.0,0.0,0.0,0.0,0.0,0.0,0.1073,0.1273,0.1608,0.2611,0.348,0.4015,0.4148,0.4821,0.5428,0.5428,0.5428,0.5457,0.5739,0.5779,0.5783,0.58,0.5922,0.601,0.6027,0.6156,0.6244,0.6335,0.6338,0.6338,0.6338,0.6338,0.6338,0.6338,0.6537,0.7243,0.8397,0.8822,1.0114,1.2328,1.2413,1.3027,1.4088,1.4088,1.4088,1.4088,1.4088,1.4108,1.4162,1.4449,1.4723,1.499,1.5284,1.5571,1.5832,1.5832,1.5832,1.5832,0.0,0.0,0.0,0.0,0.0,0.0,0.0,0.0,0.0,0.0,0.0,0.0,0.0,0.0,0.0,0.0,0.0,0.0,0.0,0.0,0.0,0.0,0.0,0.0,0.0,0.0,0.0,0.0,0.0,0.0,0.0,0.0,0.0,0.0,0.0,0.0,0.0,0.0,0.0,0.0,0.0,0.0,0.0,0.0,0.0,0.0,0.0,0.0,0.0,0.0,0.0941,0.1944,0.0,0.0,0.0,0.0,0.0,0.0,0.0,0.0,0.0,0.0,0.0,0.0,0.1073,0.1273,0.1742,0.0,0.3882,0.4217,0.4957,0.5292,0.5428,0.5428,0.5428,0.5423,0.5606,0.563,0.5674,0.5786,0.5827,0.5895,0.6017,0.6057,0.6125,0.6251,0.6338,0.6338,0.6338,0.6338,0.6338,0.6338,0.713,0.7832,0.8397,1.0238,1.1546,1.2328,1.3294,1.3906,1.4088,1.4088,1.4088,1.4088,1.4088,1.4222,1.4462,1.4756,1.491,1.499,1.5284,1.5571,1.5832,1.5832,1.5832,1.5832,0.006,0.0,0.0,0.0,0.0,0.0,0.0,0.0,0.0,0.0,0.0,0.0,0.0,0.0,0.0,0.0,0.0,0.0,0.0,0.0,0.0,0.0,0.0,0.0,0.0,0.0,0.0,0.0,0.0,0.0,0.0,0.0,0.0,0.0,0.0,0.0,0.0,0.0,0.0,0.0,0.0,0.0,0.0,0.0,0.0,0.0067,0.0471,0.0672,0.0739,0.1208,0.1343,0.0,0.0,0.1676,0.1942,0.0,0.1342,0.1274,0.0,0.0,0.0,0.1208,0.0,0.0,0.0,0.2678,0.3011,0.4417,0.4686,0.4821,0.0,0.0,0.5428,0.5428,0.5428,0.5456,0.5464,0.5477,0.5501,0.5576,0.565,0.5725,0.5803,0.5874,0.5979,0.6135,0.6217,0.6338,0.6338,0.6338,0.6567,0.7022,0.7557,0.8498,1.0024,1.1169,1.2168,1.3203,1.3822,1.4088,1.4088,1.4088,1.4088,1.4088,1.4088,1.4255,1.4543,1.4843,1.505,1.5211,1.5498,1.5698,1.5832,1.5832,1.5832,1.5832,0.0125,0.0,0.0,0.0,0.0,0.0,0.0,0.0,0.0,0.0,0.0,0.0,0.0,0.0,0.0,0.0,0.0,0.0,0.0,0.0,0.0,0.0,0.0,0.0,0.0,0.0,0.0,0.0,0.0,0.0,0.0,0.0,0.0,0.0,0.0,0.0,0.0,0.0,0.0,0.0,0.0,0.0,0.0,0.0,0.0135,0.0337,0.1274,0.1675,0.1876,0.2277,0.1677,0.0941,0.2076,0.2143,0.0,0.0,0.0,0.0,0.0,0.0,0.0,0.0,0.0,0.2945,0.0,0.0,0.0,0.5226,0.5428,0.0,0.0,0.0,0.0,0.0,0.0,0.0,0.0,0.5428,0.0,0.5428,0.5471,0.5559,0.5586,0.5718,0.5864,0.6017,0.6146,0.6381,0.6563,0.6412,0.6795,0.7783,0.7783,0.897,1.1416,1.1582,1.2506,1.4088,1.4088,1.4088,1.4088,1.4088,1.4088,1.4088,1.4142,1.4335,1.4629,1.4923,1.5217,1.5504,1.5738,1.5832,1.5832,1.5832,1.5832,1.5832,0.0,0.0,0.0,0.0,0.0,0.0,0.0,0.0,0.0,0.0,0.0,0.0,0.0,0.0,0.0,0.0,0.0,0.0,0.0,0.0,0.0,0.0,0.0,0.0,0.0,0.0,0.0,0.0,0.0,0.0,0.0,0.0,0.0,0.0,0.0,0.0,0.0,0.0,0.0,0.0,0.0,0.0,0.0,0.0,0.0471,0.1274,0.221,0.3011,0.348,0.0,0.241,0.328,0.0,0.2476,0.3547,0.0,0.0,0.0,0.0,0.0,0.0,0.0,0.2678,0.0,0.0,0.0,0.4284,0.5226,0.0,0.0,0.0,0.0,0.0,0.0,0.0,0.0,0.5428,0.5428,0.5428,0.5428,0.5442,0.544,0.5579,0.5718,0.5864,0.6017,0.6047,0.6489,0.7544,0.6795,0.6795,0.7783,0.7783,0.8659,1.0358,1.1255,1.2506,1.4088,1.4088,1.4088,1.4088,1.4088,1.4088,1.4102,1.4355,1.4636,1.4937,1.5224,1.5518,1.5785,1.5812,1.5832,1.5832,1.5832,1.5832,1.5832,0.0,0.0,0.0,0.0,0.0,0.0,0.0,0.0,0.0,0.0,0.0,0.0,0.0,0.0,0.0,0.0,0.0,0.0,0.0,0.0,0.0,0.0,0.0,0.0,0.0,0.0,0.0,0.0,0.0,0.0,0.0,0.0,0.0,0.0,0.0538,0.0,0.0739,0.0,0.0746,0.0,0.0,0.0,0.0,0.09,0.1872,0.3225,0.3576,0.3995,0.4276,0.0,0.3718,0.0,0.0,0.0,0.0,0.0,0.0,0.0,0.0,0.0,0.0,0.0,0.0,0.0,0.4755,0.0,0.4954,0.0,0.0,0.0,0.0,0.0,0.0,0.0,0.5428,0.0,0.0,0.0,0.5428,0.0,0.0,0.0,0.545,0.5593,0.5948,0.6672,0.6849,0.743,0.8604,0.8237,0.8537,0.9513,0.9513,1.0275,1.1902,1.2393,1.3089,1.4088,1.4088,1.4088,1.4088,1.4088,1.4088,1.4102,1.4396,1.4689,1.4983,1.5277,1.5565,1.5832,1.5832,1.5832,1.5832,1.5832,1.5832,1.5832,0.0,0.0,0.0,0.0,0.0,0.0,0.0,0.0,0.0,0.0,0.0,0.0,0.0,0.0,0.0,0.0,0.0,0.0,0.0,0.0,0.0,0.0,0.0,0.0,0.0,0.0,0.0,0.0,0.0,0.0,0.0,0.0,0.0,0.0,0.0,0.1073,0.1274,0.0,0.0,0.1746,0.1971,0.2152,0.2415,0.2423,0.328,0.4563,0.4781,0.4853,0.4928,0.529,0.4568,0.0,0.5003,0.0,0.0,0.0,0.0,0.0,0.5504,0.0,0.0,0.0,0.0,0.0,0.0,0.0,0.0,0.0,0.0,0.0,0.0,0.0,0.0,0.0,0.0,0.0,0.0,0.0,0.0,0.0,0.0,0.0,0.0,0.546,0.5993,0.7123,0.0,0.8084,0.9489,0.9412,0.9744,1.0783,1.0565,1.1124,1.2797,1.2803,1.3257,1.4088,1.4088,1.4088,1.4088,1.4088,1.4128,1.4222,1.4516,1.481,1.5104,1.5398,1.5638,1.5832,1.5832,1.5832,1.5832,1.5832,1.5832,1.5832,0.0,0.0,0.0,0.0,0.0,0.0,0.0,0.0,0.0,0.0,0.0,0.0,0.0,0.0,0.0,0.0,0.0,0.0,0.0,0.0,0.0,0.0,0.0,0.0,0.0,0.0,0.0,0.0,0.0,0.0,0.0,0.0,0.0,0.0,0.0,0.0538,0.1343,0.1518,0.2094,0.2868,0.3015,0.3681,0.4574,0.0,0.4416,0.4635,0.5437,0.0,0.0,0.4781,0.4491,0.0,0.0,0.0,0.0,0.0,0.0,0.0,0.0,0.0,0.0,0.5786,0.0,0.0,0.0,0.0,0.5428,0.0,0.0,0.0,0.0,0.0,0.0,0.0,0.0,0.0,0.0,0.0,0.0,0.0,0.0,0.0,0.0,0.5432,0.5825,0.0,0.7185,0.0,1.0257,0.9697,0.9744,1.0783,0.9895,1.0132,1.1736,1.1748,1.2506,1.4088,1.4088,1.4088,1.4088,1.4088,1.4242,1.4522,1.4823,1.5117,1.5404,1.5698,1.5818,1.5832,1.5832,1.5832,1.5832,1.5832,1.5832,1.5832,0.0,0.0,0.0,0.0,0.0,0.0,0.0,0.0,0.0,0.0,0.0,0.0,0.0,0.0,0.0,0.0,0.0,0.0,0.0,0.0,0.0,0.0,0.0,0.0,0.0,0.0,0.0,0.0,0.0,0.0,0.0,0.0,0.0,0.0,0.0,0.1448,0.0,0.0,0.0,0.0,0.0,0.4828,0.5701,0.0,0.5563,0.572,0.6029,0.6105,0.0,0.5799,0.572,0.572,0.572,0.572,0.572,0.6029,0.6034,0.0,0.0,0.0,0.58,0.58,0.0,0.0,0.0,0.0,0.0,0.0,0.0,0.0,0.0,0.0,0.0,0.0,0.0,0.0,0.0,0.0,0.0,0.0,0.0,0.0,0.0,0.0,0.0,0.0,0.0,0.0,1.1339,1.1328,1.1471,1.1768,1.1471,1.1746,1.2711,1.2724,1.317,1.4088,1.4088,1.4088,1.4088,1.4088,1.4249,1.4536,1.4836,1.513,1.5418,1.5712,1.5832,1.5832,1.5832,1.5832,1.5832,1.5832,1.5832,1.5832,0.0,0.0,0.0,0.0,0.0,0.0,0.0,0.0,0.0,0.0,0.0,0.0,0.0,0.0,0.0,0.0,0.0,0.0,0.0,0.0,0.0,0.0,0.0,0.0,0.0,0.0,0.0,0.0,0.0,0.0,0.0,0.0,0.0,0.0,0.0,0.1629,0.2908,0.0,0.3786,0.0,0.0,0.5709,0.0,0.0,0.6217,0.6338,0.0,0.6338,0.6338,0.6338,0.6338,0.6338,0.6338,0.6338,0.6338,0.6338,0.619,0.6112,0.6112,0.604,0.0,0.5962,0.5922,0.0,0.5881,0.0,0.0,0.0,0.0,0.0,0.0,0.0,0.0,0.0,0.0,0.0,0.0,0.5428,0.0,0.0,0.0,0.0,0.0,0.0,0.0,0.0,0.0,0.0,0.0,1.2091,1.2305,1.2305,1.2305,1.2592,1.32,1.3213,1.3507,1.4088,1.4088,1.4088,1.4088,1.4195,1.4402,1.4696,1.499,1.5284,1.5565,1.5752,1.5832,1.5832,1.5832,1.5832,1.5832,1.5832,1.5832,1.5832,0.0,0.0,0.0,0.0,0.0,0.0,0.0,0.0,0.0,0.0,0.0,0.0,0.0,0.0,0.0,0.0,0.0,0.0,0.0,0.0,0.0,0.0,0.0,0.0,0.0,0.0,0.0,0.0,0.0,0.0,0.0,0.0,0.0,0.0,0.0,0.0,0.2916,0.3065,0.4232,0.6064,0.6213,0.6278,0.6298,0.643,0.64,0.6281,0.6281,0.6281,0.6281,0.6281,0.6281,0.6281,0.6281,0.6281,0.6281,0.6281,0.6281,0.6281,0.6281,0.6278,0.6271,0.6271,0.6156,0.0,0.0,0.0,0.5813,0.0,0.0,0.0,0.0,0.0,0.0,0.0,0.0,0.0,0.0,0.0,0.0,0.0,0.0,0.0,0.0,0.0,0.0,0.0,0.0,0.0,0.0,1.1971,1.2285,1.2305,1.2318,1.2612,1.32,1.3227,1.352,1.4088,1.4088,1.4088,1.4095,1.4389,1.4683,1.4977,1.5271,1.5565,1.5832,1.5832,1.5832,1.5832,1.5832,1.5832,1.5832,1.5832,1.5832,1.5832,0.0,0.0,0.0,0.0,0.0,0.0,0.0,0.0,0.0,0.0,0.0,0.0,0.0,0.0,0.0,0.0,0.0,0.0,0.0,0.0,0.0,0.0,0.0,0.0,0.0,0.0,0.0,0.0,0.0,0.0,0.0,0.0,0.0,0.0,0.0,0.0,0.3069,0.3066,0.4377,0.6363,0.64,0.6485,0.659,0.0,0.662,0.6586,0.6586,0.6586,0.6586,0.6586,0.6586,0.6586,0.6586,0.6586,0.6586,0.6586,0.6586,0.6586,0.6586,0.6505,0.6417,0.6417,0.6308,0.6203,0.0,0.0,0.0,0.0,0.0,0.0,0.0,0.0,0.0,0.0,0.0,0.0,0.0,0.0,0.0,0.7312,0.0,0.0,0.0,0.0,0.0,0.0,0.0,0.0,0.0,0.0,1.2078,1.2291,1.2518,1.2819,1.3206,1.3427,1.3721,1.4088,1.4088,1.4088,1.4095,1.4389,1.4683,1.4977,1.5271,1.5565,1.5832,1.5832,1.5832,1.5832,1.5832,1.5832,1.5832,1.5832,1.5832,1.5832,0.0,0.0,0.0,0.0,0.0,0.0,0.0,0.0,0.0,0.0,0.0,0.0,0.0,0.0,0.0,0.0,0.0,0.0,0.0,0.0,0.0,0.0,0.0,0.0,0.0,0.0,0.0,0.0,0.0,0.0,0.0,0.0,0.0,0.0,0.0,0.0922,0.0,0.3458,0.4875,0.6478,0.6546,0.6624,0.0,0.6773,0.68,0.6807,0.6871,0.681,0.6702,0.6702,0.6702,0.6702,0.6702,0.6702,0.6702,0.6702,0.6702,0.6702,0.6702,0.6637,0.6573,0.6573,0.6512,0.6434,0.6369,0.6288,0.6203,0.0,0.601,0.6044,0.0,0.0,0.0,0.0,0.0,0.0,0.0,0.0,0.0,0.0,0.835,0.0,0.0,0.0,0.0,0.0,0.0,0.0,0.0,0.0,1.2131,1.2298,1.2667,1.2899,1.3206,1.35,1.3794,1.4088,1.4088,1.4155,1.4282,1.4583,1.4877,1.517,1.5464,1.5678,1.5832,1.5832,1.5832,1.5832,1.5832,1.5832,1.5832,1.5832,1.5832,1.5832,0.0,0.0,0.0,0.0,0.0,0.0,0.0,0.0,0.0,0.0,0.0,0.0,0.0,0.0,0.0,0.0,0.0,0.0,0.0,0.0,0.0,0.0,0.0,0.0,0.0,0.0,0.0,0.0,0.0,0.0,0.0,0.0,0.0,0.0,0.0,0.0,0.0,0.4188,0.5702,0.6546,0.6678,0.6742,0.6773,0.6905,0.6956,0.6973,0.7095,0.6973,0.6759,0.6759,0.6759,0.6759,0.6759,0.6759,0.6759,0.6759,0.6759,0.6759,0.6759,0.6746,0.6729,0.6729,0.6715,0.6664,0.6532,0.6502,0.6461,0.6318,0.6179,0.6303,0.0,0.0,0.0,0.0,0.0,0.0,0.0,0.0,0.0,0.0,0.0,0.0,0.0,0.0,0.0,0.0,0.0,0.0,0.0,0.0,1.2265,1.2305,1.2632,1.2933,1.3206,1.3534,1.3834,1.4088,1.4088,1.4242,1.4529,1.483,1.5124,1.5411,1.5705,1.5832,1.5832,1.5832,1.5832,1.5832,1.5832,1.5832,1.5832,1.5832,1.5927,1.6015,0.0,0.0,0.0,0.0,0.0,0.0,0.0,0.0,0.0,0.0,0.0,0.0,0.0,0.0,0.0,0.0,0.0,0.0,0.0,0.0,0.0,0.0,0.0,0.0,0.0,0.0,0.0,0.0,0.0,0.0,0.0,0.0,0.0,0.0,0.0,0.0,0.3224,0.544,0.0,0.6851,0.6878,0.6959,0.7065,0.7092,0.7102,0.7105,0.7132,0.7105,0.7061,0.7061,0.7061,0.7061,0.7061,0.7061,0.7061,0.7061,0.7061,0.7061,0.7061,0.6976,0.6888,0.6888,0.6793,0.6695,0.6668,0.6661,0.6617,0.6468,0.6413,0.6434,0.6468,0.0,0.0,0.0,0.0,0.0,0.0,0.0,0.0,0.0,0.0,1.0627,0.0,0.0,0.0,0.0,0.0,0.0,0.0,0.0,1.2051,0.0,1.2839,0.0,0.0,0.0,1.4035,1.4088,1.4088,1.4242,1.4529,1.483,1.5124,1.5411,1.5705,1.5832,1.5832,1.5832,1.5832,1.5832,1.5832,1.5832,1.5832,1.5832,1.648,1.7412,0.0,0.0,0.0,0.0,0.0,0.0,0.0,0.0,0.0,0.0,0.0,0.0,0.0,0.0,0.0,0.0,0.0,0.0,0.0,0.0,0.0,0.0,0.0,0.0,0.0,0.0,0.0,0.0,0.0,0.0,0.0,0.0,0.0,0.0,0.0,0.2204,0.0,0.0,0.0,0.6936,0.7007,0.7078,0.7139,0.7139,0.7139,0.7139,0.7139,0.719,0.7248,0.7166,0.7139,0.7139,0.7139,0.7139,0.7139,0.7139,0.7139,0.7139,0.7139,0.7092,0.7037,0.7037,0.6983,0.6909,0.6837,0.6817,0.6776,0.662,0.7071,0.7576,0.7956,0.8675,0.0,0.0,0.0,0.0,0.0,0.0,0.0,0.0,0.0,0.0,0.0,0.0,0.0,0.0,0.0,0.0,0.0,0.0,1.2231,0.0,0.0,0.0,1.3434,0.0,1.4088,1.4088,1.4242,1.4462,1.4763,1.5057,1.5344,1.5625,1.5765,1.5832,1.5832,1.5832,1.5832,1.5832,1.5832,1.5832,1.5832,1.5832,1.6574,1.7598,0.0,0.0,0.0,0.0,0.0,0.0,0.0,0.0,0.0,0.0,0.0,0.0,0.0,0.0,0.0,0.0,0.0,0.0,0.0,0.0,0.0,0.0,0.0,0.0,0.0,0.0,0.0,0.0,0.0,0.0,0.0,0.0,0.0,0.0,0.0,0.0,0.0,0.0,0.6183,0.6987,0.7132,0.719,0.7193,0.7224,0.7238,0.7238,0.7238,0.7316,0.74,0.7278,0.7238,0.7238,0.7238,0.7238,0.7231,0.72,0.719,0.7183,0.7149,0.7139,0.7139,0.7139,0.7139,0.7112,0.7256,0.7314,0.7354,0.7439,0.8189,0.9076,0.9901,1.0478,0.0,0.0,0.0,0.0,0.0,0.0,0.0,0.0,0.0,0.0,1.1109,0.0,0.0,0.0,0.0,0.0,1.1857,0.0,0.0,0.0,0.0,1.3353,1.3641,0.0,1.4122,1.4182,1.4409,1.471,1.5064,1.5291,1.5558,1.5832,1.5832,1.5832,1.5832,1.5832,1.5832,1.5832,1.5832,1.5832,1.5832,1.6109,1.703,1.7956,0.0,0.0,0.0,0.0,0.0,0.0,0.0,0.0,0.0,0.0,0.0,0.0,0.0,0.0,0.0,0.0,0.0,0.0,0.0,0.0,0.0,0.0,0.0,0.0,0.0,0.0,0.0,0.0,0.0,0.0,0.0,0.0,0.0,0.0,0.0,0.0,0.0,0.6527,0.7031,0.7132,0.7288,0.735,0.7363,0.7506,0.7556,0.7556,0.7556,0.7567,0.7577,0.756,0.7556,0.7556,0.7556,0.7556,0.7529,0.739,0.735,0.7319,0.7177,0.7139,0.7139,0.7139,0.7139,0.7401,0.8432,0.8694,0.8979,0.9868,1.0008,1.0209,1.093,1.1093,1.1377,0.0,0.0,0.0,0.0,0.0,0.0,0.0,0.0,0.0,0.0,1.141,0.0,0.0,1.1817,0.0,0.0,0.0,0.0,1.2808,1.3053,1.3353,1.3641,1.3941,1.4222,1.4482,1.4502,1.481,1.5357,1.5384,1.5558,1.5832,1.5832,1.5832,1.5832,1.5832,1.5832,1.5832,1.5832,1.5832,1.592,1.7131,1.8319,1.9314,0.0,0.0,0.0,0.0,0.0,0.0,0.0,0.0,0.0,0.0,0.0,0.0,0.0,0.0,0.0,0.0,0.0,0.0,0.0,0.0,0.0,0.0,0.0,0.0,0.0,0.0,0.0,0.0,0.0,0.0,0.0,0.0,0.0,0.0,0.0,0.5933,0.6659,0.7168,0.7417,0.7421,0.7482,0.7509,0.7516,0.7577,0.76,0.76,0.76,0.7655,0.7726,0.7726,0.7672,0.76,0.76,0.76,0.7587,0.7526,0.7509,0.7495,0.7434,0.7417,0.7394,0.7302,0.7807,0.8399,0.8828,0.9405,1.0072,1.0409,1.0888,1.1525,1.2493,1.2501,1.2454,1.2619,0.0,0.0,0.0,0.0,0.0,0.0,0.0,0.0,0.0,0.0,0.0,0.0,0.0,0.0,0.0,0.0,0.0,1.3013,0.0,1.3614,1.3908,1.4028,1.4229,1.4522,1.4703,1.5003,1.5404,1.5578,1.5718,1.5832,1.5832,1.5832,1.5832,1.5832,1.5832,1.5832,1.5832,1.5832,1.592,1.7225,1.8503,1.9497,0.0,0.0,0.0,0.0,0.0,0.0,0.0,0.0,0.0,0.0,0.0,0.0,0.0,0.0,0.0,0.0,0.0,0.0,0.0,0.0,0.0,0.0,0.0,0.0,0.0,0.0,0.0,0.0,0.0,0.0,0.0,0.0,0.0,0.0,0.5634,0.6694,0.7444,0.7553,0.76,0.7604,0.7645,0.7662,0.7665,0.7712,0.7729,0.7729,0.7729,0.7794,0.7879,0.7879,0.7811,0.7729,0.7729,0.7729,0.7719,0.7675,0.7662,0.7651,0.7611,0.76,0.7573,0.7465,0.8337,0.9289,0.9522,1.0494,1.13,1.158,1.2108,1.2723,1.349,1.348,1.324,1.2933,0.0,0.0,0.0,0.0,0.0,0.0,1.2305,1.2225,1.2017,1.2184,0.0,0.0,0.0,0.0,0.0,0.0,0.0,0.0,0.0,0.0,1.4082,1.4168,1.4362,1.4656,1.495,1.5244,1.5531,1.5732,1.5832,1.5832,1.5832,1.5832,1.5832,1.5832,1.5832,1.5832,1.5832,1.5832,1.592,1.7225,1.8234,1.9039,0.0,0.0,0.0,0.0,0.0,0.0,0.0,0.0,0.0,0.0,0.0,0.0,0.0,0.0,0.0,0.0,0.0,0.0,0.0,0.0,0.0,0.0,0.0,0.0,0.0,0.0,0.0,0.0,0.0,0.0,0.0093,0.0,0.4465,0.5779,0.702,0.7597,0.7597,0.76,0.76,0.7611,0.7753,0.7811,0.7824,0.7977,0.8035,0.8035,0.8035,0.8035,0.8035,0.8035,0.8035,0.8035,0.8035,0.8035,0.8004,0.7851,0.7811,0.7777,0.7638,0.76,0.76,0.7597,0.8512,0.9793,1.0997,1.2086,1.2994,1.3881,1.4082,1.3995,1.3701,1.3641,1.354,1.3253,0.0,0.0,0.0,0.0,0.0,1.2338,1.2305,1.2305,1.2298,1.2298,0.0,0.0,0.0,0.0,0.0,0.0,0.0,1.3621,1.3641,0.0,1.4082,1.4369,1.4663,1.4963,1.5251,1.5545,1.5825,1.5832,1.5832,1.5832,1.5832,1.5832,1.5832,1.5832,1.5832,1.5832,1.5832,1.5832,1.592,1.7225,1.7692,1.787,0.0,0.0,0.0,0.0,0.0,0.0,0.0,0.0,0.0,0.0,0.0,0.0,0.0,0.0,0.0,0.0,0.0,0.0,0.0,0.0,0.0,0.0,0.0,0.0,0.0,0.0,0.0,0.0,0.0,0.0,0.0,0.3948,0.5373,0.5881,0.7117,0.7743,0.775,0.7855,0.7899,0.7902,0.7946,0.7967,0.7974,0.8021,0.8038,0.8038,0.8038,0.8038,0.8038,0.8038,0.8038,0.8038,0.8038,0.8038,0.8031,0.798,0.7967,0.7957,0.7913,0.7899,0.7875,0.777,0.8592,0.9596,0.9837,1.1372,1.2973,1.4136,1.4222,1.4055,1.3968,1.3948,1.3848,1.3554,1.3507,0.0,1.3106,0.0,1.3026,1.2933,1.2919,1.2919,1.2919,1.2919,0.0,0.0,0.0,0.0,0.0,0.0,0.0,0.0,1.3841,0.0,1.4382,1.4476,1.477,1.5257,1.5351,1.5545,1.5832,1.5832,1.5832,1.5832,1.5832,1.5832,1.5832,1.5832,1.5832,1.5832,1.5832,1.5832,1.592,1.7225,1.7692,1.7777,0.0,0.0,0.0,0.0,0.0,0.0,0.0,0.0,0.0,0.0,0.0,0.0,0.0,0.0,0.0,0.0,0.0,0.0,0.0,0.0,0.0,0.0,0.0,0.0,0.0,0.0,0.0,0.0,0.0499,0.1476,0.2817,0.4848,0.6107,0.6693,0.7463,0.7896,0.7902,0.7997,0.8038,0.8038,0.8038,0.8038,0.8038,0.8038,0.8038,0.8038,0.8038,0.8038,0.8038,0.8038,0.8038,0.8038,0.8038,0.8038,0.8038,0.8038,0.8038,0.8038,0.8038,0.8038,0.8018,0.7919,0.8766,0.987,1.0702,1.2301,1.381,1.4526,1.4456,1.4249,1.4249,1.4162,1.4028,1.3841,1.3808,1.3707,1.3414,0.0,1.3333,0.0,0.0,0.0,0.0,1.3213,1.326,0.0,0.0,0.0,0.0,0.0,1.3694,1.3808,1.4095,1.4335,1.4522,1.4736,1.5037,1.5398,1.5504,1.5651,1.5832,1.5832,1.5832,1.5832,1.5832,1.5832,1.5832,1.5832,1.5832,1.5832,1.5832,1.5832,1.592,1.6662,1.6943,1.6958,0.0,0.0,0.0,0.0,0.0,0.0,0.0,0.0,0.0,0.0,0.0,0.0,0.0,0.0,0.0,0.0,0.0,0.0,0.0,0.0,0.0,0.0,0.0,0.0,0.0,0.0,0.0,0.0,0.1411,0.2815,0.4016,0.5425,0.6833,0.8038,0.8038,0.8038,0.8038,0.8038,0.8038,0.8038,0.8038,0.8038,0.8038,0.8038,0.8038,0.8038,0.8038,0.8038,0.8038,0.8038,0.8038,0.8038,0.8038,0.8038,0.8038,0.8038,0.8038,0.8038,0.8038,0.8038,0.8038,0.8038,0.9019,1.0631,1.2903,1.4359,1.5226,1.505,1.4756,1.4549,1.4549,1.4315,1.4115,1.4115,1.4102,1.3988,1.3714,1.3592,1.3574,0.0,0.0,0.0,1.3273,1.3273,1.3387,0.0,0.0,0.0,0.0,0.0,1.3854,1.4108,1.4396,1.4563,1.4583,1.5124,1.5404,1.5431,1.5698,1.5832,1.5832,1.5832,1.5832,1.5832,1.5832,1.5832,1.5832,1.5832,1.5832,1.5832,1.5832,1.5832,1.5832,1.5832,1.5832,1.5967,0.0,0.0,0.0,0.0,0.0,0.0,0.0,0.0,0.0,0.0,0.0,0.0,0.0,0.0,0.0,0.0,0.0,0.0,0.0,0.0,0.0,0.0,0.0,0.0,0.0,0.0,0.0,0.0,0.2413,0.3715,0.4016,0.6426,0.7736,0.8038,0.8038,0.8038,0.8038,0.8038,0.8038,0.8038,0.8038,0.8038,0.8038,0.8038,0.8038,0.8038,0.8038,0.8038,0.8038,0.8038,0.8038,0.8038,0.8038,0.8038,0.8038,0.8038,0.8038,0.8038,0.8038,0.8038,0.8038,0.8038,0.9019,1.0667,1.3222,1.382,1.4136,1.512,1.5064,1.4863,1.4863,1.4616,1.4422,1.4422,1.4229,1.4062,1.3988,1.3981,1.3961,0.0,1.3881,1.3881,1.3881,1.3881,1.3908,0.0,0.0,1.4342,1.4416,1.4569,1.4576,1.4422,1.471,1.4963,1.519,1.5324,1.5504,1.5732,1.5798,1.5832,1.5832,1.5832,1.5832,1.5832,1.5832,1.5832,1.5832,1.5832,1.5832,1.5832,1.5832,1.5832,1.5832,1.5832,1.6386,1.7268,0.0,0.0,0.0,0.0,0.0,0.0,0.0,0.0,0.0,0.0,0.0,0.0,0.0,0.0,0.0,0.0,0.0,0.0,0.0,0.0,0.0,0.0,0.0,0.0,0.0,0.0,0.0303,0.0907,0.3015,0.4316,0.492,0.703,0.8038,0.8038,0.8038,0.8038,0.8038,0.8038,0.8038,0.8038,0.8038,0.8038,0.8038,0.8038,0.8038,0.8038,0.8038,0.8038,0.8038,0.8038,0.8038,0.8038,0.8038,0.8038,0.8038,0.8038,0.8038,0.8038,0.8038,0.8038,0.8137,0.8726,1.0382,1.2129,1.3584,1.4248,1.4722,1.5404,1.5364,1.5164,1.5164,1.4923,1.4723,1.4723,1.4589,1.4442,1.4302,1.4282,1.4235,1.4102,1.4088,1.4135,1.4269,1.4282,1.4342,1.4476,1.4636,0.0,1.4723,1.5003,1.5023,1.473,1.501,1.5237,1.5398,1.5524,1.5671,1.5832,1.5832,1.5832,1.5832,1.5832,1.5832,1.5832,1.5832,1.5832,1.5832,1.5832,1.5832,1.5832,1.5832,1.5832,1.5825,1.648,1.7218,1.8142,0.0,0.0,0.0,0.0,0.0,0.0,0.0,0.0,0.0,0.0,0.0,0.0,0.0,0.0,0.0,0.0,0.0,0.0,0.0,0.0,0.0,0.0,0.0,0.0,0.0,0.0202,0.0907,0.2013,0.3516,0.492,0.6029,0.7335,0.8038,0.8038,0.8038,0.8038,0.8038,0.8038,0.8038,0.8038,0.8038,0.8038,0.8038,0.8038,0.8038,0.8038,0.8038,0.8038,0.8038,0.8038,0.8038,0.8038,0.8038,0.8038,0.8038,0.8038,0.8038,0.8038,0.8038,0.8137,0.8627,0.9998,1.2134,1.3974,1.4166,1.5045,1.5832,1.5832,1.5631,1.5464,1.5464,1.5224,1.503,1.503,1.499,1.4877,1.4623,0.0,1.4496,1.4249,1.4222,1.4315,1.4563,1.4589,1.4689,1.4943,1.5003,1.503,1.503,1.5304,1.5351,1.5104,1.5331,1.5464,1.5464,1.5705,1.5832,1.5832,1.5832,1.5832,1.5832,1.5832,1.5832,1.5832,1.5832,1.5832,1.5832,1.5832,1.5832,1.5832,1.5832,1.5832,1.5927,1.7095,1.7844,1.8502,0.0,0.0,0.0,0.0,0.0,0.0,0.0,0.0,0.0,0.0,0.0,0.0,0.0,0.0,0.0,0.0,0.0,0.0,0.0,0.0,0.0,0.0,0.0,0.0,0.0,0.1109,0.1812,0.2013,0.4522,0.5827,0.6029,0.7335,0.8038,0.8038,0.8038,0.8038,0.8038,0.8038,0.8038,0.8038,0.8038,0.8038,0.8038,0.8038,0.8038,0.8038,0.8038,0.8038,0.8038,0.8038,0.8038,0.8038,0.8038,0.8038,0.8038,0.8038,0.8038,0.8038,0.8038,0.8825,0.9998,1.1263,1.2716,1.4166,1.5242,1.5635,1.5832,1.5832,1.5792,1.5758,1.5758,1.5524,1.5331,1.5331,1.5124,1.495,1.4903,0.0,1.4877,1.483,1.483,1.485,1.489,1.4897,1.4917,1.4963,1.519,1.5331,1.5331,1.5605,1.5745,1.5698,1.5738,1.5758,1.5758,1.5805,1.5832,1.5832,1.5832,1.5832,1.5832,1.5832,1.5832,1.5832,1.5832,1.5832,1.5832,1.5832,1.5832,1.5832,1.5832,1.5832,1.5858,1.6299,1.718,1.826,0.0,0.0,0.0,0.0,0.0,0.0,0.0,0.0,0.0,0.0,0.0,0.0,0.0,0.0,0.0,0.0,0.0,0.0,0.0,0.0,0.0,0.0,0.0,0.0303,0.1109,0.1711,0.2716,0.4121,0.5427,0.6331,0.7132,0.7736,0.8038,0.8038,0.8038,0.8038,0.8038,0.8038,0.8038,0.8038,0.8038,0.8038,0.8038,0.8038,0.8038,0.8038,0.8038,0.8038,0.8038,0.8038,0.8038,0.8038,0.8038,0.8038,0.8038,0.8038,0.8528,0.9118,0.9118,1.0578,1.2231,1.2813,1.3974,1.5045,1.5635,1.5832,1.5832,1.5832,1.5832,1.5832,1.5832,1.5718,1.5631,1.5631,1.5518,1.5378,1.5217,1.5197,1.5137,1.4983,1.4963,1.5023,1.5177,1.5197,1.5264,1.5418,1.5558,1.5631,1.5631,1.5758,1.5832,1.5832,1.5832,1.5832,1.5832,1.5832,1.5832,1.5832,1.5832,1.5832,1.5832,1.5832,1.5832,1.5832,1.5832,1.5832,1.5832,1.5832,1.5832,1.5832,1.5832,1.5925,1.6182,1.698,1.7916,1.8837,0.0,0.0,0.0,0.0,0.0,0.0,0.0,0.0,0.0,0.0,0.0,0.0,0.0,0.0,0.0,0.0,0.0,0.0,0.0,0.0,0.0,0.0,0.0,0.0609,0.1925,0.2319,0.3618,0.6029,0.6331,0.7033,0.8038,0.8038,0.8038,0.8038,0.8038,0.8038,0.8038,0.8038,0.8038,0.8038,0.8038,0.8038,0.8038,0.8038,0.8038,0.8038,0.8038,0.8038,0.8038,0.8038,0.8038,0.8038,0.8038,0.8038,0.8038,0.8038,0.9118,1.0391,1.0096,1.194,1.3878,1.3878,1.4854,1.5832,1.5832,1.5832,1.5832,1.5832,1.5832,1.5832,1.5832,1.5832,1.5832,1.5832,0.0,1.5752,1.5531,1.5498,1.5418,1.519,1.5164,1.5251,1.5478,1.5498,1.5591,1.5812,1.5832,1.5832,1.5832,1.5832,1.5832,1.5832,1.5832,1.5832,1.5832,1.5832,1.5832,1.5832,1.5832,1.5832,1.5832,1.5832,1.5832,1.5832,1.5832,1.5832,1.5832,1.5832,1.5832,1.5838,1.5905,1.6072,1.6384,1.7483,1.8229,1.8853,0.0,0.0,0.0,0.0,0.0,0.0,0.0,0.0,0.0,0.0,0.0,0.0,0.0,0.0,0.0,0.0,0.0,0.0,0.0,0.0,0.0,0.0,0.0,0.0621,0.1962,0.3244,0.452,0.6029,0.7235,0.7939,0.8038,0.8038,0.8038,0.8038,0.8038,0.8038,0.8038,0.8038,0.8038,0.8038,0.8038,0.8038,0.8038,0.8038,0.8038,0.8038,0.8038,0.8038,0.8038,0.8038,0.8038,0.8038,0.8038,0.8038,0.8038,0.8038,0.9801,1.1458,1.0293,1.194,1.3878,1.3878,1.4854,1.5832,1.5832,1.5832,1.5832,1.5832,1.5832,1.5832,1.5832,1.5832,1.5832,1.5832,0.0,0.0,1.5798,1.5798,1.5792,1.5765,1.5765,1.5772,1.5798,1.5798,1.5805,1.5832,1.5832,1.5832,1.5832,1.5832,1.5832,1.5832,1.5832,1.5832,1.5832,1.5832,1.5832,1.5832,1.5832,1.5832,1.5832,1.5832,1.5832,1.5832,1.5832,1.5832,1.5832,1.5832,1.5832,1.5852,1.6132,1.6253,1.6339,1.6982,1.7313,1.7387,0.0,0.0,0.0,0.0,0.0,0.0,0.0,0.0,0.0,0.0,0.0,0.0,0.0,0.0,0.0,0.0,0.0,0.0,0.0,0.0,0.0,0.0,0.0,0.1054,0.3362,0.386,0.5298,0.7586,0.8107,0.8313,0.8313,0.8313,0.8313,0.8313,0.8313,0.8313,0.8313,0.8313,0.8313,0.8313,0.8313,0.8313,0.8313,0.8313,0.8313,0.8313,0.8313,0.8313,0.8313,0.8313,0.8313,0.8313,0.8313,0.8313,0.8296,0.8208,0.9991,1.175,1.1268,1.3108,1.5045,1.5045,1.5439,1.5832,1.5832,1.5832,1.5832,1.5832,1.5832,1.5832,1.5832,1.5832,1.5832,1.5832,0.0,1.5832,1.5832,1.5832,1.5832,1.5832,1.5832,1.5832,1.5832,1.5832,1.5832,1.5832,1.5832,1.5832,1.5832,1.5832,1.5832,1.5832,1.5832,1.5832,1.5832,1.5832,1.5832,1.5832,1.5832,1.5832,1.5832,1.5832,1.5832,1.5832,1.5832,1.5832,1.5845,1.6025,1.6106,1.6132,1.6426,1.6653,1.684,1.717,1.7268,1.7533,0.0,0.0,0.0,0.0,0.0,0.0,0.0,0.0,0.0,0.0,0.0,0.0,0.0,0.0,0.0,0.0,0.0,0.0,0.0,0.0,0.0,0.0,0.0431,0.1824,0.4171,0.468,0.6147,0.8482,0.8482,0.8482,0.8482,0.8482,0.8482,0.8482,0.8482,0.8482,0.8482,0.8482,0.8482,0.8482,0.8482,0.8482,0.8482,0.8482,0.8482,0.8482,0.8482,0.8482,0.8482,0.8482,0.8482,0.8482,0.8482,0.8482,0.8462,0.8367,0.977,1.1458,1.1458,1.3335,1.5467,1.5777,1.5832,1.5832,1.5832,1.5832,1.5832,1.5832,1.5832,1.5832,1.5832,1.5832,1.5832,1.5832,1.5832,1.5832,1.5832,1.5832,1.5832,1.5832,1.5832,1.5832,1.5832,1.5832,1.5832,1.5832,1.5832,1.5832,1.5832,1.5832,1.5832,1.5832,1.5832,1.5832,1.5832,1.5832,1.5832,1.5832,1.5832,1.5832,1.5832,1.5832,1.5832,1.5832,1.5925,1.5972,1.5992,1.6286,1.6413,1.644,1.6727,1.6967,1.7161,1.7248,1.7415,1.7786,0.0,0.0,0.0,0.0,0.0,0.0,0.0,0.0,0.0,0.0,0.0,0.0,0.0,0.0,0.0,0.0,0.0,0.0,0.0,0.0,0.0,0.0,0.1433,0.2837,0.4139,0.5672,0.7209,0.8486,0.8486,0.8486,0.8486,0.8486,0.8486,0.8486,0.8486,0.8486,0.8486,0.8486,0.8486,0.8486,0.8486,0.8486,0.8486,0.8486,0.8486,0.8486,0.8486,0.8486,0.8486,0.8486,0.8486,0.8486,0.8486,0.8486,0.8482,0.8482,0.9414,1.0443,1.0443,1.2392,1.4725,1.5582,1.5832,1.5832,1.5832,1.5832,1.5832,1.5832,1.5832,1.5832,1.5832,1.5832,1.5832,1.5832,1.5832,1.5832,1.5832,1.5832,1.5832,1.5832,1.5832,1.5832,1.5832,1.5832,1.5832,1.5832,1.5832,1.5832,1.5832,1.5832,1.5832,1.5832,1.5832,1.5832,1.5832,1.5832,1.5832,1.5832,1.5832,1.5832,1.5832,1.5832,1.5832,1.5852,1.6146,1.6279,1.6299,1.6587,1.6707,1.674,1.7041,1.7154,1.7188,1.7475,1.7582,1.7786,0.0,0.0,0.0,0.0,0.0,0.0,0.0,0.0,0.0,0.0,0.0,0.0,0.0,0.0,0.0,0.0,0.0,0.0,0.0,0.0,0.0448,0.1454,0.2004,0.3328,0.5874,0.6396,0.7368,0.8801,0.8801,0.8801,0.8801,0.8801,0.8801,0.8801,0.8801,0.8801,0.8801,0.8801,0.8801,0.8801,0.8801,0.8801,0.8801,0.8801,0.8801,0.8801,0.8801,0.8801,0.8801,0.8801,0.8801,0.8801,0.8801,0.8726,0.8642,0.8642,0.9504,1.0443,1.0443,1.1676,1.3244,1.4335,1.5344,1.6086,1.5879,1.5832,1.5832,1.5832,1.5832,1.5832,1.5832,1.5832,1.5832,1.5832,1.5832,1.5832,1.5832,1.5832,1.5832,1.5832,1.5832,1.5832,1.5832,1.5832,1.5832,1.5832,1.5832,1.5832,1.5832,1.5832,1.5832,1.5832,1.5832,1.5832,1.5832,1.5832,1.5832,1.5832,1.5832,1.5939,1.6139,1.6139,1.6253,1.6453,1.654,1.6573,1.66,1.6894,1.7014,1.7048,1.7341,1.7455,1.7462,1.7549,1.7582,1.7786,0.0,0.0,0.0,0.0,0.0,0.0,0.0,0.0,0.0,0.0,0.0,0.0,0.0,0.0,0.0,0.0,0.0,0.0,0.0,0.056,0.1566,0.3018,0.3687,0.4801,0.67,0.726,0.8042,0.894,0.894,0.894,0.894,0.894,0.894,0.894,0.894,0.894,0.894,0.894,0.894,0.894,0.894,0.894,0.894,0.894,0.894,0.894,0.894,0.894,0.894,0.894,0.894,0.894,0.894,0.8876,0.8801,0.8801,0.9266,0.9823,0.9823,1.0767,1.1983,1.2592,1.4188,1.569,1.6115,1.6086,1.6005,1.6005,1.5912,1.5832,1.5832,1.5832,1.5832,1.5832,1.5832,1.5832,1.5832,1.5832,1.5832,1.5832,1.5832,1.5832,1.5832,1.5832,1.5832,1.5832,1.5832,1.5832,1.5832,1.5939,1.6005,1.6005,1.6112,1.6179,1.6179,1.6179,1.6119,1.6005,1.6119,1.6266,1.644,1.644,1.654,1.6714,1.6834,1.6881,1.6907,1.7201,1.7321,1.7335,1.7515,1.7582,1.7582,1.7582,1.7582,1.7786,0.0,0.0,0.0,0.0,0.0,0.0,0.0,0.0,0.0,0.0,0.0,0.0,0.0,0.0,0.0,0.0,0.0,0.0,0.0,0.1343,0.2905,0.447,0.5919,0.6811,0.6924,0.8266,0.894,0.894,0.894,0.894,0.894,0.894,0.894,0.894,0.894,0.894,0.894,0.894,0.894,0.894,0.894,0.894,0.894,0.894,0.894,0.894,0.894,0.894,0.894,0.894,0.894,0.894,0.894,0.894,0.894,0.894,0.894,0.894,0.894,0.9915,1.0849,1.0795,1.2606,1.4808,1.6205,1.6295,1.6208,1.6313,1.6092,1.5905,1.5905,1.5905,1.5905,1.5905,1.5905,1.5899,1.5872,1.5872,1.5858,1.5832,1.5852,1.5872,1.5872,1.5892,1.5905,1.5905,1.5905,1.5905,1.5905,1.6166,1.6313,1.6313,1.6567,1.6707,1.6707,1.6734,1.66,1.6319,1.658,1.672,1.6747,1.6747,1.676,1.68,1.7068,1.7188,1.7208,1.7475,1.7582,1.7582,1.7582,1.7582,1.7582,1.7582,1.7582,1.7786,0.0,0.0,0.0,0.0,0.0,0.0,0.0,0.0,0.0,0.0,0.0,0.0,0.0,0.0,0.0,0.0,0.0,0.0,0.0,0.1343,0.2905,0.447,0.5919,0.726,0.838,0.8716,0.894,0.894,0.894,0.894,0.894,0.894,0.894,0.894,0.894,0.894,0.894,0.894,0.894,0.894,0.894,0.894,0.894,0.894,0.894,0.894,0.894,0.894,0.894,0.894,0.894,0.894,0.894,0.894,0.894,0.894,0.894,0.894,0.894,0.9158,0.9691,1.0732,1.2304,1.3768,1.4742,1.4915,1.5181,1.6407,1.656,1.6513,1.6513,1.6513,1.6513,1.6513,1.6513,1.6433,1.6206,1.6179,1.6092,1.5852,1.6039,1.6179,1.6179,1.638,1.6513,1.6513,1.6513,1.6513,1.6513,1.658,1.6613,1.6613,1.6673,1.6707,1.6707,1.6941,1.6907,1.6613,1.6673,1.6827,1.7054,1.7054,1.7174,1.7395,1.7462,1.7488,1.7495,1.7555,1.7582,1.7582,1.7582,1.7582,1.7582,1.7582,1.7582,1.7786,0.0,0.0,0.0,0.0,0.0,0.0,0.0,0.0,0.0,0.0,0.0,0.0,0.0,0.0,0.0,0.0,0.0,0.0336,0.1008,0.246,0.4023,0.5475,0.6924,0.8152,0.8937,0.894,0.894,0.894,0.894,0.894,0.894,0.894,0.894,0.894,0.894,0.894,0.894,0.894,0.894,0.894,0.894,0.894,0.894,0.894,0.894,0.894,0.894,0.894,0.894,0.894,0.894,0.894,0.894,0.894,0.894,0.894,0.894,0.894,0.894,0.894,0.9047,0.9805,1.1214,1.2665,1.4548,1.5342,1.5979,1.6813,1.6807,1.6707,1.6707,1.6707,1.6707,1.6707,1.6707,1.6653,1.65,1.648,1.6426,1.6266,1.6386,1.648,1.648,1.6613,1.6707,1.6707,1.6707,1.6707,1.6707,1.684,1.6914,1.6914,1.7048,1.7121,1.7121,1.7275,1.7275,1.7121,1.7121,1.7208,1.7355,1.7355,1.7442,1.7582,1.7582,1.7582,1.7582,1.7582,1.7582,1.7582,1.7582,1.7582,1.7582,1.7582,1.7582,1.7681,0.0,0.0,0.0,0.0,0.0,0.0,0.0,0.0,0.0,0.0,0.0,0.0,0.0,0.0,0.0,0.0,0.0224,0.0896,0.2124,0.3911,0.5475,0.67,0.8152,0.894,0.894,0.894,0.894,0.894,0.894,0.894,0.894,0.894,0.894,0.894,0.894,0.894,0.894,0.894,0.894,0.894,0.894,0.894,0.894,0.894,0.894,0.894,0.894,0.894,0.894,0.894,0.894,0.894,0.894,0.894,0.894,0.894,0.894,0.894,0.894,0.894,0.894,0.894,1.0241,1.2077,1.4449,1.6002,1.7008,1.7221,1.7027,1.6854,1.6854,1.6854,1.6854,1.6854,1.6854,1.684,1.6787,1.678,1.676,1.6714,1.6747,1.68,1.6854,1.6854,1.6854,1.6854,1.6854,1.6854,1.6854,1.7088,1.7228,1.7228,1.7455,1.7582,1.7582,1.7582,1.7582,1.7582,1.7582,1.7582,1.7582,1.7582,1.7582,1.7582,1.7582,1.7582,1.7582,1.7582,1.7582,1.7582,1.7582,1.7582,1.7582,1.7582,1.7582,1.7582,0.0,0.0,0.0,0.0,0.0,0.0,0.0,0.0,0.0,0.0,0.0,0.0,0.0,0.0,0.0,0.0,0.1119,0.2012,0.2235,0.4801,0.6478,0.6702,0.8152,0.894,0.894,0.894,0.894,0.894,0.894,0.894,0.894,0.894,0.894,0.894,0.894,0.894,0.894,0.894,0.894,0.894,0.894,0.894,0.894,0.894,0.894,0.894,0.894,0.894,0.894,0.894,0.894,0.894,0.894,0.894,0.894,0.894,0.894,0.894,0.894,0.894,0.894,0.894,1.1,1.3048,1.348,1.4641,1.6013,1.7305,1.7488,1.7468,1.7468,1.7468,1.7468,1.7468,1.7468,1.7375,1.7128,1.7088,1.6994,1.6734,1.6934,1.7188,1.7442,1.7468,1.7468,1.7468,1.7468,1.7468,1.7468,1.7502,1.7522,1.7522,1.7562,1.7582,1.7582,1.7582,1.7582,1.7582,1.7582,1.7582,1.7582,1.7582,1.7582,1.7582,1.7582,1.7582,1.7582,1.7582,1.7582,1.7582,1.7582,1.7582,1.7582,1.7582,1.7582,1.7582,0.0,0.0,0.0,0.0,0.0,0.0,0.0,0.0,0.0,0.0,0.0,0.0,0.0,0.0,0.0346,0.1266,0.1955,0.3101,0.4818,0.6196,0.7345,0.8151,0.884,0.9188,0.9188,0.9188,0.9188,0.9188,0.9022,0.894,0.894,0.894,0.894,0.894,0.894,0.894,0.894,0.894,0.894,0.894,0.894,0.8988,0.9059,0.9059,0.911,0.9188,0.9188,0.9188,0.9188,0.9188,0.9188,0.9188,0.9188,0.9188,0.9167,0.9083,0.9059,0.9042,0.896,0.894,0.894,0.894,1.0457,1.2295,1.3156,1.4341,1.5849,1.7259,1.7582,1.7582,1.7582,1.7582,1.7582,1.7582,1.7582,1.7542,1.7408,1.7388,1.7341,1.7208,1.7308,1.7442,1.7569,1.7582,1.7582,1.7582,1.7582,1.7582,1.7582,1.7582,1.7582,1.7582,1.7582,1.7582,1.7582,1.7582,1.7582,1.7582,1.7582,1.7582,1.7582,1.7582,1.7582,1.7582,1.7582,1.7582,1.7582,1.7582,1.7582,1.7582,1.7582,1.7582,1.7582,1.7582,1.7582,1.7582]},{"header":{"parameterUnit":"m.s-1","parameterCategory":1,"la1":30.6,"la2":28.766,"lo1":-90.7593,"lo2":-88.6598,"dy":0.0162,"dx":0.0183,"nx":116,"ny":114,"refTime":"2024-03-07T06:00:00:Z","depth":0,"parameterNumber":3,"parameterNumberName":"V-component_of_WINDS"},"data":[0.0,0.0,0.0,0.0,0.0,0.0,0.0,0.0,0.0,0.0,0.0,0.0,0.0,0.0,0.0,0.0,0.0,0.0,0.0,0.0,0.0,0.0,0.0,0.0,0.0,0.0,0.0,0.0,0.0,0.0,0.0,0.0,0.0,0.0,0.0,0.0,0.0,0.0,0.0,0.0,0.0,0.0,0.0,0.0,0.0,0.0,0.0,0.0,0.0,0.0,0.0,0.0,0.0,0.0,0.0,0.0,0.0,0.0,0.0,0.0,0.0,0.0,0.0,0.0,0.0,0.0,0.0,0.0,0.0,0.0,0.0,0.0,0.0,0.0,0.0,0.0,0.0,0.0,0.0,0.0,0.0,0.0,0.0,0.0,0.0,0.0,0.0,0.0,0.0,0.0,0.0,0.0,0.0,0.0,0.0,0.0,0.0,0.0,0.0,0.0,0.0,0.0,0.0,0.0,0.0,0.0,0.0,0.0,0.0,0.0,0.0,0.0,0.0,0.0,0.0,0.0,0.0,0.0,0.0,0.0,0.0,0.0,0.0,0.0,0.0,0.0,0.0,0.0,0.0,0.0,0.0,0.0,0.0,0.0,0.0,0.0,0.0,0.0,0.0,0.0,0.0,0.0,0.0,0.0,0.0,0.0,0.0,0.0,0.0,0.0,0.0,0.0,0.0,0.0,0.0,0.0,0.0,0.0,0.0,0.0,0.0,0.0,0.0,0.0,0.0,0.0,0.0,0.0,0.0,0.0,0.0,0.0,0.0,0.0,0.0,0.0,0.0,0.0,0.0,0.0,0.0,0.0,0.0,0.0,0.0,0.0,0.0,0.0,0.0,0.0,0.0,0.0,0.0,0.0,0.0,0.0,0.0,0.0,0.0,0.0,0.0,0.0,0.0,0.0,0.0,0.0,0.0,0.0,0.0,0.0,0.0,0.0,0.0,0.0,0.0,0.0,0.0,0.0,0.0,0.0,0.0,0.0,0.0,0.0,0.0,0.0,0.0,0.0,0.0,0.0,0.0,0.0,0.0,0.0,0.0,0.0,0.0,0.0,0.0,0.0,0.0,0.0,0.0,0.0,0.0,0.0,0.0,0.0,0.0,0.0,0.0,0.0,0.0,0.0,0.0,0.0,0.0,0.0,0.0,0.0,0.0,0.0,0.0,0.0,0.0,0.0,0.0,0.0,0.0,0.0,0.0,0.0,0.0,0.0,0.0,0.0,0.0,0.0,0.0,0.0,0.0,0.0,0.0,0.0,0.0,0.0,0.0,0.0,0.0,0.0,0.0,0.0,0.0,0.0,0.0,0.0,0.0,0.0,0.0,0.0,0.0,0.0,0.0,0.0,0.0,0.0,0.0,0.0,0.0,0.0,0.0,0.0,0.0,0.0,0.0,0.0,0.0,0.0,0.0,0.0,0.0,0.0,0.0,0.0,0.0,0.0,0.0,0.0,0.0,0.0,0.0,0.0,0.0,0.0,0.0,0.0,0.0,0.0,0.0,0.0,0.0,0.0,0.0,0.0,0.0,0.0,0.0,0.0,0.0,0.0,0.0,0.0,0.0,0.0,0.0,0.0,0.0,0.0,0.0,0.0,0.0,0.0,0.0,0.0,0.0,0.0,0.0,0.0,0.0,0.0,0.0,0.0,0.0,0.0,0.0,0.0,0.0,0.0,0.0,0.0,0.0,0.0,0.0,0.0,0.0,0.0,0.0,0.0,0.0,0.0,0.0,0.0,0.0,0.0,0.0,0.0,0.0,0.0,0.0,0.0,0.0,0.0,0.0,0.0,0.0,0.0,0.0,0.0,0.0,0.0,0.0,0.0,0.0,0.0,0.0,0.0,0.0,0.0,0.0,0.0,0.0,0.0,0.0,0.0,0.0,0.0,0.0,0.0,0.0,0.0,0.0,0.0,0.0,0.0,0.0,0.0,0.0,0.0,0.0,0.0,0.0,0.0,0.0,0.0,0.0,0.0,0.0,0.0,0.0,0.0,0.0,0.0,0.0,0.0,0.0,0.0,0.0,0.0,0.0,0.0,0.0,0.0,0.0,0.0,0.0,0.0,0.0,0.0,0.0,0.0,0.0,0.0,0.0,0.0,0.0,0.0,0.0,0.0,0.0,0.0,0.0,0.0,0.0,0.0,0.0,0.0,0.0,0.0,0.0,0.0,0.0,0.0,0.0,0.0,0.0,0.0,0.0,0.0,0.0,0.0,0.0,0.0,0.0,0.0,0.0,0.0,0.0,0.0,0.0,0.0,0.0,0.0,0.0,0.0,0.0,0.0,0.0,0.0,0.0,0.0,0.0,0.0,0.0,0.0,0.0,0.0,0.0,0.0,0.0,0.0,0.0,0.0,0.0,0.0,0.0,0.0,0.0,0.0,0.0,0.0,0.0,0.0,0.0,0.0,0.0,0.0,0.0,0.0,0.0,0.0,0.0,0.0,0.0,0.0,0.0,0.0,0.0,0.0,0.0,0.0,0.0,0.0,0.0,0.0,0.0,0.0,0.0,0.0,0.0,0.0,0.0,0.0,0.0,0.0,0.0,0.0,0.0,0.0,0.0,0.0,0.0,0.0,0.0,0.0,0.0,0.0,0.0,0.0,0.0,0.0,0.0,0.0,0.0,0.0,0.0,0.0,0.0,0.0,0.0,0.0,0.0,0.0,0.0,0.0,0.0,0.0,0.0,0.0,0.0,0.0,0.0,0.0,0.0,0.0,0.0,0.0,0.0,0.0,0.0,0.0,0.0,0.0,0.0,0.0,0.0,0.0,0.0,0.0,0.0,0.0,0.0,0.0,0.0,0.0,0.0,0.0,0.0,0.0,0.0,0.0,0.0,0.0,0.0,0.0,0.0,0.0,0.0,0.0,0.0,0.0,0.0,0.0,0.0,0.0,0.0,0.0,0.0,0.0,0.0,0.0,0.0,0.0,0.0,0.0,0.0,0.0,0.0,0.0,0.0,0.0,0.0,0.0,0.0,0.0,0.0,0.0,0.0,0.0,0.0,0.0,0.0,0.0,0.0,0.0,0.0,0.0,0.0,0.0,0.0,0.0,0.0,0.0,0.0,0.0,0.0,0.0,0.0,0.0,0.0,0.0,0.0,0.0,0.0,0.0,0.0,0.0,0.0,0.0,0.0,0.0,0.0,0.0,0.0,0.0,0.0,0.0,0.0,0.0,0.0,0.0,0.0,0.0,0.0,0.0,0.0,0.0,0.0,0.0,0.0,0.0,0.0,0.0,0.0,0.0,0.0,0.0,0.0,0.0,0.0,0.0,0.0,0.0,0.0,0.0,0.0,0.0,0.0,0.0,0.0,0.0,0.0,0.0,0.0,0.0,0.0,0.0,0.0,0.0,0.0,0.0,0.0,0.0,0.0,0.0,0.0,0.0,0.0,0.0,0.0,0.0,0.0,0.0,0.0,0.0,0.0,0.0,0.0,0.0,0.0,0.0,0.0,0.0,0.0,0.0,0.0,0.0,0.0,0.0,0.0,0.0,0.0,0.0,0.0,0.0,0.0,0.0,0.0,0.0,0.0,0.0,0.0,0.0,0.0,0.0,0.0,0.0,0.0,0.0,0.0,0.0,0.0,0.0,0.0,0.0,0.0,0.0,0.0,0.0,0.0,0.0,0.0,0.0,0.0,0.0,0.0,0.0,0.0,0.0,0.0,0.0,0.0,0.0,0.0,0.0,0.0,0.0,0.0,0.0,0.0,0.0,0.0,0.0,0.0,0.0,0.0,0.0,0.0,0.0,0.0,0.0,0.0,0.0,0.0,0.0,0.0,0.0,0.0,0.0,0.0,0.0,0.0,0.0,0.0,0.0,0.0,0.0,0.0,0.0,0.0,0.0,0.0,0.0,0.0,0.0,0.0,0.0,0.0,0.0,0.0,0.0,0.0,0.0,0.0,0.0,0.0,0.0,0.0,0.0,0.0,0.0,0.0,0.0,0.0,0.0,0.0,0.0,0.0,0.0,0.0,0.0,0.0,0.0,0.0,0.0,0.0,0.0,0.0,0.0,0.0,0.0,0.0,0.0,0.0,0.0,0.0,0.0,0.0,0.0,0.0,0.0,0.0,0.0,0.0,0.0,0.0,0.0,0.0,0.0,0.0,0.0,0.0,0.0,0.0,0.0,0.0,0.0,0.0,0.0,0.0,0.0,0.0,0.0,0.0,0.0,0.0,0.0,0.0,0.0,0.0,0.0,0.0,0.0,0.0,0.0,0.0,0.0,0.0,0.0,0.0,0.0,0.0,0.0,0.0,0.0,0.0,0.0,0.0,0.0,0.0,0.0,0.0,0.0,0.0,0.0,0.0,0.0,0.0,0.0,0.0,0.0,0.0,0.0,0.0,0.0,0.0,0.0,0.0,0.0,0.0,0.0,0.0,0.0,0.0,0.0,0.0,0.0,0.0,0.0,0.0,0.0,0.0,0.0,0.0,0.0,0.0,0.0,0.0,0.0,0.0,0.0,0.0,0.0,0.0,0.0,0.0,0.0,0.0,0.0,0.0,0.0,0.0,0.0,0.0,0.0,0.0,0.0,0.0,0.0,0.0,0.0,0.0,0.0,0.0,0.0,0.0,0.0,0.0,0.0,0.0,0.0,0.0,0.0,0.0,0.0,0.0,0.0,0.0,0.0,0.0,0.0,0.0,0.0,0.0,0.0,0.0,0.0,0.0,0.0,0.0,0.0,0.0,0.0,0.0,0.0,0.0,0.0,0.0,0.0,0.0,0.0,0.0,0.0,0.0,0.0,0.0,0.0,0.0,0.0,0.0,0.0,0.0,0.0,0.0,0.0,0.0,0.0,0.0,0.0,0.0,0.0,0.0,0.0,0.0,0.0,0.0,0.0,0.0,0.0,0.0,0.0,0.0,0.0,0.0,0.0,0.0,0.0,0.0,0.0,0.0,0.0,0.0,0.0,0.0,0.0,0.0,0.0,0.0,0.0,0.0,0.0,0.0,0.0,0.0,0.0,0.0,0.0,0.0,0.0,0.0,0.0,0.0,0.0,0.0,0.0,0.0,0.0,0.0,0.0,0.0,0.0,0.0,0.0,0.0,0.0,0.0,0.0,0.0,0.0,0.0,0.0,0.0,0.0,0.0,0.0,0.0,0.0,0.0,0.0,0.0,0.0,0.0,0.0,0.0,0.0,0.0,0.0,0.0,0.0,0.0,0.0,0.0,0.0,0.0,0.0,0.0,0.0,0.0,0.0,0.0,0.0,0.0,0.0,0.0,0.0,0.0,0.0,0.0,0.0,0.0,0.0,0.0,0.0,0.0,0.0,0.0,0.0,0.0,0.0,0.0,0.0,0.0,0.0,0.0,0.0,0.0,0.0,0.0,0.0,0.0,0.0,0.0,0.0,0.0,0.0,0.0,0.0,0.0,0.0,0.0,0.0,0.0,0.0,0.0,0.0,0.0,0.0,0.0,0.0,0.0,0.0,0.0,0.0,0.0,0.0,0.0,0.0,0.0,0.0,0.0,0.0,0.0,0.0,0.0,0.0,0.0,0.0,0.0,0.0,0.0,0.0,0.0,0.0,0.0,0.0,0.0,0.0,0.0,0.0,0.0,0.0,0.0,0.0,0.0,0.0,0.0,0.0,0.0,0.0,0.0,0.0,0.0,0.0,0.0,0.0,0.0,0.0,0.0,0.0,0.0,0.0,0.0,0.0,0.0,0.0,0.0,0.0,0.0,0.0,0.0,0.0,0.0,0.0,0.0,0.0,0.0,0.0,0.0,0.0,0.0,0.0,0.0,0.0,0.0,0.0,0.0,0.0,0.0,0.0,0.0,0.0,0.0,0.0,0.0,0.0,0.0,0.0,0.0,0.0,0.0,0.0,0.0,0.0,0.0,0.0,0.0,0.0,0.0,0.0,0.0,0.0,0.0,0.0,0.0,0.0,0.0,0.0,0.0,0.0,0.0,0.0,0.0,0.0,0.0,0.0,0.0,0.0,0.0,0.0,0.0,0.0,0.0,0.0,0.0,0.0,0.0,0.0,0.0,0.0,0.0,0.0,0.0,0.0,0.0,0.0,0.0,0.0,0.0,0.0,0.0,0.0,0.0,0.0,0.0,0.0,0.0,0.0,0.0,0.0,0.0,0.0,0.3367,0.0,0.0,0.0,0.0,0.0,0.0,0.0,0.0,0.0,0.0,0.0,0.0,0.0,0.0,0.0,0.0,0.0,0.0,0.0,0.0,0.0,0.0,0.0,0.0,0.0,0.0,0.0,1.5227,1.5564,1.536,1.595,1.6328,1.6328,1.6611,1.6822,1.7027,1.7856,1.8485,1.892,1.9448,2.0077,2.0771,2.1068,0.0,0.0,0.0,0.0,0.0,0.0,0.0,0.0,0.0,0.0,0.0,0.0,0.0,0.0,0.0,0.0,0.0,0.0,0.0,0.0,0.0,0.0,0.0,0.0,0.0,0.0,0.0,0.0,0.0,0.0,0.0,0.0,0.0,0.0,0.0,0.0,0.0,0.0,0.0,0.0,0.0,0.0,0.0,0.0,0.0,0.0,0.0,0.0,0.0,0.0,0.0,0.0,0.0,0.0,0.0,0.0,0.0,0.0,0.0,0.0,0.0,0.0,0.0,0.0,0.0,0.0,0.0,0.0,0.0,0.0,0.0,0.0,0.0,0.4405,0.0,0.0,0.0,0.0,0.0,0.0,0.0,0.0,0.0,0.0,0.0,0.0,0.0,0.0,0.0,0.0,0.0,0.0,0.0,0.0,0.0,0.0,0.0,1.3769,1.3901,1.4246,1.4658,1.4932,1.5032,1.5459,1.5758,1.5846,1.6424,1.6782,1.683,1.7884,1.8669,1.9187,1.9673,2.0528,2.1737,0.0,0.0,0.0,0.0,0.0,0.0,0.0,0.0,0.0,0.0,0.0,0.0,0.0,0.0,0.0,0.0,0.0,0.0,0.0,0.0,0.0,0.0,0.0,0.0,0.0,0.0,0.0,0.0,0.0,0.0,0.0,0.0,0.0,0.0,0.0,0.0,0.0,0.0,0.0,0.0,0.0,0.0,0.0,0.0,0.0,0.0,0.0,0.0,0.0,0.0,0.0,0.0,0.0,0.0,0.0,0.0,0.0,0.0,0.0,0.0,0.0,0.0,0.0,0.0,0.0,0.0,0.0,0.5259,0.5303,0.5308,0.5394,0.5437,0.548,0.5647,0.5647,0.5437,0.5437,0.0,0.0,0.0,0.0,0.0,0.0,0.0,0.0,0.0,0.0,0.0,0.0,0.0,0.0,0.0,0.0,0.0,0.0,0.0,0.0,0.0,1.3301,1.3288,1.3357,1.3802,1.4279,1.4719,1.5154,1.5577,1.6034,1.6562,1.7044,1.7394,1.8619,1.9593,2.0291,2.1384,2.2029,2.2197,2.226,2.2192,2.2061,2.2088,0.0,0.0,0.0,0.0,0.0,0.0,0.0,0.0,0.0,0.0,0.0,0.0,0.0,0.0,0.0,0.0,0.0,0.0,0.0,0.0,0.0,0.0,0.0,0.0,0.0,0.0,0.0,0.0,0.0,0.0,0.0,0.0,0.0,0.0,0.0,0.0,0.0,0.0,0.0,0.0,0.0,0.0,0.0,0.8382,0.7627,0.0,0.0,0.0,0.0,0.0,0.0,0.0,0.0,0.0,0.0,0.0,0.0,0.0,0.6533,0.6037,0.6023,0.578,0.5262,0.5293,0.5303,0.5308,0.583,0.6093,0.6136,0.7105,0.0,0.6093,0.6093,0.0,0.0,0.0,0.0,0.0,0.0,0.0,0.0,0.0,0.0,0.0,0.0,0.0,0.0,0.0,0.0,0.0,0.0,0.0,0.0,0.0,1.3047,1.3198,1.3198,1.3648,1.4139,1.4651,1.5059,1.5538,1.6104,1.67,1.7242,1.7719,1.8906,1.9916,2.0774,2.154,2.1899,2.1899,2.218,2.231,2.231,2.231,2.2517,2.2905,2.2399,0.0,0.0,0.0,0.0,0.0,0.0,0.0,0.0,0.0,0.0,0.0,0.0,0.0,0.0,0.0,0.0,0.0,0.0,0.0,0.0,0.0,0.0,0.0,0.0,0.0,0.0,0.0,0.0,0.0,0.0,0.0,0.0,0.0,0.0,0.0,0.0,0.0,0.0,0.0,0.9872,0.9177,0.858,0.911,0.9336,0.0,0.0,0.0,0.0,0.0,0.0,0.0,0.0,0.0,0.7799,0.7896,0.7848,0.7599,0.7808,0.781,0.7537,0.7785,0.787,0.7914,0.815,0.829,0.829,0.8842,0.879,0.8268,0.7779,0.7724,0.7972,0.0,0.0,0.0,0.0,0.775,0.7446,0.0,0.0,0.0,0.0,0.0,0.0,0.0,0.0,0.0,0.0,0.0,0.0,1.2508,1.2908,1.3248,1.3433,1.3766,1.4237,1.4917,1.5233,1.5631,1.6182,1.6815,1.7353,1.7731,1.8972,2.0085,2.1099,2.1519,2.1805,2.197,2.2314,2.2498,2.2482,2.2601,2.2655,2.2599,2.2599,2.2738,0.0,0.0,0.0,0.0,0.0,0.0,0.0,0.0,0.0,0.0,0.0,0.0,0.0,0.0,0.0,0.0,0.0,0.0,0.0,0.0,0.0,0.0,0.0,0.0,0.0,0.0,0.0,0.0,0.0,0.0,0.0,0.0,0.0,0.0,0.0,0.0,0.0,0.0,1.0508,0.9922,0.9626,1.0047,1.0236,0.0,0.0,0.0,0.0,0.0,0.0,0.9518,0.9215,0.898,0.8857,0.894,0.8989,0.8989,0.9298,0.9475,0.9475,0.9743,0.9914,0.9922,1.0086,1.0041,0.9914,1.0436,1.0526,1.0258,0.9275,0.8857,0.8848,0.8749,0.8716,0.8716,0.8716,0.8333,0.7818,0.0,0.0,0.0,0.0,0.0,0.0,0.0,0.0,0.0,0.0,0.0,1.2508,1.2508,1.2908,1.3446,1.3997,1.4083,1.4538,1.5583,1.5686,1.5939,1.6451,1.7011,1.73,1.7341,1.8806,2.0137,2.1275,2.1745,2.2316,2.2933,2.2952,2.2952,2.2987,2.3422,2.3133,2.2321,2.2321,2.2338,2.236,0.0,0.0,0.0,0.0,0.0,0.0,0.0,0.0,0.0,0.0,0.0,0.0,0.0,0.0,0.0,0.0,0.0,0.0,0.0,0.0,0.0,0.0,0.0,0.0,0.0,0.0,0.0,0.0,0.0,0.0,0.0,0.0,0.0,0.0,0.0,0.0,0.0,0.0,0.0,1.0908,1.057,0.0,0.0,0.0,0.0,1.0283,1.0283,1.004,0.9518,0.983,0.9818,0.9265,0.9642,0.9818,0.9818,0.988,0.9888,0.9888,0.9905,0.9914,0.9914,1.0561,1.0526,1.0004,1.1704,1.2141,1.1508,0.9925,0.9265,0.9231,0.8848,0.8716,0.8716,0.8716,0.8357,0.7912,0.0,0.0,0.0,0.0,0.0,0.0,0.0,0.0,1.0534,1.0534,1.1132,1.1531,1.1531,1.227,1.2974,1.3545,1.3889,1.4563,1.5618,1.5693,1.5944,1.6497,1.668,1.7416,1.8817,2.0226,2.1265,2.1929,2.2129,2.2327,2.254,2.2848,2.2992,2.2992,2.3189,2.3038,2.2769,2.2922,2.2733,2.231,2.2398,2.2436,0.0,0.0,0.0,0.0,0.0,0.0,0.0,0.0,0.0,0.0,0.0,0.0,0.0,0.0,0.0,0.0,0.0,0.0,0.0,0.0,0.0,0.0,0.0,0.0,0.0,0.0,0.0,0.0,0.0,0.0,0.0,0.0,0.0,0.0,0.0,0.0,0.0,1.233,1.1984,0.0,1.1292,1.1542,1.1748,1.18,1.1783,1.1873,1.2001,1.2171,1.2121,1.1944,1.2057,1.2139,1.2139,1.2428,1.2583,1.2593,1.2872,1.3006,1.3006,1.3244,1.3233,1.3006,1.3694,1.3839,1.3583,1.275,1.2213,1.1892,1.1364,1.1148,1.1106,1.0705,1.045,1.0236,0.0,0.0,0.0,0.0,0.0,0.0,0.0,0.0,1.0079,1.0283,1.0562,1.0819,1.0981,1.1871,1.2738,1.3521,1.4057,1.4794,1.5906,1.5969,1.622,1.6785,1.6986,1.7804,1.9419,2.0342,2.1199,2.2094,2.2094,2.2334,2.276,2.3072,2.3188,2.3203,2.3378,2.3438,2.3383,2.372,2.3287,2.2417,2.2608,2.253,2.2243,0.0,0.0,0.0,0.0,0.0,0.0,0.0,0.0,0.0,0.0,0.0,0.0,0.0,0.0,0.0,0.0,0.0,0.0,0.0,0.0,0.0,0.0,0.0,0.0,0.0,0.0,0.0,0.0,0.0,0.0,0.0,0.0,0.0,0.0,0.0,1.3331,1.3331,1.3144,1.2878,1.259,1.3047,1.3362,1.3409,1.3394,1.3575,1.3931,1.4068,1.4151,1.4151,1.4287,1.4506,1.4713,1.5026,1.5286,1.552,1.5556,1.5707,1.5926,1.5892,1.5892,1.5926,1.6336,1.6284,1.5867,1.5632,1.5187,1.46,1.3312,1.2815,1.2742,1.2105,1.1804,1.1533,0.0,0.0,0.0,0.0,0.0,0.0,0.0,0.9804,0.9686,1.0205,1.0205,1.0379,1.0933,1.1806,1.2839,1.3971,1.4488,1.5247,1.6367,1.6448,1.6754,1.7375,1.794,1.8499,1.9015,1.9074,1.9931,2.17,2.17,2.2367,2.3551,2.3551,2.3595,2.3638,2.4142,2.4272,2.4116,2.4593,2.3965,2.2701,2.3231,2.2987,2.2344,0.0,0.0,0.0,0.0,0.0,0.0,0.0,0.0,0.0,0.0,0.0,0.0,0.0,0.0,0.0,0.0,0.0,0.0,0.0,0.0,0.0,0.0,0.0,0.0,0.0,0.0,0.0,0.0,0.0,0.0,0.0,0.0,0.0,1.5345,1.446,1.392,1.392,1.4012,1.4088,1.4101,1.4683,1.5054,1.5067,1.508,1.5093,1.5131,1.5504,1.5718,1.5743,1.6182,1.6726,1.739,1.739,1.7715,1.8336,1.7696,1.7743,1.8336,1.8308,1.8295,1.8428,1.9581,1.9398,1.8275,1.8342,1.7951,1.7122,1.4482,1.3451,1.341,1.2774,1.2254,1.162,0.0,0.0,0.0,0.0,0.0,0.0,0.0,0.9279,0.9119,0.9646,0.9707,0.9903,1.0418,1.1321,1.2173,1.2885,1.3678,1.4551,1.5533,1.5637,1.6115,1.7135,1.8681,1.9559,1.97,2.0543,2.1203,2.1695,2.1695,2.213,2.2934,2.2934,2.3201,2.3595,2.3752,2.3773,2.3758,2.4295,2.4179,2.3713,2.4044,2.3748,2.3105,0.0,0.0,0.0,0.0,0.0,0.0,0.0,0.0,0.0,0.0,0.0,0.0,0.0,0.0,0.0,0.0,0.0,0.0,0.0,0.0,0.0,0.0,0.0,0.0,0.0,0.0,0.0,0.0,0.0,0.0,0.0,1.7667,1.7428,1.6452,1.6342,1.6352,1.6352,1.657,1.663,1.6273,1.6414,1.6564,1.6678,1.6682,1.7049,1.7922,1.8072,1.8371,1.8862,1.8997,1.916,1.9323,1.9323,1.9405,1.9625,1.9435,1.9435,1.9625,1.9595,1.9595,1.9625,1.9972,1.9889,1.958,1.9594,1.9512,1.9053,1.612,1.4987,1.49,1.4339,1.4026,1.3835,0.0,0.0,0.0,0.0,0.0,0.0,0.0,0.8918,0.8878,0.9439,0.9518,0.9725,1.0244,1.1105,1.1912,1.2457,1.3484,1.4439,1.5237,1.5992,1.6814,0.0,0.0,1.9917,1.9917,2.0548,2.1037,2.1342,2.1342,2.1629,2.23,2.2558,2.2875,2.3231,2.3465,2.3709,2.3964,2.4266,2.4595,2.4891,2.5061,2.4605,2.3816,2.3511,2.3122,2.2773,2.2703,2.2695,2.2772,2.3323,0.0,0.0,0.0,0.0,0.0,0.0,0.0,0.0,0.0,0.0,0.0,0.0,0.0,0.0,0.0,0.0,0.0,0.0,0.0,0.0,0.0,0.0,0.0,0.0,1.866,1.8663,1.8576,1.8241,1.7994,1.7994,1.8418,1.861,1.8358,1.8862,1.9216,1.931,1.9609,2.0087,2.0771,2.0816,2.0995,2.1396,2.1411,2.153,2.1813,2.1813,2.1839,2.1883,2.1671,2.1557,2.1542,2.1281,2.1339,2.1585,2.1585,2.1441,2.1169,2.0955,2.0713,0.0,0.0,0.0,0.0,0.0,1.587,1.5432,0.0,0.0,0.0,0.0,0.0,0.0,0.0,0.8602,0.8797,0.9359,0.9478,0.9725,1.0244,1.1087,1.1814,1.2362,1.3559,1.4591,1.5328,1.6908,0.0,1.8958,1.9509,1.9798,1.9798,1.9798,2.0105,2.0696,2.0696,2.1015,2.1615,2.2207,2.2558,2.274,2.3246,2.3794,2.4307,2.4307,2.4934,2.5888,2.5852,2.5327,2.4557,2.3799,2.346,2.3333,2.2821,2.2669,2.2746,2.3045,0.0,0.0,0.0,0.0,0.0,0.0,0.0,0.0,0.0,0.0,0.0,0.0,0.0,0.0,0.0,0.0,0.0,0.0,0.0,0.0,0.0,0.0,0.0,0.0,1.9957,2.0312,2.1028,2.0246,1.9535,1.9332,2.0004,2.0432,2.0328,2.1553,2.2328,2.2244,2.2822,2.3224,2.3304,0.0,0.0,0.0,0.0,2.3686,2.4328,2.4328,2.4369,2.4471,2.393,2.3734,2.3752,2.3216,2.326,2.3794,2.3794,2.3492,2.2923,2.2391,2.1784,2.115,2.0387,2.0087,1.9943,1.8806,1.77,1.6688,0.0,0.0,0.0,0.0,0.0,0.0,0.0,0.8036,0.8242,0.8797,0.9239,0.9725,1.0244,1.1087,1.165,1.177,1.2936,1.4286,1.5669,1.6635,1.7665,1.8718,1.9426,1.9798,1.9798,1.9798,1.985,2.0003,2.0003,2.0346,2.0979,2.114,2.1704,2.2694,2.283,2.3187,2.3752,2.3752,2.4389,2.5335,2.4855,2.4968,2.5304,2.456,2.39,2.3291,2.2632,2.2527,2.2721,2.2772,2.3189,2.3696,2.3557,0.0,0.0,0.0,0.0,0.0,0.0,0.0,0.0,0.0,0.0,0.0,0.0,0.0,0.0,0.0,0.0,0.0,0.0,0.0,0.0,2.0101,2.0965,2.171,2.187,2.2729,2.2797,2.1284,2.2565,2.3192,2.2285,2.3245,2.3682,2.3052,2.3112,2.3449,2.3975,2.4007,2.4264,2.4804,2.4804,2.4884,2.5013,2.5013,2.5,2.5051,0.0,0.0,2.491,2.4776,2.4776,2.491,2.491,2.4831,2.4665,2.4147,2.3591,2.2903,2.0898,2.0087,2.0087,1.9842,1.9239,1.8557,0.0,0.0,0.0,0.0,0.0,0.0,0.0,0.8521,0.8797,0.9079,0.9558,1.0,1.0283,1.1087,1.1606,1.1606,1.2754,1.4417,1.6591,1.6891,1.7658,1.9178,1.9579,1.9798,1.9798,1.9798,1.9798,1.9798,1.9798,1.9952,2.0295,2.0646,2.1307,2.2193,2.2543,2.3024,2.3595,2.3595,2.4074,2.4776,2.4776,2.5034,2.5318,2.4846,2.4355,2.3849,2.3122,2.2694,2.2527,2.2643,2.3045,2.3477,2.3649,2.3472,2.3124,0.0,0.0,0.0,0.0,0.0,0.0,0.0,0.0,0.0,0.0,0.0,0.0,0.0,0.0,2.0383,2.0196,0.0,2.1359,2.169,2.2334,2.3088,2.3916,2.4706,2.4644,2.3182,2.4184,2.4795,2.4218,2.5023,2.5443,2.5023,2.5331,2.5705,2.6029,2.6063,2.6101,2.6266,2.6232,2.6144,2.5928,2.5928,2.5819,2.5615,2.5615,2.5449,2.5221,2.5221,2.5221,2.5221,2.5221,2.5221,2.5182,2.491,2.4632,2.4287,2.2802,2.1888,2.1393,2.1393,2.0962,2.0386,0.0,0.0,0.0,0.0,0.0,0.0,0.0,0.9159,0.9518,0.9518,0.9961,1.0283,1.0283,1.1018,1.1577,1.1841,1.2918,1.4677,0.0,1.7198,1.7866,1.9722,1.9798,1.9798,1.9798,1.9798,1.9798,1.9798,1.9798,1.9798,1.9798,2.0497,2.1077,2.1568,2.236,2.2965,2.3421,2.3551,2.3921,2.443,2.4752,2.5012,2.5179,2.4801,2.4547,2.4264,2.3617,2.2936,2.2349,2.2625,2.2873,2.3165,2.35,2.3447,2.3268,2.3101,2.2278,0.0,0.0,0.0,0.0,0.0,0.0,0.0,0.0,0.0,2.0531,2.0477,2.1015,2.1434,2.1286,2.1935,2.2776,2.3468,2.3813,2.4516,2.6046,2.639,2.6184,2.5294,2.578,2.6111,2.5989,2.6708,2.7157,2.7077,2.7599,2.7897,2.7897,2.7897,2.7754,2.7426,2.7426,2.7272,2.6939,2.6939,2.6757,2.6351,2.6351,2.616,2.5717,2.5717,2.5697,2.5603,2.5508,2.5449,2.5335,2.5335,2.5297,2.5144,2.4736,2.3918,2.3039,2.292,2.2438,2.1899,0.0,0.0,0.0,0.0,0.0,0.0,0.0,0.0,0.9518,0.9518,0.9961,1.0283,1.0283,1.0703,1.1455,1.2637,1.3351,0.0,1.6894,1.7198,1.8004,1.9709,1.9798,1.9798,1.9798,1.9798,1.9798,1.9798,1.9798,1.9798,1.9798,2.0497,2.0845,2.0944,2.2175,2.274,2.2844,2.3377,2.3921,2.4348,2.3948,2.4348,2.5141,2.4452,2.4016,2.3769,2.3479,2.2936,2.2349,2.2625,2.2721,2.2822,2.3141,2.3428,2.3506,2.2779,0.0,2.2803,2.2077,2.1488,2.0958,2.0507,2.0387,2.0375,0.0,0.0,2.1288,2.1062,2.1643,2.2193,2.2149,2.2816,2.3647,2.4497,2.5238,2.6065,2.7025,2.7765,2.8185,2.8046,2.8122,2.7942,2.735,2.8068,2.8439,2.807,2.795,2.7897,2.7897,2.7897,2.7869,2.784,2.784,2.7811,2.7783,2.7783,2.7736,2.7707,2.7707,2.766,2.7584,2.7584,2.7404,2.7049,2.6691,2.6297,2.5924,2.5924,2.5615,2.5182,2.5128,2.4736,2.4142,2.3666,2.3098,2.2603,0.0,0.0,0.0,0.0,0.0,0.0,0.0,0.0,0.0,0.9961,1.0157,1.0283,1.0283,1.0879,1.1719,1.2793,1.3467,0.0,1.6412,1.6991,1.7922,1.9258,1.9635,1.9798,1.9798,1.9798,1.9798,1.9798,1.9798,1.9798,1.9798,2.0105,2.0633,2.1342,2.1866,2.2529,2.3246,2.3508,2.3709,2.3948,2.4032,2.4158,2.4287,2.4473,2.3997,2.3284,2.3357,2.2936,0.0,0.0,2.2573,2.2721,2.2855,2.3259,2.362,2.3313,2.3139,0.0,2.235,2.2073,0.0,0.0,2.1797,2.1806,2.1813,2.2068,2.2281,2.2228,2.2886,2.3438,2.3303,2.4015,2.4849,0.0,2.6078,2.6823,2.8154,2.8651,2.9039,2.9555,2.9612,2.9391,2.8821,2.9119,2.9265,2.9087,2.8997,2.8901,2.8772,2.8772,2.8603,2.821,2.8183,2.8102,2.7897,2.7897,2.7897,2.7897,2.7897,2.7897,2.7897,2.7897,2.7678,2.7272,2.6873,2.659,2.6401,2.6401,2.628,2.6052,2.5762,2.554,2.5221,2.4389,2.3694,2.3231,0.0,0.0,0.0,0.0,0.0,0.0,0.0,0.0,0.0,0.0,1.0283,1.0283,1.0283,1.0979,1.1734,1.2498,0.0,0.0,0.0,1.6951,1.7983,1.8958,1.9522,1.9798,1.9798,1.9798,1.9798,1.9798,1.9798,1.9798,1.9798,2.0181,2.0706,2.1472,2.1993,2.2651,2.3377,2.3508,2.3595,2.3623,2.3849,2.3773,2.3557,2.3923,2.3562,2.2939,2.329,2.2936,0.0,0.0,2.2473,2.2599,2.2669,2.3045,2.3414,2.3414,2.3316,2.3107,2.2741,0.0,0.0,2.2831,2.2835,2.284,2.2902,2.3071,2.3252,2.332,2.4014,2.4568,2.4438,2.5163,2.6008,2.6754,2.7123,2.7817,2.9282,2.9481,2.9698,3.0321,3.0398,3.0273,2.9931,2.9832,2.978,2.978,2.9731,2.9644,2.9494,2.9474,2.9256,2.8782,2.8682,2.8554,2.8324,2.8237,2.8201,2.8201,2.8201,2.8201,2.8201,2.8093,2.788,2.7572,2.721,2.7019,2.7019,2.6906,2.6873,2.6808,2.6367,2.6104,2.5888,2.5144,2.4511,2.4032,0.0,0.0,0.0,0.0,0.0,0.0,0.0,0.0,0.0,0.0,0.0,0.0,0.0,1.0674,1.1113,0.0,0.0,0.0,0.0,1.7206,1.8394,1.8958,1.9522,1.9798,1.9798,1.9798,1.9798,1.9798,1.9798,1.9798,1.985,2.1037,2.1342,2.0894,2.2711,2.3246,2.2754,2.3334,2.3595,2.355,2.2993,2.2996,2.3211,2.2394,2.2295,2.27,2.3197,0.0,0.0,0.0,2.2527,2.2377,2.2625,2.2721,0.0,2.2721,2.3171,0.0,0.0,0.0,2.3386,2.2987,2.2894,2.2914,2.2989,2.3559,2.4085,2.414,2.4816,2.5375,2.544,2.6174,2.7031,2.7915,2.8643,2.9433,3.0324,3.0402,3.0359,3.0398,3.0398,3.0398,0.0,3.0136,2.9999,2.9999,2.9813,2.9696,2.9696,2.9696,2.9678,2.966,2.9474,2.9353,2.9353,2.9112,2.897,2.897,2.897,2.897,2.8952,2.8565,2.8394,2.8368,2.802,2.7869,2.784,2.7439,2.7272,2.7241,2.6841,2.6401,2.6013,2.5961,2.5615,2.5067,0.0,0.0,0.0,0.0,0.0,0.0,0.0,0.0,0.0,0.0,0.0,0.0,0.0,0.0,0.0,0.0,0.0,0.0,0.0,1.6526,1.7739,1.7928,1.8807,1.9284,1.9284,1.9623,1.9798,1.9798,2.0258,2.0446,2.0497,2.1328,2.1819,2.2081,2.274,2.3098,2.3334,2.3508,2.3355,2.3008,2.3097,2.2915,2.2623,2.2467,2.2459,2.2602,0.0,0.0,0.0,2.2398,2.236,2.231,2.2415,2.2563,2.2797,2.3236,2.3522,2.3767,0.0,0.0,2.435,2.4296,2.4399,2.4508,2.4587,2.4787,2.4987,2.5047,2.5281,2.5642,2.6253,2.6602,2.7255,2.868,2.9148,2.9615,3.0391,3.0482,3.0472,3.0472,3.0472,0.0,0.0,0.0,0.0,3.0267,3.0215,3.008,2.9908,2.9908,2.9845,2.9713,2.9625,2.9607,2.9607,2.9373,2.9267,2.9267,2.9089,2.8994,2.8994,2.859,2.8394,2.8376,2.8047,2.7897,2.7897,2.7736,2.753,2.7303,2.7147,2.6824,2.647,2.647,2.6367,2.6087,0.0,0.0,0.0,0.0,0.0,0.0,0.0,0.0,0.0,0.0,0.0,0.0,0.0,0.0,0.0,0.0,0.0,0.0,0.0,0.0,1.7074,1.7074,1.8141,1.8819,1.902,1.9359,1.961,1.9798,2.0446,2.0795,2.0795,2.1677,2.23,2.2694,2.2702,2.2921,2.3251,2.3011,2.2697,2.2334,2.2343,2.2308,2.2196,2.2068,2.2227,0.0,0.0,0.0,0.0,2.231,2.231,2.231,2.231,2.2426,2.2678,2.3323,2.3522,2.3656,2.4319,2.4591,2.4727,2.4891,2.5053,2.5205,2.5245,2.5299,2.5383,2.5453,2.5408,2.5564,2.6212,2.6798,2.7532,2.8676,2.9393,2.9962,3.0467,3.051,3.0503,3.0525,3.0537,3.054,0.0,0.0,0.0,3.043,3.0449,3.0344,3.015,3.0136,3.0095,2.9943,2.9864,2.9813,2.9813,2.9607,2.9513,2.9513,2.9334,2.9206,2.9115,2.8879,2.8713,2.859,2.8386,2.8281,2.8281,2.8129,2.7851,2.75,2.7365,2.7051,2.6691,2.6691,2.686,2.6944,0.0,0.0,0.0,0.0,0.0,0.0,0.0,0.0,0.0,0.0,0.0,0.0,0.0,0.0,0.0,0.0,0.0,0.0,0.0,0.0,0.0,1.6471,1.7526,1.838,1.8932,1.897,1.9233,1.9723,2.0419,2.0703,2.0752,2.203,2.2608,2.2624,2.2623,2.2664,2.2634,2.1964,2.1665,2.1629,2.1,2.1245,2.1871,2.1231,0.0,0.0,0.0,0.0,0.0,0.0,0.0,0.0,0.0,2.2321,2.247,2.3038,2.323,2.3419,2.4265,2.4495,2.4561,2.4746,2.4891,2.4998,2.4998,2.5141,2.5284,2.5352,2.5224,2.5176,0.0,0.0,2.7865,2.8112,2.9472,3.053,3.0586,3.0558,3.0524,0.0,0.0,0.0,0.0,0.0,0.0,3.0582,0.0,3.0472,3.0402,3.0448,3.0467,3.0456,3.0265,3.0147,3.0147,2.9945,2.9827,2.9846,2.9846,2.9739,2.9544,2.9524,2.9379,2.915,2.9127,2.9104,2.908,2.8717,2.8362,2.8021,2.7592,2.7203,2.6843,2.6843,2.7266,2.7703,0.0,0.0,0.0,0.0,0.0,0.0,0.0,0.0,0.0,0.0,0.0,0.0,0.0,0.0,0.0,0.0,0.0,0.0,0.0,0.0,0.0,0.0,0.0,0.0,0.0,0.0,0.0,0.0,0.0,1.9522,1.9569,2.0795,2.134,2.1382,2.1791,2.1934,2.1934,2.1769,2.156,2.1418,0.0,2.1341,2.0904,0.0,0.0,0.0,0.0,0.0,0.0,0.0,0.0,0.0,0.0,2.2781,2.3038,2.3455,2.3566,2.3692,2.4153,2.4393,2.4512,2.4559,2.4712,2.4855,2.4855,2.4883,2.4936,2.4956,2.4911,2.5082,0.0,0.0,0.0,2.8666,2.9827,0.0,3.0605,3.0636,0.0,3.068,0.0,3.071,3.0811,3.0813,0.0,0.0,3.0962,3.0552,3.0482,3.1091,3.1427,3.1371,3.1892,3.2154,3.2154,3.1966,3.1773,3.1561,3.1561,3.1543,3.1487,3.1271,3.1142,3.1076,3.088,3.0797,3.0779,3.0686,3.0438,3.0104,2.9644,2.9193,2.8817,2.8507,2.8518,2.8653,0.0,0.0,0.0,0.0,0.0,0.0,0.0,0.0,0.0,0.0,0.0,0.0,0.0,0.0,0.0,0.0,0.0,0.0,0.0,0.0,0.0,0.0,0.0,0.0,0.0,0.0,0.0,0.0,0.0,0.0,0.0,2.0581,2.1263,2.1248,2.1262,2.1261,2.1216,2.0768,0.0,0.0,0.0,0.0,0.0,0.0,0.0,0.0,0.0,0.0,0.0,0.0,0.0,2.2923,2.2923,2.3045,2.3277,2.3588,0.0,2.3774,2.4113,2.4284,2.4375,2.4375,2.4528,2.467,2.467,2.4731,2.4804,2.4804,2.4731,0.0,0.0,0.0,0.0,0.0,0.0,0.0,3.0596,3.0661,3.0721,0.0,3.0792,0.0,3.0898,3.125,3.164,0.0,3.1542,3.1348,3.1674,3.2122,3.2348,3.2315,3.2697,3.2891,3.2891,3.2779,3.266,3.2515,3.2515,3.2397,3.2203,3.205,3.1843,3.1617,0.0,3.1384,3.1384,3.1384,3.1206,3.0856,3.0592,3.0277,2.9884,2.9657,2.9644,2.9761,0.0,0.0,0.0,0.0,0.0,0.0,0.0,0.0,0.0,0.0,0.0,0.0,0.0,0.0,0.0,0.0,0.0,0.0,0.0,0.0,0.0,0.0,0.0,0.0,0.0,0.0,0.0,0.0,0.0,0.0,0.0,0.0,0.0,0.0,0.0,0.0,0.0,0.0,0.0,0.0,0.0,0.0,0.0,0.0,0.0,0.0,0.0,0.0,0.0,0.0,2.2437,2.3277,2.3277,2.33,2.3392,2.3692,2.3774,2.3816,2.4113,2.419,2.419,2.419,2.4339,2.4461,2.4461,2.461,2.4716,2.4716,0.0,2.4528,2.4731,2.6069,2.7233,2.7561,0.0,3.0401,3.0592,3.0673,3.0769,3.0898,3.0898,3.0898,3.0898,3.1699,3.2246,3.2344,3.2356,3.2599,3.317,3.3254,3.3334,3.3413,3.3323,3.3256,3.3256,3.3256,3.3256,3.3256,3.3256,3.3,3.2581,3.2543,3.2264,3.1771,3.1721,3.1715,3.1715,3.1715,3.1561,3.1292,3.1237,3.1002,3.067,3.0609,3.07,3.0855,0.0,0.0,0.0,0.0,0.0,0.0,0.0,0.0,0.0,0.0,1.2282,1.1957,0.0,0.0,0.0,0.0,0.0,0.0,0.0,0.0,0.0,0.0,0.0,0.0,0.0,0.0,0.0,0.0,0.0,0.0,0.0,0.0,0.0,0.0,0.0,0.0,0.0,0.0,0.0,0.0,0.0,0.0,0.0,0.0,0.0,0.0,0.0,0.0,0.0,0.0,2.19,2.361,2.361,2.3795,2.4054,2.4094,2.4113,2.4132,2.417,2.419,2.419,2.419,2.4228,2.4266,2.4266,2.4266,0.0,0.0,0.0,2.4321,2.4512,2.5471,0.0,2.7508,0.0,0.0,0.0,0.0,3.0878,0.0,0.0,0.0,0.0,0.0,0.0,0.0,0.0,3.396,3.3324,3.3899,3.4505,3.5079,3.5059,3.5064,3.5064,3.5064,3.5064,3.5064,3.5064,3.4894,3.4579,3.4377,3.4054,3.3696,3.3478,0.0,3.3385,3.3385,3.3358,3.3259,3.2933,3.2769,3.2649,3.224,3.188,3.1617,0.0,0.0,0.0,0.0,0.0,0.0,0.0,1.2442,1.2878,1.3749,1.3496,1.3213,1.3216,1.3408,1.3643,0.0,0.0,0.0,0.0,0.0,0.0,0.0,0.0,0.0,0.0,0.0,0.0,0.0,0.0,0.0,0.0,0.0,0.0,0.0,0.0,0.0,0.0,0.0,0.0,0.0,0.0,0.0,0.0,0.0,0.0,0.0,0.0,0.0,0.0,0.0,2.1425,2.2772,2.3191,2.3727,2.419,2.419,2.419,2.419,2.419,2.419,2.419,2.419,2.419,2.419,2.419,0.0,0.0,0.0,0.0,2.4284,2.4591,0.0,0.0,0.0,0.0,0.0,0.0,0.0,0.0,0.0,0.0,0.0,0.0,0.0,0.0,0.0,0.0,3.5175,3.4721,3.4969,3.5258,3.555,3.5509,3.5493,3.5493,3.5493,3.5493,3.5493,3.5493,3.5369,3.5088,3.4813,3.4529,3.4195,3.3928,3.3807,3.3807,3.3807,3.3807,3.3762,3.3578,3.3522,3.3476,3.3255,3.2759,3.2161,0.0,0.0,0.0,0.0,0.0,0.0,0.0,1.2538,1.3134,1.4335,1.4596,1.4501,1.4181,1.4374,1.4501,0.0,0.0,0.0,0.0,0.0,0.0,0.0,0.0,0.0,0.0,0.0,0.0,0.0,0.0,0.0,0.0,0.0,0.0,0.0,0.0,0.0,0.0,0.0,0.0,0.0,0.0,0.0,0.0,0.0,0.0,0.0,0.0,0.0,0.0,0.0,2.0813,2.162,2.2281,2.3144,2.3933,2.3933,2.4061,2.419,2.419,2.419,2.4209,2.4247,2.4247,2.4284,2.4321,2.4339,0.0,0.0,2.4426,2.4426,2.4785,0.0,0.0,0.0,0.0,0.0,0.0,0.0,0.0,0.0,0.0,0.0,0.0,0.0,0.0,0.0,0.0,3.5996,3.5975,3.5797,3.5679,3.5591,3.554,3.5493,3.5493,3.5493,3.5493,3.5493,3.5493,3.5369,3.5088,3.4889,3.4614,3.4288,3.4012,3.3876,3.3876,3.3815,3.3807,3.3807,3.3807,3.3807,3.3825,3.399,3.3508,3.2749,0.0,0.0,0.0,0.0,0.0,0.0,0.0,1.2678,1.3134,1.4335,1.4814,1.5043,1.4982,1.469,1.4501,0.0,0.0,0.0,0.0,0.0,0.0,0.0,0.0,0.0,0.0,0.0,0.0,0.0,0.0,0.0,0.0,0.0,0.0,0.0,0.0,0.0,0.0,0.0,0.0,0.0,0.0,0.0,0.0,0.0,0.0,0.0,0.0,0.0,0.0,0.0,0.0,2.0631,2.0704,2.1823,2.3125,2.3125,0.0,0.0,2.419,2.419,2.4247,2.4428,2.4478,2.4528,2.47,0.0,0.0,2.4775,2.476,2.4785,2.4949,2.5043,0.0,0.0,0.0,0.0,0.0,0.0,0.0,0.0,0.0,0.0,0.0,0.0,0.0,0.0,0.0,3.5974,3.591,3.5772,3.5679,3.5591,3.554,3.5493,3.5493,3.5493,3.5493,3.5493,3.5493,3.5369,3.5105,3.507,3.4907,3.4632,3.4311,3.4152,0.0,3.3902,3.3807,3.3807,3.3807,3.3807,3.3899,3.4633,3.4292,3.3616,0.0,0.0,0.0,0.0,0.0,0.0,1.2834,1.3234,1.3899,1.5387,1.5739,1.5909,1.609,1.5991,1.5807,1.5608,0.0,0.0,0.0,0.0,0.0,0.0,0.0,0.0,0.0,0.0,0.0,0.0,0.0,0.0,0.0,0.0,0.0,0.0,0.0,0.0,0.0,0.0,0.0,0.0,0.0,0.0,0.0,0.0,0.0,0.0,0.0,0.0,0.0,0.0,0.0,0.0,1.9952,2.0804,0.0,0.0,2.3828,2.4559,2.4559,2.4559,2.4575,2.4654,2.4685,2.47,2.479,0.0,0.0,2.4904,2.4855,2.4869,2.513,2.5088,2.5195,0.0,0.0,0.0,0.0,0.0,0.0,0.0,0.0,0.0,0.0,0.0,0.0,0.0,0.0,3.5996,3.5951,3.5792,3.5689,3.5663,3.557,3.5493,3.5493,3.5493,3.5493,3.5493,3.5493,3.5446,3.5339,3.5155,3.5034,3.4907,3.4423,3.4498,0.0,3.4639,3.4835,3.5293,3.5293,3.5293,3.533,3.5661,3.5173,3.4376,0.0,0.0,0.0,0.0,0.0,1.1907,1.3361,1.385,1.4627,1.6249,1.6448,1.6528,1.6763,1.6892,1.685,1.6617,1.6712,0.0,0.0,0.0,0.0,0.0,0.0,0.0,0.0,0.0,0.0,0.0,0.0,0.0,0.0,0.0,0.0,0.0,0.0,0.0,0.0,0.0,0.0,0.0,0.0,0.0,0.0,0.0,0.0,0.0,0.0,0.0,0.0,0.0,0.0,0.0,0.0,0.0,0.0,0.0,2.3671,2.4469,2.4728,2.4804,2.4818,2.4855,2.4869,2.4883,0.0,0.0,2.4975,2.5065,2.5005,2.5031,2.5253,2.5173,2.5141,0.0,0.0,2.7976,0.0,0.0,0.0,0.0,0.0,0.0,0.0,0.0,0.0,0.0,3.5996,3.5996,3.5996,3.5806,3.5703,3.5703,3.5566,3.5493,3.5493,3.5493,3.5493,3.5493,3.5493,3.5608,3.5839,3.5668,3.572,3.5933,3.5331,3.5404,0.0,3.5559,3.5752,3.6303,3.6303,3.6303,3.6321,3.656,3.6005,3.5172,0.0,0.0,0.0,0.0,0.0,0.0,1.4016,1.4505,1.5192,1.6614,1.6789,1.6789,1.6789,1.7101,1.728,1.7296,1.6977,0.0,0.0,0.0,0.0,0.0,0.0,0.0,0.0,0.0,0.0,1.7789,1.8057,0.0,0.0,0.0,0.0,0.0,0.0,0.0,0.0,0.0,0.0,0.0,0.0,0.0,0.0,0.0,0.0,0.0,0.0,0.0,0.0,0.0,0.0,0.0,0.0,0.0,0.0,0.0,2.289,2.37,2.4563,2.4804,2.4828,2.4962,2.501,2.5046,0.0,0.0,2.5303,2.5303,2.5303,2.5303,2.5303,2.5303,2.5303,2.5303,0.0,0.0,0.0,0.0,0.0,0.0,0.0,0.0,0.0,0.0,0.0,0.0,3.5996,0.0,3.5996,3.5806,3.5703,3.5703,3.5566,3.5493,3.5493,3.5493,3.5493,3.5493,3.5493,3.593,3.6699,3.6666,3.7161,3.7939,3.7337,3.7071,0.0,3.6498,3.6285,3.6303,3.6303,3.6303,3.6395,3.7184,3.6819,3.6021,0.0,0.0,0.0,0.0,0.0,0.0,0.0,1.4658,1.5307,1.693,1.715,1.7224,1.7455,1.7589,1.7658,1.7658,1.7526,0.0,0.0,0.0,0.0,0.0,0.0,0.0,0.0,0.0,1.8351,1.8351,1.843,1.8469,1.8469,1.8547,0.0,0.0,0.0,0.0,0.0,0.0,0.0,0.0,0.0,0.0,0.0,0.0,0.0,0.0,0.0,0.0,0.0,0.0,0.0,0.0,0.0,0.0,0.0,2.2249,2.3244,0.0,2.4927,2.5138,2.5149,2.5192,2.5203,2.5214,2.5293,0.0,2.5303,2.5303,2.5303,2.5303,2.5303,2.5303,2.5495,2.6101,2.7159,0.0,0.0,0.0,0.0,0.0,0.0,0.0,0.0,0.0,0.0,3.5996,3.5996,3.5996,3.5996,3.5806,3.5703,3.5703,3.5566,3.5776,3.6315,3.6334,3.6622,3.7219,3.7219,3.7334,3.7584,3.7584,3.7738,3.7973,3.7356,3.7411,3.7872,3.7331,3.7441,3.7936,3.7936,3.7936,3.7973,3.823,3.7885,3.7291,0.0,0.0,0.0,0.0,0.0,0.0,0.0,1.4556,1.5108,1.6476,1.6664,1.6853,1.7332,1.748,1.7663,1.7932,1.804,0.0,0.0,0.0,0.0,0.0,0.0,0.0,0.0,1.8585,1.8585,1.8585,1.8715,1.8752,1.8752,1.8825,1.8895,1.8981,0.0,0.0,0.0,0.0,0.0,0.0,0.0,0.0,1.9871,0.0,0.0,0.0,0.0,0.0,0.0,0.0,0.0,0.0,0.0,0.0,0.0,0.0,2.3186,2.386,0.0,2.5303,2.5303,2.5303,2.5303,0.0,0.0,0.0,2.5303,2.5303,2.5303,2.5303,2.5303,2.5322,2.561,2.6458,2.7383,0.0,0.0,0.0,0.0,0.0,0.0,0.0,0.0,0.0,3.5996,3.5996,3.5996,3.5996,3.5953,3.6099,3.6188,3.6148,3.6014,3.6353,3.718,3.7199,3.7469,3.8007,3.8007,3.8161,3.8488,3.8488,3.8597,3.8769,3.8265,3.8267,0.0,3.8126,3.8248,3.8707,3.8707,3.8707,3.8707,3.8707,3.835,3.7893,0.0,0.0,0.0,0.0,0.0,0.0,0.0,1.4331,1.4748,1.5494,1.5615,1.5869,1.6567,1.6932,1.74,1.809,0.0,0.0,0.0,0.0,0.0,0.0,0.0,0.0,0.0,1.8695,1.8731,1.875,1.9057,1.9215,1.9249,1.9442,1.9586,1.9702,1.9702,0.0,0.0,0.0,0.0,0.0,1.9964,2.0012,0.0,0.0,0.0,0.0,0.0,0.0,0.0,0.0,0.0,0.0,0.0,0.0,0.0,0.0,0.0,0.0,0.0,2.5303,2.5303,2.5303,2.5303,2.5303,0.0,0.0,0.0,0.0,2.5303,2.5313,2.5313,2.5412,2.5762,2.6574,2.754,0.0,0.0,0.0,0.0,0.0,0.0,0.0,0.0,0.0,3.5996,3.5996,3.5996,3.5993,3.5981,3.6637,3.7023,3.7082,3.6948,3.7276,3.8084,3.8084,3.8123,3.818,3.818,3.8604,3.9392,3.9392,3.9646,0.0,3.9754,3.9414,0.0,3.8833,3.8707,3.8707,3.8707,3.8707,3.8707,3.8707,3.8382,3.7946,0.0,0.0,0.0,0.0,0.0,0.0,0.0,0.0,0.0,0.0,1.5733,1.5896,1.6068,1.6831,1.7398,0.0,0.0,0.0,0.0,0.0,0.0,0.0,0.0,0.0,0.0,1.9749,2.0124,2.0274,2.0967,2.1369,2.1526,2.1567,2.1292,2.0747,2.0747,0.0,0.0,0.0,0.0,0.0,2.0215,2.023,0.0,0.0,0.0,0.0,2.0385,2.0381,0.0,0.0,0.0,0.0,0.0,0.0,0.0,0.0,2.3338,2.4084,2.5043,0.0,2.5303,2.5303,2.5303,2.5303,0.0,0.0,0.0,0.0,0.0,2.5415,2.5322,2.5929,2.6728,2.7547,2.8463,0.0,0.0,0.0,0.0,0.0,0.0,0.0,0.0,0.0,3.5996,3.5996,3.5996,3.6247,3.6797,3.6929,3.7566,3.8764,3.8728,3.8796,3.8988,3.8988,3.9296,3.9912,3.9912,4.0008,4.0219,4.0219,4.0164,4.0081,3.9754,3.9414,3.9072,3.8833,3.8707,3.8707,3.8707,3.8707,3.8707,3.8707,3.8627,3.8496,0.0,0.0,0.0,0.0,0.0,0.0,0.0,0.0,0.0,0.0,0.0,1.526,1.6011,1.6639,0.0,0.0,0.0,0.0,0.0,0.0,0.0,0.0,0.0,0.0,1.9989,2.0415,2.0927,2.1492,2.191,2.219,2.23,2.23,2.2111,2.1764,2.1431,2.0871,0.0,0.0,0.0,0.0,2.0346,0.0,0.0,0.0,0.0,0.0,2.0435,2.0429,0.0,2.041,2.041,2.041,0.0,0.0,0.0,0.0,2.357,2.4412,2.5158,2.5357,2.5339,2.5303,2.5312,2.5339,2.5303,0.0,0.0,0.0,0.0,0.0,2.5924,0.0,0.0,2.8443,2.9124,0.0,0.0,0.0,0.0,0.0,0.0,0.0,0.0,0.0,3.5996,3.5996,3.5973,3.6286,3.7005,3.7335,3.8063,3.9303,3.9682,3.9835,3.9835,3.9835,4.0065,4.0489,4.0489,4.0489,4.0489,4.0489,4.0356,4.0081,3.9901,3.9645,3.9308,3.9017,3.8865,3.8884,3.8732,3.8707,3.8707,3.8707,3.8707,3.8707,0.0,0.0,0.0,0.0,0.0,0.0,0.0,0.0,0.0,0.0,0.0,0.0,0.0,0.0,0.0,0.0,0.0,0.0,0.0,0.0,0.0,0.0,0.0,1.9919,2.0774,2.1064,2.1642,2.2539,2.2641,2.2729,2.2754,2.2754,2.2711,2.2592,2.1844,2.1053,0.0,0.0,0.0,0.0,2.0418,0.0,0.0,0.0,0.0,0.0,0.0,0.0,0.0,2.0432,2.0432,2.0451,2.0588,0.0,0.0,0.0,0.0,0.0,2.5247,2.5421,2.542,2.533,2.5371,2.5394,2.5329,0.0,0.0,0.0,0.0,0.0,0.0,0.0,0.0,0.0,0.0,0.0,0.0,0.0,0.0,0.0,0.0,0.0,3.5937,3.5996,3.5996,3.5996,3.5942,3.6285,3.7155,3.7764,3.853,3.9446,4.0142,4.0489,4.0489,4.0489,4.0489,4.0489,4.0489,4.0489,4.0489,4.0489,4.0356,4.0101,0.0,0.0,3.9576,3.9238,3.9099,3.9072,3.8803,3.8707,3.8707,3.8707,3.8707,3.8707,0.0,0.0,0.0,0.0,0.0,0.0,0.0,0.0,0.0,0.0,0.0,0.0,0.0,0.0,0.0,0.0,0.0,0.0,0.0,0.0,0.0,0.0,2.0279,2.0634,2.0793,2.2294,2.3246,2.3568,2.4243,2.4664,2.483,2.483,2.4091,2.2737,2.1929,2.1108,2.0294,0.0,0.0,2.0395,2.045,0.0,0.0,0.0,0.0,0.0,0.0,0.0,0.0,2.0565,2.0565,2.0701,2.1443,0.0,0.0,0.0,0.0,0.0,2.5474,2.5535,2.5543,2.542,2.5434,2.5473,0.0,0.0,0.0,0.0,0.0,0.0,0.0,0.0,0.0,0.0,0.0,0.0,0.0,0.0,0.0,0.0,0.0,3.5859,3.5996,3.5996,3.5996,3.5996,3.5942,3.6538,3.8023,3.8113,3.8781,4.0273,4.0431,4.0489,4.0489,4.0489,4.0489,4.0489,4.0489,4.0489,4.0489,4.0489,4.0356,4.0101,0.0,3.9901,3.9576,3.9238,3.9099,3.9072,3.8803,3.8707,3.8707,3.8707,3.8707,3.8627,0.0,0.0,0.0,0.0,0.0,0.0,0.0,0.0,0.0,0.0,0.0,0.0,0.0,0.0,0.0,0.0,0.0,0.0,0.0,0.0,0.0,1.9809,2.1072,2.1777,2.1777,2.3025,2.3969,2.4617,2.4971,2.5214,2.5303,2.5339,2.4698,2.3516,2.2726,2.1886,2.1083,2.0633,2.0477,2.0511,0.0,0.0,0.0,0.0,0.0,0.0,0.0,0.0,0.0,0.0,2.0918,2.1367,2.1777,0.0,0.0,0.0,0.0,0.0,2.5567,2.5603,2.5633,2.5535,2.5535,2.5668,0.0,0.0,0.0,0.0,0.0,0.0,0.0,0.0,0.0,0.0,0.0,0.0,0.0,0.0,0.0,0.0,0.0,3.5996,3.5996,3.5996,3.5976,3.5948,3.5853,3.6495,3.8113,3.809,3.8805,4.0446,4.0489,4.0489,4.0489,4.0489,4.0489,4.0489,4.0489,4.0489,4.0489,4.0489,4.0422,4.0321,0.0,4.0139,3.984,3.9529,3.9264,3.9072,3.8803,3.8707,3.8707,3.8707,3.8707,3.8658,0.0,0.0,0.0,0.0,0.0,0.0,0.0,0.0,0.0,0.0,0.0,0.0,0.0,0.0,0.0,0.0,0.0,0.0,0.0,0.0,1.9858,1.9909,2.1672,2.263,2.2598,2.3616,2.453,2.5303,2.5303,2.5303,2.5321,2.5398,2.4982,2.4193,2.3383,2.2569,2.1739,2.0886,2.0543,2.0605,0.0,0.0,0.0,0.0,0.0,0.0,0.0,0.0,0.0,0.0,0.0,0.0,0.0,0.0,0.0,2.4648,2.5176,2.5683,2.5636,2.566,2.5742,2.589,0.0,0.0,2.6711,0.0,0.0,0.0,0.0,0.0,0.0,0.0,0.0,0.0,0.0,0.0,0.0,0.0,0.0,0.0,3.5996,3.5996,3.5996,3.5995,3.597,3.5903,3.5755,3.6384,3.8012,3.8047,3.8777,4.045,4.0489,4.0489,4.0489,4.0489,4.0489,4.0489,4.0489,4.0489,4.0489,4.0489,4.0489,4.0489,4.0489,4.0356,4.0081,3.9754,3.9389,3.9072,3.8803,3.8707,3.8707,3.8707,3.8817,3.8982,0.0,0.0,0.0,0.0,0.0,0.0,0.0,0.0,0.0,0.0,0.0,0.0,0.0,0.0,0.0,0.0,0.0,0.0,0.0,0.0,2.0069,2.026,2.1872,2.2738,2.2598,2.4302,2.5226,2.5303,2.5303,2.533,2.5386,2.5451,2.506,2.4267,2.3452,2.2611,2.1741,2.0935,2.0605,2.0605,2.0605,0.0,0.0,0.0,0.0,0.0,0.0,0.0,0.0,0.0,0.0,0.0,0.0,0.0,2.4551,2.5371,2.5644,2.5703,2.5683,2.5703,2.5898,2.6699,0.0,0.0,2.6972,0.0,0.0,0.0,0.0,0.0,0.0,0.0,0.0,0.0,0.0,0.0,0.0,0.0,3.4941,3.5898,3.5996,3.5996,3.5996,3.5947,3.5907,3.5903,3.5714,3.6337,3.8001,3.8047,3.8777,4.045,4.0489,4.0489,4.0489,4.0489,4.0489,4.0489,4.0489,4.0489,4.0489,4.0489,4.0489,4.0489,4.0489,4.0356,4.0081,3.9754,3.9389,3.9072,3.8803,3.8707,3.8707,3.8707,3.9166,3.9808,0.0,0.0,0.0,0.0,0.0,0.0,0.0,0.0,0.0,0.0,0.0,0.0,0.0,0.0,0.0,0.0,0.0,0.0,0.0,0.0,2.0233,2.0304,2.1908,2.2799,2.2794,2.4446,2.5303,2.5303,2.5329,2.5406,2.5451,2.5539,2.5405,2.5077,2.4266,2.3728,2.3357,2.2519,2.2187,2.2227,2.2227,2.2187,0.0,0.0,0.0,0.0,0.0,0.0,0.0,0.0,2.3242,2.3965,2.4297,2.4766,2.5273,2.5605,2.5703,2.5703,2.5703,2.6094,2.6582,2.6914,0.0,0.0,0.0,0.0,0.0,0.0,0.0,0.0,0.0,0.0,0.0,0.0,0.0,0.0,0.0,3.4492,3.5019,3.5898,3.5996,3.5996,3.5996,3.5945,3.5869,3.5772,3.5666,3.6071,3.7173,3.7723,3.8546,3.9719,4.0239,4.0489,4.0489,4.0489,4.0489,4.0489,4.0489,4.0489,4.0489,4.0489,4.0489,4.0489,4.0489,4.023,3.9775,3.9645,3.9301,3.8844,3.875,3.8707,3.8762,3.9258,3.9643,3.9955,0.0,0.0,0.0,0.0,0.0,0.0,0.0,0.0,0.0,0.0,0.0,0.0,0.0,0.0,0.0,0.0,0.0,0.0,0.0,2.0214,2.0312,2.0312,2.193,2.2852,2.2901,2.4517,2.5363,2.5363,2.5428,2.5498,2.5539,2.5601,2.5634,2.5595,2.4765,2.4394,2.4336,2.3477,2.3125,2.3164,2.3184,2.3164,0.0,0.0,0.0,0.0,0.0,0.0,0.0,0.0,2.4121,2.4805,2.4805,2.5215,2.5703,2.5703,2.5703,2.5703,2.5703,2.6348,2.707,0.0,0.0,0.0,0.0,0.0,0.0,0.0,0.0,0.0,0.0,0.0,0.0,0.0,0.0,0.0,3.4531,3.4941,3.5332,3.5937,3.5996,3.5996,3.5973,3.5887,3.5791,3.5687,3.5601,3.5893,3.6661,3.7526,3.8392,3.9258,4.0065,4.0489,4.0489,4.0489,4.0489,4.0489,4.0489,4.0489,4.0489,4.0489,4.0489,4.0489,4.0406,4.0082,3.9599,3.9505,3.9136,3.8707,3.8707,3.8854,3.9148,3.9698,4.0212,4.0744,0.0,0.0,0.0,0.0,0.0,0.0,0.0,0.0,0.0,0.0,0.0,0.0,0.0,0.0,0.0,0.0,0.0,0.0,2.0312,2.0312,2.0312,2.0292,2.1965,2.2901,2.2908,2.4607,2.5493,2.5493,2.5564,2.5601,2.5603,2.5662,2.5703,2.5664,2.4805,2.4414,2.4355,2.3496,2.3125,2.3125,2.3203,2.3223,2.3223,0.0,0.0,0.0,0.0,0.0,0.0,0.0,2.498,2.5703,2.5703,2.5703,2.5703,2.5703,2.5703,2.5703,2.5703,2.6348,2.7226,0.0,0.0,0.0,0.0,0.0,0.0,0.0,0.0,0.0,0.0,0.0,0.0,0.0,0.0,3.4707,3.4707,3.5469,3.5996,3.5996,3.5996,3.5973,3.5907,3.5772,3.5659,3.5601,3.554,3.5853,3.6661,3.7507,3.8392,3.9258,4.0065,4.0489,4.0489,4.0489,4.0489,4.0489,4.0489,4.0489,4.0489,4.0489,4.0489,4.0489,4.0213,3.9901,3.9576,3.9257,3.8933,3.8707,3.8707,3.9184,3.99,3.99,4.0928,4.2304,0.0,0.0,0.0,0.0,0.0,0.0,0.0,0.0,0.0,0.0,0.0,0.0,0.0,0.0,0.0,0.0,0.0,0.0,2.0308,2.0311,2.0313,2.0371,2.2003,2.2935,2.3036,2.4749,2.5629,2.5564,2.5595,2.5611,2.5662,2.5683,2.5703,2.5684,2.543,2.5312,2.5293,2.5039,2.4922,2.4922,2.4941,2.4961,2.4961,0.0,0.0,0.0,0.0,0.0,0.0,0.0,0.0,0.0,2.5703,2.5703,2.5703,2.5703,2.5703,2.582,2.6445,2.7246,0.0,0.0,0.0,0.0,0.0,0.0,0.0,0.0,0.0,0.0,0.0,0.0,0.0,0.0,3.4375,3.4902,3.5527,3.584,3.5975,3.5942,3.594,3.5884,3.5766,3.5679,3.5611,3.5591,3.554,3.5603,3.5853,3.6642,3.7488,3.8354,3.92,3.9931,4.0489,4.0489,4.0489,4.0489,4.0489,4.0489,4.0489,4.0489,4.0489,4.0489,4.0213,3.9901,3.9552,3.9017,3.8762,3.8707,3.8707,3.9184,3.9955,4.0543,4.1405,4.2378,0.0,0.0,0.0,0.0,0.0,0.0,0.0,0.0,0.0,0.0,2.0214,2.0312,0.0,0.0,0.0,2.0306,2.0306,0.0,2.0351,2.0332,2.0369,2.0406,2.1725,2.2835,2.3606,2.4999,2.5683,2.5636,2.5636,2.566,2.5703,2.5703,2.5703,2.5703,2.5703,2.5703,2.5703,2.5703,2.5703,2.5703,2.5703,2.5703,2.5703,0.0,0.0,0.0,0.0,0.0,0.0,0.0,0.0,0.0,2.5703,2.5703,2.5703,2.5703,2.5703,2.5898,2.6758,0.0,0.0,0.0,0.0,0.0,0.0,0.0,0.0,0.0,0.0,0.0,0.0,0.0,0.0,3.459,3.498,3.5391,3.5937,3.5974,3.5947,3.5907,3.5845,3.5786,3.5671,3.5621,3.559,3.5562,3.5522,3.5493,3.5493,3.6257,3.7103,3.7969,3.8854,3.9681,4.0489,4.0489,4.0489,4.0489,4.0489,4.0489,4.0489,4.0489,4.0489,4.0473,4.0081,3.9641,3.9216,3.8833,3.8707,3.8707,3.8707,3.9386,4.0432,4.0928,4.1809,4.2837,0.0,0.0,2.0315,2.0315,0.0,0.0,0.0,0.0,0.0,2.0315,2.0315,2.0315,0.0,0.0,0.0,2.0313,2.0299,2.0332,2.0395,2.0391,2.0414,2.0422,2.1377,2.2708,2.4355,2.5254,2.5703,2.5703,2.5703,2.5703,2.5703,2.5703,2.5703,2.5703,2.5703,2.5703,2.5703,2.5703,2.5703,2.5703,2.5703,2.5703,2.5703,2.5703,0.0,0.0,0.0,0.0,0.0,0.0,0.0,0.0,2.5703,2.5703,2.5703,2.5703,2.5762,2.6016,2.6875,0.0,0.0,0.0,0.0,0.0,0.0,0.0,0.0,0.0,0.0,0.0,0.0,0.0,0.0,3.4922,3.5488,3.5996,3.5996,3.5942,3.59,3.5869,3.578,3.5652,3.56,3.559,3.5574,3.5488,3.5493,3.5493,3.5493,3.6199,3.7026,3.7969,3.8757,3.9604,4.0489,4.0489,4.0489,4.0489,4.0489,4.0489,4.0489,4.0489,4.0489,4.0422,3.9884,3.9301,3.875,3.875,3.8719,3.8707,3.8707,3.968,4.1111,4.1111,4.2121,4.3497,0.0,0.0,2.0371,2.0371,0.0,0.0,0.0,0.0,2.0371,2.0371,2.0371,2.0371,2.0371,2.0371,0.0,2.037,2.037,2.0414,2.0477,2.0432,2.0441,2.0542,2.201,2.332,2.4375,2.5254,2.5703,2.5703,2.5703,2.5703,2.5703,2.5703,2.5703,2.5703,2.5703,2.5703,2.5703,2.5703,2.5703,2.5703,2.5703,2.5703,2.5703,2.5703,2.5703,0.0,0.0,0.0,0.0,0.0,0.0,0.0,2.5703,2.5703,2.5703,2.5703,2.6172,2.6914,0.0,2.8652,0.0,0.0,0.0,0.0,0.0,0.0,0.0,0.0,0.0,0.0,0.0,0.0,3.5137,3.5644,3.5879,3.5975,3.5938,3.5907,3.5831,3.5674,3.565,3.56,3.5534,3.5522,3.5528,3.5507,3.5493,3.5493,3.5493,3.5661,3.6449,3.795,3.818,3.8988,4.0489,4.0489,4.0489,4.0489,4.0489,4.0489,4.0489,4.0489,4.0389,4.0177,4.0042,3.9599,3.9008,3.9008,3.8884,3.8707,3.8707,3.968,4.1111,4.1111,4.2121,4.3497,0.0,0.0,0.0,0.0,0.0,0.0,0.0,0.0,2.041,2.041,2.041,2.041,2.041,2.041,0.0,0.0,2.0441,2.0477,2.0541,2.0513,2.0712,2.1191,2.2832,2.3945,2.4394,2.5254,2.5703,2.5703,2.5703,0.0,0.0,0.0,0.0,2.5703,2.5703,2.5703,2.5703,2.5703,2.5703,2.5703,2.5703,2.5703,2.5703,2.5703,0.0,0.0,0.0,0.0,0.0,0.0,0.0,0.0,0.0,0.0,2.5703,2.5703,2.6328,2.7187,0.0,0.0,0.0,0.0,0.0,0.0,0.0,0.0,0.0,0.0,0.0,0.0,0.0,0.0,3.5468,3.5872,3.5948,3.5921,3.5812,3.5802,3.5774,3.5655,3.5646,3.5639,3.5611,3.5574,3.5546,3.5546,3.5509,3.5493,3.5493,3.5493,3.6084,3.7334,3.7777,3.8623,3.9912,4.0296,4.0489,4.0489,4.0489,4.0489,4.0489,4.0489,4.0356,4.0101,4.0101,3.9731,3.9099,3.9099,3.8933,3.8707,3.8707,3.968,4.1111,4.1111,4.2121,4.3497,0.0,0.0,0.0,0.0,0.0,0.0,0.0,0.0,0.0,2.0435,2.0435,2.0435,2.0435,2.0435,2.0467,0.0,0.0,0.0,2.082,2.0977,2.1367,2.209,2.3594,2.4394,2.4394,2.5254,2.5703,2.5703,0.0,0.0,0.0,0.0,0.0,2.5703,0.0,2.5703,2.5703,2.5703,2.5703,2.5703,2.5703,2.5703,2.5703,0.0,0.0,0.0,0.0,2.5703,2.5703,2.5703,0.0,0.0,0.0,0.0,2.5703,2.5703,2.6426,2.7383,0.0,0.0,0.0,0.0,0.0,0.0,0.0,0.0,0.0,0.0,0.0,0.0,0.0,3.541,3.5975,3.5938,3.5913,3.588,3.5755,3.5729,3.5723,3.571,3.5689,3.5682,3.5682,3.5611,3.5568,3.5568,3.5528,3.5493,3.5493,3.5493,3.5872,3.668,3.7546,3.8411,3.9277,4.0085,4.0489,4.0489,4.0489,4.0489,4.0489,4.0489,4.0372,4.0158,4.0158,3.9797,3.9205,3.9205,3.899,3.8707,3.8854,3.9808,4.113,4.1277,4.2249,4.3497,0.0,0.0,0.0,0.0,0.0,0.0,0.0,0.0,0.0,0.0,2.0565,2.0565,2.0565,2.0565,2.0585,2.0585,2.1289,2.1718,2.1738,0.0,0.0,2.3027,2.3906,2.4394,2.4394,2.5254,2.5703,2.5703,0.0,0.0,0.0,0.0,0.0,2.5703,0.0,0.0,2.5703,2.5703,2.5703,2.5703,2.5703,2.5703,0.0,0.0,0.0,0.0,0.0,0.0,0.0,2.5703,2.5703,0.0,0.0,0.0,2.5703,2.5703,2.6855,2.8144,0.0,0.0,0.0,0.0,0.0,0.0,0.0,0.0,0.0,0.0,0.0,0.0,3.4531,3.541,3.5996,3.5996,3.5995,3.5953,3.588,3.5873,3.5836,3.5717,3.5646,3.5621,3.5621,3.5538,3.5515,3.5515,3.552,3.5493,3.5493,3.5493,3.5872,3.668,3.7546,3.8411,3.9277,4.0085,4.0489,4.0489,4.0489,4.0489,4.0489,4.0489,4.0473,4.0457,4.0457,4.0101,3.9529,3.9529,3.9216,3.8781,3.946,4.0304,4.1185,4.1882,4.2708,4.3497,0.0,0.0,0.0,0.0,0.0,0.0,0.0,0.0,0.0,0.0,0.0,2.1504,2.1992,2.2051,2.2051,2.2051,2.2363,2.2598,2.2637,2.3418,2.3867,2.3867,2.4687,2.5137,2.5137,2.5508,2.5703,0.0,0.0,0.0,0.0,2.5703,2.5703,0.0,0.0,0.0,0.0,0.0,2.5703,2.5703,2.5703,0.0,0.0,0.0,0.0,0.0,0.0,0.0,0.0,0.0,2.5703,2.5703,2.5703,0.0,0.0,0.0,0.0,0.0,0.0,0.0,0.0,0.0,0.0,0.0,0.0,0.0,0.0,0.0,0.0,0.0,3.4531,3.541,3.5995,3.5948,3.5947,3.5916,3.5807,3.5845,3.5845,3.5717,3.573,3.5735,3.5663,3.56,3.557,3.557,3.5522,3.5493,3.5493,3.5493,3.5661,3.6026,3.7315,3.818,3.8565,3.9854,4.0489,4.0489,4.0489,4.0489,4.0489,4.0489,4.0489,4.0489,4.0339,4.0023,3.9599,3.9389,3.9054,3.8781,3.9588,4.0396,4.1203,4.2011,4.28,4.3497,0.0,0.0,0.0,0.0,0.0,0.0,0.0,0.0,0.0,0.0,0.0,2.248,2.3125,0.0,0.0,0.0,2.332,2.3555,2.3828,2.4394,2.4727,2.4727,2.5352,2.5703,2.5703,2.5703,0.0,0.0,0.0,0.0,2.5703,2.5703,2.582,0.0,2.5801,0.0,0.0,0.0,0.0,0.0,0.0,0.0,0.0,0.0,0.0,0.0,0.0,0.0,0.0,0.0,0.0,0.0,0.0,0.0,0.0,0.0,0.0,0.0,0.0,0.0,0.0,0.0,0.0,0.0,0.0,0.0,0.0,0.0,0.0,3.3359,3.4219,3.5254,3.5976,3.5921,3.5938,3.5884,3.5766,3.5841,3.5845,3.5717,3.578,3.578,3.5675,3.5621,3.5577,3.5577,3.5534,3.5493,3.5493,3.5493,3.5493,3.5493,3.6911,3.7777,3.8007,3.9662,4.0489,4.0489,4.0489,4.0489,4.0489,4.0441,4.0389,4.0389,4.0177,3.9859,3.9438,3.9186,3.8933,3.8799,3.9808,4.0579,4.124,4.2231,4.2983,4.3497,0.0,0.0,0.0,0.0,0.0,0.0,0.0,0.0,0.0,0.0,0.0,2.3144,2.3203,2.3203,2.3164,2.3105,2.3867,2.4687,2.5527,2.5605,2.5625,2.5625,2.5684,0.0,2.5703,2.5703,0.0,0.0,0.0,0.0,2.5703,2.5703,2.6133,2.6894,2.6074,2.6152,2.6934,0.0,0.0,0.0,0.0,0.0,0.0,0.0,0.0,0.0,0.0,0.0,0.0,0.0,0.0,0.0,0.0,0.0,0.0,0.0,0.0,0.0,0.0,0.0,0.0,0.0,0.0,0.0,0.0,0.0,0.0,0.0,0.0,3.2519,3.332,3.4863,3.5996,3.5996,3.5996,3.5973,3.5907,3.59,3.5845,3.5717,3.5638,3.5611,3.5601,3.5546,3.552,3.552,3.5507,3.5493,3.5493,3.5493,3.5493,3.5493,3.6334,3.7161,3.7988,3.9662,4.0489,4.0489,4.0489,4.0489,4.0489,4.0251,4.012,4.012,4.0101,3.9731,3.9107,3.9125,3.8933,3.8872,4.0432,4.1075,4.1295,4.2855,4.3442,4.3497,0.0,0.0,0.0,0.0,0.0,0.0,0.0,0.0,0.0,0.0,0.0,0.0,0.0,2.4805,2.4785,2.4766,2.5059,2.5371,2.5684,2.5703,2.5703,2.5703,2.5703,2.5703,2.5703,0.0,0.0,0.0,0.0,2.5703,2.5703,2.6269,2.6699,2.6992,2.668,2.7012,2.7832,2.7832,0.0,0.0,0.0,0.0,0.0,0.0,0.0,0.0,0.0,0.0,0.0,0.0,0.0,0.0,0.0,0.0,0.0,0.0,0.0,0.0,0.0,0.0,0.0,0.0,0.0,0.0,0.0,0.0,0.0,0.0,0.0,3.2285,3.2578,3.4023,3.5351,3.5918,3.5996,3.5974,3.591,3.5903,3.5831,3.5666,3.5621,3.5568,3.5553,3.5515,3.5493,3.5493,3.5493,3.5493,3.5493,3.5493,3.5493,3.5493,3.6276,3.7392,3.8815,3.9931,4.0489,4.0489,4.0489,4.0406,4.0232,4.0139,3.988,3.9462,3.9462,3.9314,3.9099,3.8923,3.8773,3.8872,4.0487,4.1111,4.1295,4.291,4.3497,4.3497,0.0,0.0,0.0,0.0,0.0,0.0,0.0,0.0,0.0,0.0,0.0,0.0,0.0,0.0,2.5703,2.5703,2.5703,2.5703,2.5703,2.5703,2.5703,2.5703,2.5703,2.5703,2.5703,0.0,0.0,0.0,0.0,0.0,0.0,2.7168,2.7598,2.7871,2.7871,2.8184,0.0,0.0,0.0,2.918,0.0,0.0,2.918,0.0,0.0,0.0,0.0,0.0,0.0,0.0,0.0,0.0,0.0,0.0,0.0,0.0,0.0,0.0,0.0,0.0,0.0,0.0,0.0,0.0,0.0,0.0,0.0,0.0,3.1327,3.1794,3.2087,3.3019,3.415,3.5347,3.5519,3.5578,3.5772,3.58,3.5748,3.5588,3.5574,3.5546,3.5488,3.5493,3.5493,3.5493,3.5493,0.0,3.5493,3.5493,3.5493,3.5493,3.6565,3.77,3.8854,3.995,4.0457,4.0372,4.0372,4.0194,3.9922,3.9819,3.9529,3.908,3.898,3.8961,3.8961,3.8792,3.8854,3.9239,4.0598,4.1277,4.168,4.3002,4.3497,4.3497,0.0,0.0,0.0,0.0,0.0,0.0,0.0,0.0,0.0,0.0,0.0,0.0,0.0,0.0,0.0,2.5762,2.5781,2.5781,2.5781,2.5781,2.5781,2.5781,2.5781,2.5781,2.5781,0.0,0.0,0.0,0.0,0.0,0.0,0.0,2.8789,0.0,2.9629,2.9648,2.9648,0.0,3.0137,3.0898,0.0,3.0898,3.0898,0.0,0.0,0.0,3.0898,3.0898,0.0,3.0898,0.0,0.0,0.0,0.0,0.0,0.0,0.0,0.0,0.0,0.0,0.0,0.0,0.0,0.0,3.0898,0.0,3.0898,0.0,3.0792,3.0969,3.1809,3.1904,3.2444,3.423,3.4491,3.4722,3.5456,3.5553,3.5557,3.5501,3.5493,3.5493,3.5493,3.5493,3.5493,3.5493,3.5493,3.5493,3.5493,3.5493,3.5493,3.5493,3.7103,3.7969,3.8007,3.9623,4.0336,4.0101,4.0081,3.9901,3.9576,3.9238,3.9099,3.9072,3.8815,3.8707,3.8707,3.8707,3.9166,3.9974,4.0799,4.1589,4.2396,4.3185,4.3497,4.3497,0.0,0.0,0.0,0.0,0.0,0.0,0.0,0.0,0.0,0.0,0.0,0.0,0.0,0.0,0.0,2.7539,2.7578,2.7578,2.7578,2.7578,2.7578,2.7578,2.7578,2.7578,2.7578,0.0,0.0,0.0,0.0,0.0,0.0,0.0,0.0,0.0,3.0254,3.0547,3.0547,3.0547,0.0,0.0,3.0898,3.0898,0.0,0.0,0.0,0.0,0.0,3.0898,3.0898,0.0,3.0898,3.0898,0.0,0.0,0.0,0.0,0.0,0.0,3.0898,0.0,0.0,0.0,0.0,0.0,3.0898,3.0898,3.0878,3.0771,3.0721,3.0765,3.0959,3.0925,3.1255,3.2392,3.3142,3.3815,3.4565,3.4662,3.4881,3.5424,3.5493,3.5493,3.5493,3.5493,3.5493,0.0,3.5493,3.5493,3.5493,3.5493,3.5493,3.5493,3.6507,3.7353,3.7988,3.8848,3.9547,4.0101,3.984,3.9576,3.9257,3.9133,3.8999,3.8803,3.8719,3.8707,3.8707,3.8707,3.9166,3.9974,4.0799,4.1589,4.2396,4.3185,4.3497,4.3497,0.0,0.0,0.0,2.5703,0.0,0.0,0.0,0.0,0.0,0.0,0.0,0.0,0.0,0.0,0.0,2.8262,2.8301,2.8301,2.8301,2.8301,2.8301,2.8301,2.8301,2.8301,2.8301,0.0,0.0,0.0,0.0,0.0,0.0,0.0,0.0,0.0,0.0,0.0,0.0,0.0,0.0,0.0,3.0898,0.0,0.0,3.0898,3.0898,0.0,0.0,0.0,3.0898,3.0898,3.0898,0.0,0.0,0.0,0.0,0.0,0.0,0.0,0.0,0.0,0.0,0.0,0.0,0.0,3.0836,3.0816,3.079,0.0,3.0648,3.0592,3.0561,3.0507,3.0617,3.1128,3.1671,3.2434,3.3564,3.3727,3.3886,3.4366,3.4737,3.4968,3.4968,3.5295,3.5493,3.5493,3.5493,3.5493,3.5493,3.5493,3.5493,3.5493,3.6276,3.706,3.7773,3.8458,3.9106,3.9668,3.9486,3.9231,3.8933,3.8933,3.8844,3.8707,3.8707,3.8707,3.8726,3.9056,3.9662,4.0487,4.1295,4.2084,4.2855,4.3314,4.3497,4.3497,0.0,0.0,2.5879,2.5977,2.5996,2.625,0.0,0.0,0.0,0.0,0.0,0.0,0.0,0.0,0.0,0.0,2.8594,2.8594,2.8594,2.8594,2.8594,2.8594,2.8594,2.8594,2.8594,2.8594,0.0,0.0,0.0,0.0,0.0,0.0,0.0,0.0,3.0898,3.0898,0.0,0.0,0.0,3.0898,3.0898,3.0898,0.0,0.0,3.0898,3.0898,3.0898,3.0898,3.0898,3.0898,3.0898,0.0,0.0,0.0,0.0,0.0,3.0898,0.0,0.0,0.0,0.0,0.0,0.0,0.0,3.0723,3.0696,3.068,3.0611,3.0545,3.0498,3.0481,3.0441,3.0398,3.0398,3.0398,3.0948,3.2545,3.2776,3.2795,3.2891,3.3583,3.4083,3.418,3.4911,3.5411,3.5474,3.5493,3.5493,3.5493,3.5493,3.5493,3.5493,3.6152,3.6834,3.7489,3.8213,3.8761,3.9099,3.9072,3.8933,3.8707,3.8707,3.8707,3.8707,3.8707,3.8762,3.8909,3.9698,4.0451,4.1185,4.1992,4.2782,4.3497,4.3497,4.3497,4.3497,2.6602,2.6758,2.6973,2.7676,2.7793,2.7851,0.0,0.0,0.0,0.0,0.0,0.0,0.0,0.0,0.0,0.0,0.0,3.0391,3.0391,3.0391,3.0391,3.0391,3.0391,3.0391,3.0391,3.0391,3.0488,0.0,0.0,0.0,0.0,0.0,0.0,0.0,3.0898,3.0898,0.0,0.0,0.0,3.0898,3.0898,0.0,3.0898,3.0898,3.0898,3.0898,3.0898,3.0898,3.0898,3.0898,3.0786,3.0681,0.0,0.0,0.0,0.0,0.0,0.0,0.0,0.0,0.0,0.0,0.0,0.0,3.0723,3.0696,3.0673,0.0,3.0516,3.0491,3.0439,3.0402,3.0398,3.0398,3.0398,3.0756,3.1795,3.1929,3.2179,3.2814,3.3045,3.343,3.4122,3.4353,3.4737,3.5449,3.5493,3.5493,3.5493,3.5493,3.5493,3.5493,3.5442,3.6073,3.7489,3.7231,3.7766,3.9099,3.8884,3.8732,3.8707,3.8707,3.8707,3.8707,3.8707,3.9074,3.9735,4.0543,4.0965,4.1185,4.1992,4.2782,4.3497,4.3497,4.3497,4.3497,2.7558,2.7656,2.7793,2.8223,0.0,0.0,0.0,0.0,0.0,0.0,0.0,0.0,0.0,0.0,0.0,0.0,0.0,0.0,0.0,0.0,3.0898,3.0898,3.0898,3.0898,3.0898,3.0898,3.0898,0.0,0.0,0.0,0.0,0.0,0.0,0.0,0.0,0.0,0.0,0.0,3.0898,3.0898,3.0898,0.0,3.0898,3.0898,3.0898,3.0898,3.0817,3.0793,3.0792,3.0757,3.0752,0.0,0.0,3.0696,3.0661,0.0,3.0732,3.0716,0.0,0.0,0.0,3.0757,0.0,0.0,0.0,3.0606,3.0575,3.0463,3.0442,3.0441,0.0,0.0,3.0398,3.0398,3.0398,3.0552,3.0987,3.1064,3.1198,3.1621,3.2045,3.2468,3.291,3.3314,3.391,3.4795,3.5257,3.5493,3.5493,3.5493,3.5432,3.5304,3.5174,3.5742,3.7087,3.682,3.7448,3.8894,3.8762,3.8707,3.8707,3.8707,3.8707,3.8707,3.8707,3.9166,3.9955,4.0781,4.135,4.1791,4.258,4.313,4.3497,4.3497,4.3497,4.3497,2.8574,2.8555,2.8594,2.8769,2.8809,0.0,0.0,0.0,0.0,0.0,0.0,0.0,0.0,0.0,0.0,0.0,0.0,0.0,0.0,0.0,3.0898,3.0898,3.0898,3.0898,3.0898,3.0898,3.0898,3.0898,0.0,0.0,0.0,0.0,0.0,0.0,0.0,0.0,0.0,0.0,0.0,3.0898,0.0,3.0898,3.0898,3.0898,3.0879,3.0857,3.0716,3.0677,3.0665,3.0638,3.0716,3.0806,3.0652,3.0648,0.0,0.0,0.0,0.0,0.0,0.0,0.0,0.0,0.0,3.0581,0.0,0.0,0.0,3.0414,3.0398,0.0,0.0,0.0,0.0,0.0,0.0,0.0,0.0,3.0398,0.0,3.0398,3.1025,3.1525,3.1679,3.2429,3.3256,3.4122,3.4853,3.5287,3.5412,3.546,3.5369,3.5105,3.5105,3.5646,3.6764,3.6733,3.7377,3.8707,3.8707,3.8707,3.8707,3.8707,3.8707,3.8707,3.8854,3.9386,4.0194,4.1001,4.1809,4.2598,4.324,4.3497,4.3497,4.3497,4.3497,4.3497,2.9609,2.9453,2.9707,3.0469,3.0605,0.0,0.0,0.0,0.0,0.0,0.0,0.0,0.0,0.0,0.0,0.0,0.0,0.0,3.0898,0.0,0.0,3.0898,3.0898,3.0898,3.0898,3.0898,3.0898,3.0898,0.0,0.0,0.0,0.0,0.0,0.0,3.0898,0.0,0.0,0.0,3.0898,0.0,3.0898,3.0898,0.0,3.0898,3.0836,3.0716,3.0643,3.0575,3.0545,0.0,3.0628,3.0567,0.0,3.0603,3.0537,0.0,0.0,0.0,0.0,0.0,0.0,0.0,3.0606,0.0,0.0,0.0,3.0482,3.0414,0.0,0.0,0.0,0.0,0.0,0.0,0.0,0.0,3.0398,3.0398,3.0398,3.0398,3.0475,3.0852,3.1641,3.2429,3.3256,3.4122,3.4295,3.4592,3.5117,3.5369,3.5369,3.5105,3.5105,3.5723,3.7036,3.6814,3.7377,3.8707,3.8707,3.8707,3.8707,3.8707,3.8707,3.8744,3.9441,4.0212,4.1038,4.1827,4.2635,4.3369,4.3442,4.3497,4.3497,4.3497,4.3497,4.3497,3.043,3.0351,3.0469,3.084,3.0898,0.0,0.0,0.0,0.0,0.0,0.0,0.0,0.0,0.0,0.0,0.0,0.0,3.1445,0.0,0.0,0.0,0.0,3.0898,3.0898,3.0898,3.0898,3.0898,3.0898,3.0898,0.0,0.0,0.0,0.0,0.0,3.0816,0.0,3.0772,0.0,3.1085,0.0,0.0,0.0,0.0,3.1725,3.1742,3.2025,3.2008,3.1958,3.1942,0.0,3.2011,0.0,0.0,0.0,0.0,0.0,0.0,0.0,0.0,0.0,0.0,0.0,0.0,0.0,3.0451,0.0,3.0419,0.0,0.0,0.0,0.0,0.0,0.0,0.0,3.0398,0.0,0.0,0.0,3.0398,0.0,0.0,0.0,3.091,3.1718,3.2487,3.3164,3.3666,3.4222,3.4832,3.4981,3.4889,3.4595,3.4595,3.5252,3.663,3.6509,3.7219,3.8707,3.8707,3.8707,3.8707,3.8707,3.8707,3.8744,3.9551,4.0359,4.1167,4.1974,4.2763,4.3497,4.3497,4.3497,4.3497,4.3497,4.3497,4.3497,3.0898,0.0,0.0,0.0,0.0,0.0,0.0,0.0,0.0,0.0,0.0,0.0,3.2461,3.2539,0.0,0.0,3.2539,3.2266,0.0,0.0,3.1582,0.0,0.0,0.0,0.0,3.1016,3.0898,3.0898,3.0898,0.0,0.0,0.0,0.0,0.0,0.0,3.0723,3.0716,0.0,0.0,3.1984,3.2225,3.284,3.3487,3.2605,3.257,3.2987,3.2975,3.2965,3.2974,3.2937,3.3025,0.0,3.2982,0.0,0.0,0.0,0.0,0.0,3.203,0.0,0.0,0.0,0.0,0.0,0.0,0.0,0.0,0.0,0.0,0.0,0.0,0.0,0.0,0.0,0.0,0.0,0.0,0.0,0.0,0.0,0.0,0.0,0.0,3.0968,3.1565,3.213,0.0,3.3672,3.4216,3.4521,3.4551,3.42,3.4288,3.5014,3.639,3.6408,3.718,3.8707,3.8707,3.8707,3.8707,3.8707,3.8817,3.9074,3.9882,4.0689,4.1497,4.2304,4.2965,4.3497,4.3497,4.3497,4.3497,4.3497,4.3497,4.3497,3.0898,3.0898,0.0,0.0,0.0,0.0,0.0,0.0,0.0,0.0,0.0,0.0,0.0,0.0,0.0,0.0,0.0,3.3359,3.332,0.0,3.332,0.0,0.0,3.2168,0.0,0.0,3.0898,3.0898,0.0,0.0,0.0,0.0,0.0,0.0,0.0,3.0816,3.0752,3.1604,3.1943,3.1981,3.2811,3.3608,3.4168,0.0,3.2987,3.2977,3.2933,0.0,0.0,3.2975,3.2997,0.0,0.0,0.0,0.0,0.0,0.0,0.0,0.0,0.0,0.0,3.2814,0.0,0.0,0.0,0.0,3.0398,0.0,0.0,0.0,0.0,0.0,0.0,0.0,0.0,0.0,0.0,0.0,0.0,0.0,0.0,0.0,0.0,3.0417,3.0682,0.0,3.2076,0.0,3.3034,3.4097,3.4551,3.42,3.4508,3.5334,3.6663,3.6701,3.7377,3.8707,3.8707,3.8707,3.8707,3.8707,3.9129,3.99,4.0726,4.1534,4.2323,4.313,4.3461,4.3497,4.3497,4.3497,4.3497,4.3497,4.3497,4.3497,0.0,0.0,0.0,0.0,0.0,0.0,0.0,3.2012,0.0,0.0,0.0,0.0,0.0,3.4258,3.4258,0.0,0.0,3.4023,3.3437,3.3398,0.0,0.0,0.0,3.2988,0.0,0.0,0.0,0.0,0.0,0.0,0.0,0.0,0.0,0.0,0.0,3.1588,0.0,0.0,0.0,0.0,0.0,3.4902,3.5007,0.0,3.4159,3.4648,3.4635,3.4622,0.0,3.4655,3.4648,3.4648,3.4648,3.4648,3.4648,3.4635,3.4218,0.0,0.0,0.0,3.2891,3.2891,0.0,0.0,0.0,0.0,0.0,0.0,0.0,0.0,0.0,0.0,0.0,0.0,0.0,0.0,0.0,0.0,0.0,0.0,0.0,0.0,0.0,0.0,0.0,0.0,0.0,0.0,3.2699,3.3611,3.4037,3.3935,3.4037,3.4851,3.6399,3.6436,3.719,3.8707,3.8707,3.8707,3.8707,3.8707,3.9148,3.9937,4.0763,4.157,4.2359,4.3167,4.3497,4.3497,4.3497,4.3497,4.3497,4.3497,4.3497,4.3497,3.0898,0.0,0.0,0.0,0.0,0.0,0.0,0.0,0.0,0.0,3.4394,0.0,3.5566,0.0,3.6094,0.0,3.6094,3.5859,3.5293,3.4961,0.0,3.4785,3.4199,0.0,0.0,0.0,0.0,0.0,0.0,3.2344,0.0,0.0,0.0,0.0,0.0,3.244,3.2428,0.0,3.3891,0.0,0.0,3.554,0.0,0.0,3.5257,3.5493,0.0,3.5493,3.5493,3.5493,3.5493,3.5493,3.5493,3.5493,3.5493,3.5493,3.5103,3.4661,3.4661,3.4257,0.0,3.3814,3.3583,0.0,3.3353,0.0,0.0,0.0,0.0,0.0,0.0,0.0,0.0,0.0,0.0,0.0,0.0,3.0398,0.0,0.0,0.0,0.0,0.0,0.0,0.0,0.0,0.0,0.0,0.0,3.322,3.3807,3.3807,3.3807,3.4596,3.6266,3.6303,3.711,3.8707,3.8707,3.8707,3.8707,3.9001,3.957,4.0377,4.1185,4.1992,4.2763,4.3277,4.3497,4.3497,4.3497,4.3497,4.3497,4.3497,4.3497,4.3497,3.1016,3.1699,0.0,0.0,3.1738,0.0,0.0,0.0,3.4785,0.0,3.6309,3.7363,3.7363,3.8105,3.8594,3.8594,3.8594,3.8594,3.8594,3.7812,0.0,0.0,3.5781,3.4863,3.4824,0.0,0.0,0.0,0.0,0.0,0.0,0.0,0.0,0.0,3.3457,0.0,3.333,3.4179,3.4468,3.4391,3.5238,3.5603,3.5718,3.6469,3.6295,3.5622,3.5622,3.5622,3.5622,3.5622,3.5622,3.5622,3.5622,3.5622,3.5622,3.5622,3.5622,3.5622,3.5622,3.5603,3.5565,3.5565,3.4911,0.0,0.0,0.0,3.2968,0.0,0.0,0.0,0.0,0.0,0.0,0.0,0.0,0.0,0.0,0.0,0.0,0.0,0.0,0.0,0.0,0.0,0.0,0.0,0.0,0.0,0.0,3.2889,3.3752,3.3807,3.3844,3.4651,3.6266,3.634,3.7147,3.8707,3.8707,3.8707,3.8726,3.9533,4.0341,4.1148,4.1956,4.2763,4.3497,4.3497,4.3497,4.3497,4.3497,4.3497,4.3497,4.3497,4.3497,4.3497,3.2754,3.2949,3.3223,0.0,3.3379,3.3379,0.0,0.0,0.0,0.0,3.7598,3.8262,3.8262,3.8476,3.8594,3.8594,3.8594,0.0,0.0,0.0,0.0,3.8262,3.7832,3.7305,3.6641,3.6406,0.0,3.4375,0.0,0.0,3.3398,0.0,0.0,0.0,0.0,0.0,3.4218,3.5042,3.565,3.6084,3.6295,3.6776,3.7373,0.0,3.7546,3.7353,3.7353,3.7353,3.7353,3.7353,3.7353,3.7353,3.7353,3.7353,3.7353,3.7353,3.7353,3.7353,3.7353,3.6892,3.6392,3.6392,3.5776,3.518,0.0,0.0,0.0,0.0,0.0,0.0,0.0,0.0,0.0,0.0,0.0,0.0,0.0,0.0,0.0,2.988,0.0,0.0,0.0,0.0,0.0,0.0,0.0,0.0,0.0,0.0,3.3183,3.377,3.4394,3.522,3.6285,3.689,3.7698,3.8707,3.8707,3.8707,3.8726,3.9533,4.0341,4.1148,4.1956,4.2763,4.3497,4.3497,4.3497,4.3497,4.3497,4.3497,4.3497,4.3497,4.3497,4.3497,3.3398,3.4004,0.0,3.5684,0.0,0.0,3.582,3.6582,0.0,3.7793,3.8633,0.0,3.918,3.9512,3.9746,3.9746,3.9746,0.0,3.9746,0.0,0.0,3.918,3.8809,3.8379,3.7871,3.7871,0.0,3.584,0.0,0.0,3.4531,0.0,0.0,0.0,0.0,3.5203,0.0,3.5908,3.6413,3.6738,3.7123,3.7565,0.0,3.8411,3.8565,3.8604,3.8969,3.8623,3.8007,3.8007,3.8007,3.8007,3.8007,3.8007,3.8007,3.8007,3.8007,3.8007,3.8007,3.7642,3.7276,3.7276,3.693,3.6488,3.6122,3.5661,3.518,0.0,3.4083,3.3423,0.0,0.0,0.0,0.0,0.0,0.0,0.0,0.0,0.0,0.0,2.9607,0.0,0.0,0.0,0.0,0.0,0.0,0.0,0.0,0.0,3.333,3.3788,3.4568,3.544,3.6285,3.7092,3.79,3.8707,3.8707,3.8891,3.9239,4.0065,4.0873,4.168,4.2488,4.3075,4.3497,4.3497,4.3497,4.3497,4.3497,4.3497,4.3497,4.3497,4.3497,4.3497,3.4062,0.0,0.0,0.0,0.0,0.0,0.0,3.8281,0.0,3.8769,0.0,4.0234,4.0234,4.1016,4.1523,4.1523,0.0,4.1523,4.1523,4.0703,4.0234,4.0234,3.9394,3.8887,3.8769,3.8769,0.0,0.0,0.0,0.0,0.0,0.0,0.0,0.0,0.0,0.0,0.0,3.6754,3.7044,3.7123,3.7873,3.8238,3.8411,3.9161,3.945,3.9546,4.0239,3.9546,3.8334,3.8334,3.8334,3.8334,3.8334,3.8334,3.8334,3.8334,3.8334,3.8334,3.8334,3.8257,3.8161,3.8161,3.8084,3.7796,3.7046,3.6873,3.6642,3.5834,3.5045,3.4428,0.0,0.0,0.0,0.0,0.0,0.0,0.0,0.0,0.0,0.0,0.0,0.0,0.0,0.0,0.0,0.0,0.0,0.0,0.0,0.0,3.3697,3.3807,3.4706,3.5532,3.6285,3.7184,3.801,3.8707,3.8707,3.9129,3.9918,4.0744,4.1552,4.2341,4.3149,4.3497,4.3497,4.3497,4.3497,4.3497,4.3497,4.3497,4.3497,4.3497,4.3463,4.341,0.0,0.0,0.0,0.0,0.0,3.9629,3.9473,3.957,3.9668,3.9668,4.1016,4.1953,4.1953,4.2734,4.3262,4.3262,4.3262,0.0,0.0,0.0,0.0,4.1953,4.1172,4.041,3.9687,3.9668,3.9258,0.0,0.0,0.0,0.0,0.0,0.0,0.0,0.0,0.0,3.6851,3.7518,0.0,3.8854,3.9008,3.9469,4.0065,4.0219,4.0277,4.0296,4.045,4.0296,4.0046,4.0046,4.0046,4.0046,4.0046,4.0046,4.0046,4.0046,4.0046,4.0046,4.0046,3.9565,3.9065,3.9065,3.8527,3.7969,3.7815,3.7777,3.7526,3.668,3.6372,3.6031,3.5331,0.0,0.0,0.0,0.0,0.0,0.0,0.0,0.0,0.0,0.0,2.9803,0.0,0.0,0.0,0.0,0.0,0.0,0.0,0.0,3.3109,0.0,3.5275,0.0,0.0,0.0,3.856,3.8707,3.8707,3.9129,3.9918,4.0744,4.1552,4.2341,4.3149,4.3497,4.3497,4.3497,4.3497,4.3497,4.3497,4.3497,4.3497,4.3497,4.3214,4.2826,0.0,0.0,0.0,0.0,0.0,0.0,0.0,4.1582,4.1719,4.1269,4.2285,4.3066,4.3066,4.3457,4.3691,4.3691,4.3691,4.3691,4.3691,4.3301,4.3066,4.3066,4.2266,0.0,4.1211,4.0781,4.0156,3.9277,0.0,0.0,0.0,0.0,0.0,0.0,0.0,3.7376,0.0,0.0,0.0,3.9335,3.9738,4.0142,4.0489,4.0489,4.0489,4.0489,4.0489,4.0777,4.1104,4.0642,4.0489,4.0489,4.0489,4.0489,4.0489,4.0489,4.0489,4.0489,4.0489,4.0219,3.9912,3.9912,3.9604,3.9181,3.8777,3.8661,3.843,3.7546,3.7245,3.6826,3.5886,3.4794,0.0,0.0,0.0,0.0,0.0,0.0,0.0,0.0,0.0,0.0,0.0,0.0,0.0,0.0,0.0,0.0,0.0,0.0,3.3605,0.0,0.0,0.0,3.6909,0.0,3.8707,3.8707,3.9129,3.9735,4.0561,4.1368,4.2158,4.2928,4.3314,4.3497,4.3497,4.3497,4.3497,4.3497,4.3497,4.3497,4.3497,4.3497,4.3178,4.275,0.0,3.9961,0.0,0.0,4.1797,4.2676,4.2676,4.3418,4.3652,4.2793,4.3437,4.3984,4.3984,4.4141,4.4258,4.4258,4.4258,4.4258,4.4258,4.4082,4.3984,4.3984,4.3144,4.2676,4.2676,4.1875,4.1113,0.0,0.0,0.0,0.0,0.0,0.0,0.0,0.0,0.0,0.0,0.0,3.9598,3.9623,4.045,4.0777,4.0796,4.0969,4.1046,4.1046,4.1046,4.1489,4.197,4.1277,4.1046,4.1046,4.1046,4.1046,4.1008,4.0835,4.0777,4.0739,4.0546,4.0489,4.0489,4.0489,4.0489,4.0335,3.9634,3.9465,3.9199,3.8268,3.7715,3.7089,3.6007,3.509,0.0,0.0,0.0,0.0,0.0,0.0,0.0,0.0,0.0,0.0,3.0522,0.0,0.0,0.0,0.0,0.0,3.2577,0.0,0.0,0.0,0.0,3.6688,3.7477,0.0,3.8799,3.8964,3.9588,4.0414,4.1387,4.2011,4.2745,4.3497,4.3497,4.3497,4.3497,4.3497,4.3497,4.3497,4.3497,4.3497,4.3497,4.3375,4.2958,4.2559,0.0,0.0,0.0,0.0,0.0,4.3574,4.3574,4.4316,4.457,4.3691,4.4336,4.4883,4.4883,4.5586,4.6055,4.6055,4.6055,4.6055,4.6055,4.5312,4.4883,4.4883,4.4043,4.3574,4.3574,4.2734,4.2246,0.0,0.0,3.9453,0.0,0.0,0.0,0.0,0.0,0.0,0.0,4.0077,4.0389,4.045,4.1335,4.1681,4.1758,4.2566,4.2854,4.2854,4.2854,4.2912,4.297,4.2874,4.2854,4.2854,4.2854,4.2854,4.2701,4.1912,4.1681,4.1508,4.07,4.0489,4.0489,4.0489,4.0489,4.0422,4.01,4.0043,3.968,3.8502,3.7678,3.6814,3.5749,3.5453,3.5014,0.0,0.0,0.0,0.0,0.0,0.0,0.0,0.0,0.0,0.0,3.1347,0.0,0.0,3.2467,0.0,0.0,0.0,0.0,3.4954,3.5862,3.6688,3.7477,3.8303,3.9074,3.979,3.9845,4.0689,4.2194,4.2268,4.2745,4.3497,4.3497,4.3497,4.3497,4.3497,4.3497,4.3497,4.3497,4.3497,4.3444,4.2939,4.2382,4.1895,0.0,0.0,0.0,0.0,0.0,0.0,0.0,4.5215,4.5664,4.5312,4.5566,4.5781,4.5781,4.6094,4.6308,4.6308,4.6308,4.6308,4.6308,4.5976,4.5781,4.5781,4.4941,4.4473,4.4473,4.3633,4.3183,0.0,0.0,0.0,0.0,0.0,0.0,0.0,0.0,4.092,4.0887,4.1713,4.2066,4.2085,4.2431,4.2585,4.2624,4.297,4.3104,4.3104,4.3104,4.3412,4.3816,4.3816,4.3508,4.3104,4.3104,4.3104,4.3028,4.2681,4.2585,4.2508,4.2162,4.2066,4.1931,4.1412,4.1121,4.0825,4.0234,3.9943,3.9659,3.9188,3.8286,3.7405,3.6804,3.6306,3.5661,3.4669,0.0,0.0,0.0,0.0,0.0,0.0,0.0,0.0,0.0,0.0,0.0,0.0,0.0,0.0,0.0,0.0,0.0,3.5752,0.0,3.7404,3.8212,3.8542,3.9093,3.99,4.0396,4.1222,4.2323,4.28,4.3185,4.3497,4.3497,4.3497,4.3497,4.3497,4.3497,4.3497,4.3497,4.3497,4.3444,4.2902,4.2302,4.181,4.4023,0.0,4.416,0.0,4.4961,4.5371,4.5371,4.5898,4.6308,4.6308,4.6308,4.6308,4.6308,4.6308,4.6308,4.6308,4.6308,4.6308,4.6308,4.6308,4.6308,4.6308,4.5703,0.0,4.5371,4.4531,4.4082,4.4082,4.3203,0.0,0.0,0.0,0.0,0.0,4.2085,4.2266,4.222,4.2835,4.3104,4.3124,4.3355,4.3451,4.347,4.3739,4.3835,4.3835,4.3835,4.4201,4.4682,4.4682,4.4297,4.3835,4.3835,4.3835,4.3778,4.3528,4.3451,4.3393,4.3162,4.3104,4.2951,4.2335,4.1913,4.1472,4.0838,4.0216,3.9733,3.9408,3.8697,3.8025,3.7573,3.7037,3.6376,3.5532,0.0,0.0,0.0,0.0,0.0,0.0,3.3807,3.3587,3.3018,3.3476,0.0,0.0,0.0,0.0,0.0,0.0,0.0,0.0,0.0,0.0,3.8689,3.8927,3.946,4.0267,4.1075,4.1882,4.2671,4.3222,4.3497,4.3497,4.3497,4.3497,4.3497,4.3497,4.3497,4.3497,4.3497,4.3497,4.3444,4.2902,4.244,4.2021,4.4824,4.498,4.5254,4.6113,4.6289,4.6289,4.6289,4.6289,4.6308,4.6308,4.6308,4.6308,4.6308,4.6308,4.6308,4.6308,4.6308,4.6308,4.6308,4.6308,4.6308,0.0,0.0,4.6289,4.6289,4.543,4.498,4.498,0.0,0.0,4.2402,0.0,4.2481,4.3169,4.3104,4.3085,4.3085,4.3104,4.3104,4.3162,4.397,4.4297,4.4374,4.524,4.5566,4.5566,4.5566,4.5566,4.5566,4.5566,4.5566,4.5566,4.5566,4.5566,4.5393,4.4528,4.4297,4.4105,4.3316,4.3104,4.3104,4.3085,4.2794,4.2419,4.2143,4.1132,3.9993,3.8927,3.8689,3.845,3.7643,3.7477,3.7202,3.6413,0.0,0.0,0.0,0.0,0.0,3.3899,3.3807,3.3807,3.3788,3.3788,0.0,0.0,0.0,0.0,0.0,0.0,0.0,3.7422,3.7477,0.0,3.8689,3.9478,4.0286,4.1111,4.1901,4.2708,4.3479,4.3497,4.3497,4.3497,4.3497,4.3497,4.3497,4.3497,4.3497,4.3497,4.3497,4.3497,4.3444,4.2902,4.2711,4.2616,4.582,4.5898,4.5976,4.625,4.6308,4.6308,4.6308,4.6308,4.6308,4.6308,4.6308,4.6308,4.6308,4.6308,4.6308,0.0,4.6308,4.6308,0.0,4.6308,4.6308,4.6308,4.6308,4.6308,4.6308,4.6035,4.5898,4.5898,0.0,0.0,0.0,4.2963,4.2986,4.3215,4.3701,4.3912,4.3951,4.4547,4.4797,4.4816,4.5066,4.5182,4.522,4.549,4.5586,4.5586,4.5586,4.5586,4.5586,4.5586,4.5586,4.5586,4.5586,4.5586,4.5547,4.5259,4.5182,4.5124,4.4874,4.4797,4.4662,4.4066,4.3694,4.3285,4.261,4.1356,4.0225,3.9645,3.9074,3.8615,3.8377,3.8322,3.8046,3.7239,3.711,0.0,3.6009,0.0,3.5789,3.5532,3.5495,3.5495,3.5495,3.5495,0.0,0.0,0.0,0.0,0.0,0.0,0.0,0.0,3.8028,0.0,3.9515,3.9772,4.0579,4.1919,4.2176,4.2708,4.3497,4.3497,4.3497,4.3497,4.3497,4.3497,4.3497,4.3497,4.3497,4.3497,4.3497,4.3497,4.3444,4.2902,4.2711,4.2655,4.6308,4.6308,4.6308,4.6308,4.6308,4.6308,4.6308,4.6308,4.6308,4.6308,4.6308,4.6308,4.6308,4.6308,0.0,4.6308,4.6308,4.6308,4.6308,4.6308,4.6308,4.6308,4.6308,4.6308,4.6308,4.6308,0.0,4.6308,4.57,4.5093,4.4462,4.4266,4.415,4.4124,4.4595,4.4778,4.4816,4.5355,4.5586,4.5586,4.5586,4.5586,4.5586,4.5586,4.5586,4.5586,4.5586,4.5586,4.5586,4.5586,4.5586,4.5586,4.5586,4.5586,4.5586,4.5586,4.5586,4.5586,4.5586,4.5586,4.547,4.4913,4.4576,4.4064,4.2924,4.1863,4.0977,4.0459,3.9717,3.9148,3.9148,3.8909,3.8542,3.8028,3.7936,3.7661,3.6853,0.0,3.6633,0.0,0.0,0.0,0.0,3.6303,3.6431,0.0,0.0,0.0,0.0,0.0,3.7624,3.7936,3.8726,3.9386,3.99,4.0487,4.1313,4.2304,4.2598,4.3002,4.3497,4.3497,4.3497,4.3497,4.3497,4.3497,4.3497,4.3497,4.3497,4.3497,4.3497,4.3497,4.3444,4.3124,4.3014,4.305,4.6308,4.6308,4.6308,4.6308,4.6308,4.6308,4.6308,4.6308,4.6308,4.6308,4.6308,4.6308,4.6308,4.6308,4.6308,4.6308,0.0,0.0,4.6308,4.6308,4.6308,4.6308,4.6308,4.6308,4.6308,4.6308,4.6308,4.6308,4.617,4.6027,4.5899,4.5832,4.5723,4.5586,4.5586,4.5586,4.5586,4.5586,4.5586,4.5586,4.5586,4.5586,4.5586,4.5586,4.5586,4.5586,4.5586,4.5586,4.5586,4.5586,4.5586,4.5586,4.5586,4.5586,4.5586,4.5586,4.5586,4.5586,4.5586,4.5586,4.5586,4.5586,4.5342,4.471,4.3212,4.2606,4.2117,4.135,4.0543,3.9974,3.9974,3.9331,3.8781,3.8781,3.8744,3.8432,3.7679,3.7599,3.7294,0.0,0.0,0.0,3.6468,3.6468,3.678,0.0,0.0,0.0,0.0,0.0,3.8065,3.8762,3.9551,4.001,4.0065,4.1552,4.2323,4.2396,4.313,4.3497,4.3497,4.3497,4.3497,4.3497,4.3497,4.3497,4.3497,4.3497,4.3497,4.3497,4.3497,4.3497,4.3497,4.3497,4.3497,4.3573,0.0,0.0,4.6308,4.6308,4.6308,4.6308,4.6308,4.6308,4.6308,4.6308,4.6308,4.6308,4.6308,4.6308,4.6308,4.6308,4.6308,4.6308,4.6308,4.6308,4.6308,4.6308,4.6308,4.6308,4.6308,4.6308,4.6308,4.6308,4.605,4.5924,4.5899,4.5722,4.5618,4.5586,4.5586,4.5586,4.5586,4.5586,4.5586,4.5586,4.5586,4.5586,4.5586,4.5586,4.5586,4.5586,4.5586,4.5586,4.5586,4.5586,4.5586,4.5586,4.5586,4.5586,4.5586,4.5586,4.5586,4.5586,4.5586,4.5586,4.5586,4.5586,4.5342,4.4862,4.3932,4.3174,4.2557,4.2114,4.1387,4.0836,4.0836,4.0157,3.9625,3.9625,3.9093,3.8634,3.8432,3.8414,3.8358,0.0,3.8138,3.8138,3.8138,3.8138,3.8212,0.0,0.0,3.9405,3.9606,4.0029,4.0047,3.9625,4.0414,4.1111,4.1735,4.2103,4.2598,4.3222,4.3406,4.3497,4.3497,4.3497,4.3497,4.3497,4.3497,4.3497,4.3497,4.3497,4.3497,4.3497,4.3497,4.3497,4.3497,4.3497,4.325,4.301,4.6308,4.6308,4.6308,4.6308,4.6308,4.6308,4.6308,4.6308,4.6308,4.6308,4.6308,4.6308,4.6308,4.6308,4.6308,4.6308,4.6308,4.6308,4.6308,4.6308,4.6308,4.6308,4.6308,4.6308,4.6308,4.6308,4.6268,4.6202,4.5995,4.5872,4.585,4.5673,4.5586,4.5586,4.5586,4.5586,4.5586,4.5586,4.5586,4.5586,4.5586,4.5586,4.5586,4.5586,4.5586,4.5586,4.5586,4.5586,4.5586,4.5586,4.5586,4.5586,4.5586,4.5586,4.5586,4.5586,4.5586,4.5586,4.5586,4.5586,4.5568,4.5419,4.4969,4.4489,4.4087,4.3528,4.3061,4.2904,4.2213,4.1662,4.1662,4.1001,4.0451,4.0451,4.0084,3.968,3.9294,3.9239,3.9111,3.8744,3.8707,3.8836,3.9203,3.9239,3.9405,3.9772,4.0212,0.0,4.0451,4.1222,4.1277,4.0469,4.124,4.1864,4.2304,4.2653,4.3057,4.3497,4.3497,4.3497,4.3497,4.3497,4.3497,4.3497,4.3497,4.3497,4.3497,4.3497,4.3497,4.3497,4.3497,4.3497,4.3479,4.3214,4.3157,4.3264,4.6308,4.6308,4.6308,4.6308,4.6308,4.6308,4.6308,4.6308,4.6308,4.6308,4.6308,4.6308,4.6308,4.6308,4.6308,4.6308,4.6308,4.6308,4.6308,4.6308,4.6308,4.6308,4.6308,4.6308,4.6308,4.6289,4.6202,4.6108,4.5959,4.585,4.5796,4.5665,4.5586,4.5586,4.5586,4.5586,4.5586,4.5586,4.5586,4.5586,4.5586,4.5586,4.5586,4.5586,4.5586,4.5586,4.5586,4.5586,4.5586,4.5586,4.5586,4.5586,4.5586,4.5586,4.5586,4.5586,4.5586,4.5586,4.5586,4.5568,4.5438,4.5096,4.4508,4.3986,4.3924,4.3693,4.3497,4.3497,4.2947,4.2488,4.2488,4.1827,4.1295,4.1295,4.1185,4.0873,4.0175,0.0,3.9827,3.9148,3.9074,3.9331,4.001,4.0084,4.0359,4.1056,4.1222,4.1295,4.1295,4.2047,4.2176,4.1497,4.2121,4.2488,4.2488,4.3149,4.3497,4.3497,4.3497,4.3497,4.3497,4.3497,4.3497,4.3497,4.3497,4.3497,4.3497,4.3497,4.3497,4.3497,4.3497,4.3497,4.3463,4.3122,4.3346,4.3854,4.6308,4.6308,4.6308,4.6308,4.6308,4.6308,4.6308,4.6308,4.6308,4.6308,4.6308,4.6308,4.6308,4.6308,4.6308,4.6308,4.6308,4.6308,4.6308,4.6308,4.6308,4.6308,4.6308,4.6308,4.6308,4.6198,4.6117,4.6108,4.5911,4.5803,4.5796,4.5665,4.5586,4.5586,4.5586,4.5586,4.5586,4.5586,4.5586,4.5586,4.5586,4.5586,4.5586,4.5586,4.5586,4.5586,4.5586,4.5586,4.5586,4.5586,4.5586,4.5586,4.5586,4.5586,4.5586,4.5586,4.5586,4.5586,4.5586,4.54,4.5096,4.4757,4.4346,4.3924,4.3646,4.3548,4.3497,4.3497,4.3387,4.3296,4.3296,4.2653,4.2121,4.2121,4.1552,4.1075,4.0946,0.0,4.0873,4.0744,4.0744,4.0799,4.091,4.0928,4.0983,4.1111,4.1735,4.2121,4.2121,4.2873,4.3259,4.313,4.324,4.3296,4.3296,4.3424,4.3497,4.3497,4.3497,4.3497,4.3497,4.3497,4.3497,4.3497,4.3497,4.3497,4.3497,4.3497,4.3497,4.3497,4.3497,4.3497,4.3571,4.4179,4.4179,4.4083,4.6308,4.6308,4.6308,4.6308,4.6308,4.6465,4.6933,4.6992,4.7168,4.7637,4.7695,4.7695,4.7695,4.7695,4.7695,4.7695,4.7695,4.7695,4.7695,4.6816,4.6308,4.6308,4.6308,4.6268,4.6198,4.612,4.6053,4.5948,4.5852,4.5775,4.5677,4.5618,4.5586,4.5586,4.5586,4.5586,4.5586,4.5586,4.5586,4.5586,4.5586,4.5586,4.5586,4.5586,4.5586,4.5586,4.5586,4.5586,4.5586,4.5586,4.5586,4.5586,4.5586,4.5586,4.5586,4.5586,4.5457,4.5322,4.5322,4.4924,4.4482,4.4318,4.3986,4.3693,4.3548,4.3497,4.3497,4.3497,4.3497,4.3497,4.3497,4.3185,4.2947,4.2947,4.2635,4.2249,4.1809,4.1754,4.1589,4.1167,4.1111,4.1277,4.1699,4.1754,4.1937,4.2359,4.2745,4.2947,4.2947,4.3296,4.3497,4.3497,4.3497,4.3497,4.3497,4.3497,4.3497,4.3497,4.3497,4.3497,4.3497,4.3497,4.3497,4.3497,4.3497,4.3497,4.3497,4.3497,4.3497,4.3497,4.3497,4.3754,4.416,4.4236,4.4624,4.5197,4.6894,4.6894,4.6894,4.6894,4.6894,4.7129,4.7793,4.7891,4.8144,4.8808,4.8906,4.8906,4.8906,4.8906,4.8906,4.8906,4.8906,4.8906,4.8906,4.7656,4.6894,4.6894,4.6719,4.6539,4.6405,4.6172,4.5971,4.5796,4.5775,4.5692,4.5586,4.5586,4.5586,4.5586,4.5586,4.5586,4.5586,4.5586,4.5586,4.5586,4.5586,4.5586,4.5586,4.5586,4.5586,4.5586,4.5586,4.5586,4.5586,4.5586,4.5586,4.5586,4.5586,4.5586,4.5586,4.5586,4.5322,4.5007,4.5074,4.4561,4.4016,4.4016,4.3758,4.3497,4.3497,4.3497,4.3497,4.3497,4.3497,4.3497,4.3497,4.3497,4.3497,4.3497,0.0,4.3277,4.2671,4.258,4.2359,4.1735,4.1662,4.1901,4.2525,4.258,4.2837,4.3442,4.3497,4.3497,4.3497,4.3497,4.3497,4.3497,4.3497,4.3497,4.3497,4.3497,4.3497,4.3497,4.3497,4.3497,4.3497,4.3497,4.3497,4.3497,4.3497,4.3497,4.3497,4.3497,4.3497,4.3516,4.3699,4.4158,4.471,4.4669,4.5403,4.6372,4.8711,4.8711,4.8711,4.8711,4.8711,4.873,4.8789,4.8808,4.8828,4.8887,4.8906,4.8906,4.8906,4.8906,4.8906,4.8906,4.8906,4.8906,4.8906,4.8789,4.8711,4.8711,4.793,4.7437,4.7303,4.6391,4.5891,4.5796,4.568,4.5603,4.5586,4.5586,4.5586,4.5586,4.5586,4.5586,4.5586,4.5586,4.5586,4.5586,4.5586,4.5586,4.5586,4.5586,4.5586,4.5586,4.5586,4.5586,4.5586,4.5586,4.5586,4.5586,4.5586,4.5586,4.5586,4.5586,4.514,4.4707,4.503,4.4561,4.4016,4.4016,4.3758,4.3497,4.3497,4.3497,4.3497,4.3497,4.3497,4.3497,4.3497,4.3497,4.3497,4.3497,0.0,0.0,4.3406,4.3406,4.3387,4.3314,4.3314,4.3332,4.3406,4.3406,4.3424,4.3497,4.3497,4.3497,4.3497,4.3497,4.3497,4.3497,4.3497,4.3497,4.3497,4.3497,4.3497,4.3497,4.3497,4.3497,4.3497,4.3497,4.3497,4.3497,4.3497,4.3497,4.3497,4.3497,4.3497,4.3552,4.4323,4.4654,4.4892,4.6342,4.6928,4.7129,4.8906,4.8906,4.8906,4.8906,4.8906,4.9082,4.9629,4.9707,4.9883,5.0391,5.0449,5.0449,5.0449,5.0449,5.0449,5.0449,5.0449,5.0449,5.0449,5.0449,4.998,4.8945,4.8574,4.8309,4.8086,4.7715,4.742,4.7227,4.718,4.7144,4.7144,4.7144,4.7144,4.7144,4.7144,4.7144,4.7144,4.7144,4.7144,4.7144,4.7144,4.7144,4.7144,4.7144,4.7144,4.7144,4.7144,4.7144,4.7144,4.7144,4.7144,4.7144,4.7144,4.7144,4.7048,4.6547,4.5538,4.4631,4.4776,4.4252,4.3693,4.3693,4.3597,4.3497,4.3497,4.3497,4.3497,4.3497,4.3497,4.3497,4.3497,4.3497,4.3497,4.3497,0.0,4.3497,4.3497,4.3497,4.3497,4.3497,4.3497,4.3497,4.3497,4.3497,4.3497,4.3497,4.3497,4.3497,4.3497,4.3497,4.3497,4.3497,4.3497,4.3497,4.3497,4.3497,4.3497,4.3497,4.3497,4.3497,4.3497,4.3497,4.3497,4.3497,4.3497,4.3497,4.3534,4.403,4.425,4.4323,4.5131,4.5755,4.6269,4.6855,4.7443,4.7846,4.9687,4.9687,4.9687,4.9687,4.9687,4.9883,5.0488,5.0586,5.0762,5.1328,5.1406,5.1406,5.1406,5.1406,5.1406,5.1406,5.1406,5.1406,5.1406,5.1406,5.0898,4.9746,4.9393,4.9146,4.8904,4.8603,4.8321,4.8105,4.8105,4.8105,4.8105,4.8105,4.8105,4.8105,4.8105,4.8105,4.8105,4.8105,4.8105,4.8105,4.8105,4.8105,4.8105,4.8105,4.8105,4.8105,4.8105,4.8105,4.8105,4.8105,4.8105,4.8105,4.8105,4.8105,4.799,4.7451,4.6464,4.5533,4.5533,4.5019,4.4291,4.3642,4.3497,4.3497,4.3497,4.3497,4.3497,4.3497,4.3497,4.3497,4.3497,4.3497,4.3497,4.3497,4.3497,4.3497,4.3497,4.3497,4.3497,4.3497,4.3497,4.3497,4.3497,4.3497,4.3497,4.3497,4.3497,4.3497,4.3497,4.3497,4.3497,4.3497,4.3497,4.3497,4.3497,4.3497,4.3497,4.3497,4.3497,4.3497,4.3497,4.3497,4.3497,4.3497,4.3754,4.3883,4.3938,4.4745,4.5094,4.5168,4.5957,4.6617,4.715,4.7388,4.7847,4.821,5.1406,5.1406,5.1406,5.1406,5.1406,5.1406,5.1406,5.1406,5.1406,5.1406,5.1406,5.1406,5.1406,5.1406,5.1406,5.1406,5.1406,5.1406,5.1406,5.1406,5.1406,5.1406,5.0507,4.9958,4.9809,4.8832,4.8234,4.8125,4.8125,4.8125,4.8125,4.8125,4.8125,4.8125,4.8125,4.8125,4.8125,4.8125,4.8125,4.8125,4.8125,4.8125,4.8125,4.8125,4.8125,4.8125,4.8125,4.8125,4.8125,4.8125,4.8125,4.8125,4.8125,4.8125,4.8105,4.8105,4.7872,4.7598,4.7598,4.7068,4.6001,4.4002,4.3497,4.3497,4.3497,4.3497,4.3497,4.3497,4.3497,4.3497,4.3497,4.3497,4.3497,4.3497,4.3497,4.3497,4.3497,4.3497,4.3497,4.3497,4.3497,4.3497,4.3497,4.3497,4.3497,4.3497,4.3497,4.3497,4.3497,4.3497,4.3497,4.3497,4.3497,4.3497,4.3497,4.3497,4.3497,4.3497,4.3497,4.3497,4.3497,4.3497,4.3497,4.3552,4.436,4.4727,4.4782,4.5571,4.5902,4.5993,4.6819,4.7131,4.7223,4.8012,4.8306,4.821,5.1406,5.1406,5.1406,5.1406,5.1406,5.1406,5.1406,5.1406,5.1406,5.1406,5.1406,5.1406,5.1406,5.1406,5.1406,5.1406,5.1406,5.1406,5.1406,5.1406,5.1365,5.1268,5.0996,5.077,5.0578,5.0278,5.0046,4.9913,4.9913,4.9913,4.9913,4.9913,4.9913,4.9913,4.9913,4.9913,4.9913,4.9913,4.9913,4.9913,4.9913,4.9913,4.9913,4.9913,4.9913,4.9913,4.9913,4.9913,4.9913,4.9913,4.9913,4.9913,4.9913,4.949,4.9009,4.9009,4.8332,4.7598,4.7598,4.7271,4.6571,4.5121,4.4561,4.4195,4.3626,4.3497,4.3497,4.3497,4.3497,4.3497,4.3497,4.3497,4.3497,4.3497,4.3497,4.3497,4.3497,4.3497,4.3497,4.3497,4.3497,4.3497,4.3497,4.3497,4.3497,4.3497,4.3497,4.3497,4.3497,4.3497,4.3497,4.3497,4.3497,4.3497,4.3497,4.3497,4.3497,4.3497,4.3497,4.3791,4.4342,4.4342,4.4654,4.5204,4.5443,4.5535,4.5608,4.6416,4.6746,4.6838,4.7645,4.7957,4.7976,4.8214,4.8306,4.821,5.1406,5.1406,5.1406,5.1406,5.1406,5.1406,5.1406,5.1406,5.1406,5.1406,5.1406,5.1406,5.1406,5.1406,5.1406,5.1406,5.1406,5.1406,5.1406,5.1344,5.1265,5.118,5.1117,5.1025,5.0889,5.0851,5.0773,5.0702,5.0702,5.0702,5.0702,5.0702,5.0702,5.0702,5.0702,5.0702,5.0702,5.0702,5.0702,5.0702,5.0702,5.0702,5.0702,5.0702,5.0702,5.0702,5.0702,5.0702,5.0702,5.0702,5.0702,5.0702,5.0702,5.0337,4.9913,4.9913,4.9392,4.8826,4.8826,4.8567,4.806,4.6994,4.6047,4.5247,4.4579,4.4195,4.3975,4.3975,4.3718,4.3497,4.3497,4.3497,4.3497,4.3497,4.3497,4.3497,4.3497,4.3497,4.3497,4.3497,4.3497,4.3497,4.3497,4.3497,4.3497,4.3497,4.3497,4.3497,4.3497,4.3791,4.3975,4.3975,4.4268,4.4452,4.4452,4.4452,4.4287,4.3975,4.4287,4.469,4.5168,4.5168,4.5443,4.592,4.625,4.6379,4.6452,4.726,4.759,4.7627,4.8122,4.8306,4.8306,4.8306,4.8306,4.821,5.1406,5.1406,5.1406,5.1406,5.1406,5.1406,5.1406,5.1406,5.1406,5.1406,5.1406,5.1406,5.1406,5.1406,5.1406,5.1406,5.1406,5.1406,5.1406,5.1271,5.1167,5.1094,5.0966,5.0874,5.0879,5.0757,5.0702,5.0702,5.0702,5.0702,5.0702,5.0702,5.0702,5.0702,5.0702,5.0702,5.0702,5.0702,5.0702,5.0702,5.0702,5.0702,5.0702,5.0702,5.0702,5.0702,5.0702,5.0702,5.0702,5.0702,5.0702,5.0702,5.0702,5.0702,5.0702,5.0702,5.0702,5.0702,5.0702,5.0421,4.9968,4.9201,4.788,4.661,4.6081,4.5386,4.4836,4.4819,4.4213,4.3699,4.3699,4.3699,4.3699,4.3699,4.3699,4.3681,4.3608,4.3608,4.3571,4.3497,4.3552,4.3608,4.3608,4.3663,4.3699,4.3699,4.3699,4.3699,4.3699,4.4415,4.4819,4.4819,4.5516,4.5902,4.5902,4.5975,4.5608,4.4837,4.5553,4.5938,4.6012,4.6012,4.6049,4.6159,4.6893,4.7223,4.7278,4.8012,4.8306,4.8306,4.8306,4.8306,4.8306,4.8306,4.8306,4.821,5.1406,5.1406,5.1406,5.1406,5.1406,5.1406,5.1406,5.1406,5.1406,5.1406,5.1406,5.1406,5.1406,5.1406,5.1406,5.1406,5.1406,5.1406,5.1406,5.1271,5.1167,5.1094,5.0966,5.0851,5.0758,5.0721,5.0702,5.0702,5.0702,5.0702,5.0702,5.0702,5.0702,5.0702,5.0702,5.0702,5.0702,5.0702,5.0702,5.0702,5.0702,5.0702,5.0702,5.0702,5.0702,5.0702,5.0702,5.0702,5.0702,5.0702,5.0702,5.0702,5.0702,5.0702,5.0702,5.0702,5.0702,5.0702,5.0702,5.0643,5.0445,4.9954,4.9349,4.8412,4.6754,4.6248,4.6038,4.5698,4.5498,4.5369,4.5369,4.5369,4.5369,4.5369,4.5369,4.5149,4.4525,4.4452,4.4213,4.3552,4.4066,4.4452,4.4452,4.5002,4.5369,4.5369,4.5369,4.5369,4.5369,4.5553,4.5645,4.5645,4.581,4.5902,4.5902,4.6544,4.6452,4.5645,4.581,4.6232,4.6856,4.6856,4.7186,4.7792,4.7976,4.8049,4.8067,4.8233,4.8306,4.8306,4.8306,4.8306,4.8306,4.8306,4.8306,4.821,5.1406,5.1406,5.1406,5.1406,5.1406,5.1406,5.1406,5.1406,5.1406,5.1406,5.1406,5.1406,5.1406,5.1406,5.1406,5.1406,5.1406,5.1366,5.1318,5.121,5.1111,5.1016,5.0879,5.0756,5.0683,5.0702,5.0702,5.0702,5.0702,5.0702,5.0702,5.0702,5.0702,5.0702,5.0702,5.0702,5.0702,5.0702,5.0702,5.0702,5.0702,5.0702,5.0702,5.0702,5.0702,5.0702,5.0702,5.0702,5.0702,5.0702,5.0702,5.0702,5.0702,5.0702,5.0702,5.0702,5.0702,5.0702,5.0702,5.0702,5.0663,5.0442,5.0068,4.9418,4.7959,4.7218,4.6738,4.6507,4.6177,4.5902,4.5902,4.5902,4.5902,4.5902,4.5902,4.5755,4.5333,4.5278,4.5131,4.469,4.5021,4.5278,4.5278,4.5645,4.5902,4.5902,4.5902,4.5902,4.5902,4.6269,4.6471,4.6471,4.6838,4.704,4.704,4.7462,4.7462,4.704,4.704,4.7278,4.7682,4.7682,4.7921,4.8306,4.8306,4.8306,4.8306,4.8306,4.8306,4.8306,4.8306,4.8306,4.8306,4.8306,4.8306,4.8249,5.1406,5.1406,5.1406,5.1406,5.1406,5.1406,5.1406,5.1406,5.1406,5.1406,5.1406,5.1406,5.1406,5.1406,5.1406,5.1406,5.1386,5.132,5.1206,5.112,5.1016,5.0889,5.0756,5.0702,5.0702,5.0702,5.0702,5.0702,5.0702,5.0702,5.0702,5.0702,5.0702,5.0702,5.0702,5.0702,5.0702,5.0702,5.0702,5.0702,5.0702,5.0702,5.0702,5.0702,5.0702,5.0702,5.0702,5.0702,5.0702,5.0702,5.0702,5.0702,5.0702,5.0702,5.0702,5.0702,5.0702,5.0702,5.0702,5.0702,5.0702,5.0702,5.0336,4.9827,4.9171,4.8173,4.7371,4.7315,4.6783,4.6305,4.6305,4.6305,4.6305,4.6305,4.6305,4.6269,4.6122,4.6104,4.6049,4.592,4.6012,4.6159,4.6305,4.6305,4.6305,4.6305,4.6305,4.6305,4.6305,4.6948,4.7333,4.7333,4.7957,4.8306,4.8306,4.8306,4.8306,4.8306,4.8306,4.8306,4.8306,4.8306,4.8306,4.8306,4.8306,4.8306,4.8306,4.8306,4.8306,4.8306,4.8306,4.8306,4.8306,4.8306,4.8306,4.8306,5.1406,5.1406,5.1406,5.1406,5.1406,5.1406,5.1406,5.1406,5.1406,5.1406,5.1406,5.1406,5.1406,5.1406,5.1406,5.1406,5.1296,5.121,5.1201,5.1025,5.0918,5.0908,5.0756,5.0702,5.0702,5.0702,5.0702,5.0702,5.0702,5.0702,5.0702,5.0702,5.0702,5.0702,5.0702,5.0702,5.0702,5.0702,5.0702,5.0702,5.0702,5.0702,5.0702,5.0702,5.0702,5.0702,5.0702,5.0702,5.0702,5.0702,5.0702,5.0702,5.0702,5.0702,5.0702,5.0702,5.0702,5.0702,5.0702,5.0702,5.0702,5.0702,5.0135,4.9561,4.9445,4.9033,4.8561,4.8198,4.8049,4.7994,4.7994,4.7994,4.7994,4.7994,4.7994,4.7737,4.7058,4.6948,4.6691,4.5975,4.6526,4.7223,4.7921,4.7994,4.7994,4.7994,4.7994,4.7994,4.7994,4.8086,4.8141,4.8141,4.8251,4.8306,4.8306,4.8306,4.8306,4.8306,4.8306,4.8306,4.8306,4.8306,4.8306,4.8306,4.8306,4.8306,4.8306,4.8306,4.8306,4.8306,4.8306,4.8306,4.8306,4.8306,4.8306,4.8306,5.1406,5.1406,5.1406,5.1406,5.1406,5.1406,5.1406,5.1816,5.2129,5.2129,5.2558,5.2851,5.2851,5.2851,5.2811,5.2758,5.2698,5.2584,5.2435,5.2349,5.226,5.2199,5.2127,5.2106,5.2106,5.2106,5.2106,5.2106,5.1164,5.0702,5.0702,5.0702,5.0702,5.0702,5.0702,5.0702,5.0702,5.0702,5.0702,5.0702,5.0702,5.0971,5.1375,5.1375,5.1664,5.2106,5.2106,5.2106,5.2106,5.2106,5.2106,5.2106,5.2106,5.2106,5.1991,5.151,5.1375,5.1279,5.0818,5.0702,5.0702,5.0702,5.0272,4.9773,4.9532,4.9202,4.8779,4.8402,4.8306,4.8306,4.8306,4.8306,4.8306,4.8306,4.8306,4.8196,4.7829,4.7774,4.7645,4.7278,4.7553,4.7921,4.8269,4.8306,4.8306,4.8306,4.8306,4.8306,4.8306,4.8306,4.8306,4.8306,4.8306,4.8306,4.8306,4.8306,4.8306,4.8306,4.8306,4.8306,4.8306,4.8306,4.8306,4.8306,4.8306,4.8306,4.8306,4.8306,4.8306,4.8306,4.8306,4.8306,4.8306,4.8306,4.8306,4.8306]}]]